Date StartTime U_cm/s V_cm/s W_cm/s Ustd_cm/s Vstd_cm/s Wstd_cm/s Uvar_(cm/s)^2 Vvar_(cm/s)^2 Wvar_(cm/s)^2 KE_(m/s)^2 TurbulentKE_(m/s)^2 HorizWindSpeed_cm/s FrictionSpeec_cm/s DragCoef SpeedOfSound_m/s SonicTemperature_C Pressure_mb 
10/21/2013  00:00:00     -109.989      -33.318      -17.399       10.870       14.498        9.764      118.159      210.197       95.338        0.697        0.021      114.925        7.069        0.004      337.592        9.671      864.018
10/21/2013  00:01:00     -117.462      -39.925      -19.681        7.853       10.089        8.896       61.665      101.790       79.138        0.801        0.012      124.062        6.506        0.003      337.561        9.618      864.002
10/21/2013  00:02:00     -125.220      -41.271      -19.383       13.275       11.058        8.481      176.212      122.289       71.924        0.906        0.019      131.846        5.389        0.002      337.511        9.535      863.990
10/21/2013  00:03:00     -150.055      -45.725      -20.798       12.762       13.860       10.633      162.869      192.108      113.067        1.275        0.023      156.867        3.595        0.001      337.490        9.500      863.980
10/21/2013  00:04:00     -129.348      -38.411      -11.565       21.549       19.277       14.676      464.371      371.599      215.376        0.970        0.053      134.931       11.799        0.008      337.362        9.285      863.966
10/21/2013  00:05:00     -137.402      -37.554      -18.164       17.339       13.865       15.003      300.635      192.239      225.087        1.067        0.036      142.442        7.484        0.003      337.326        9.224      863.968
10/21/2013  00:06:00     -136.449      -28.772       -8.300       19.016       15.852       12.174      361.598      251.289      148.213        1.014        0.038      139.449        8.980        0.004      337.386        9.325      863.977
10/21/2013  00:07:00     -127.859      -41.731      -17.389       21.204       18.550       12.622      449.622      344.114      159.321        0.967        0.048      134.497       12.024        0.008      337.422        9.385      863.979
10/21/2013  00:08:00     -132.112      -48.198      -14.270       23.632       23.754       12.805      558.458      564.251      163.976        1.063        0.064      140.630       10.985        0.006      337.443        9.420      863.979
10/21/2013  00:09:00      -89.067      -53.887       -0.903       34.035       29.869       21.732     1158.356      892.155      472.288        0.668        0.126      104.100       20.131        0.037      337.366        9.291      863.980
10/21/2013  00:10:00      -37.202      -33.316       14.374       40.956       28.430       26.973     1677.414      808.238      727.546        0.296        0.161       49.940       25.058        0.252      337.285        9.156      863.992
10/21/2013  00:11:00      -52.014      -32.866        6.385       36.947       20.689       21.485     1365.059      428.019      461.590        0.304        0.113       61.528       17.864        0.084      337.344        9.255      864.002
10/21/2013  00:12:00      -22.932      -31.211        7.607       35.577       19.049       17.729     1265.688      362.863      314.330        0.175        0.097       38.730       20.671        0.285      337.335        9.241      864.025
10/21/2013  00:13:00      -17.515      -40.112       12.935       32.176       27.703       20.061     1035.282      767.439      402.430        0.214        0.110       43.769       17.369        0.157      337.472        9.468      864.034
10/21/2013  00:14:00      -41.570      -59.589        7.676       39.051       28.186       21.951     1524.953      794.468      481.861        0.407        0.140       72.656       20.173        0.077      337.515        9.541      864.042
10/21/2013  00:15:00     -105.853      -68.676       -5.919       30.158       26.087       16.242      909.503      680.520      263.805        0.890        0.093      126.180        5.871        0.002      337.399        9.347      864.045
10/21/2013  00:16:00     -102.256      -81.493       -7.529       33.385       34.876       22.733     1114.571     1216.325      516.776        1.000        0.142      130.757       12.387        0.009      337.340        9.249      864.026
10/21/2013  00:17:00      -96.689      -89.951        1.238       33.459       44.642       24.208     1119.493     1992.922      586.035        1.057        0.185      132.060       16.963        0.016      337.187        8.992      864.029
10/21/2013  00:18:00      -78.900      -90.439        0.368       51.497       44.536       28.146     2651.901     1983.454      792.219        0.992        0.271      120.018       29.294        0.060      337.125        8.887      864.042
10/21/2013  00:19:00     -105.166      -91.273        2.816       49.324       43.331       30.619     2432.900     1877.565      937.546        1.232        0.262      139.250       27.622        0.039      337.151        8.932      864.041
10/21/2013  00:20:00      -91.014      -85.043        3.051       48.257       45.704       30.275     2328.765     2088.884      916.597        1.043        0.267      124.563       29.538        0.056      337.132        8.899      864.032
10/21/2013  00:21:00      -41.606      -81.486       12.853       51.414       46.576       34.674     2643.403     2169.355     1202.254        0.727        0.301       91.493       36.287        0.157      337.183        8.985      864.046
10/21/2013  00:22:00      -87.396     -111.065       -2.433       40.125       37.966       24.552     1609.981     1441.437      602.781        1.182        0.183      141.327       20.156        0.020      337.352        9.269      864.052
10/21/2013  00:23:00     -102.331     -105.264       -8.346       29.281       37.918       18.758      857.367     1437.784      351.852        1.213        0.132      146.806       11.203        0.006      337.486        9.492      864.046
10/21/2013  00:24:00     -116.919      -71.413        2.368       48.201       40.889       29.442     2323.331     1671.872      866.853        1.182        0.243      137.003       25.729        0.035      337.348        9.262      864.043
10/21/2013  00:25:00     -121.133      -68.874        5.474       64.297       52.307       31.219     4134.161     2736.002      974.619        1.364        0.392      139.344       32.177        0.053      337.319        9.214      864.034
10/21/2013  00:26:00     -150.995      -85.774       -5.386       70.264       36.093       35.111     4937.079     1302.698     1232.786        1.883        0.374      173.656       39.214        0.051      337.283        9.152      864.027
10/21/2013  00:27:00     -155.966      -65.095      -10.523       46.395       31.295       19.354     2152.451      979.391      374.561        1.609        0.175      169.005       19.073        0.013      337.263        9.119      864.017
10/21/2013  00:28:00     -160.060      -42.050       -9.608       30.859       27.046       20.507      952.261      731.469      420.530        1.479        0.105      165.491       14.158        0.007      337.238        9.078      863.998
10/21/2013  00:29:00     -152.910      -27.982       -8.746       37.192       36.190       21.894     1383.214     1309.734      479.343        1.371        0.159      155.450       18.358        0.014      337.151        8.932      863.990
10/21/2013  00:30:00     -105.203      -42.962       -4.896       40.930       22.820       14.630     1675.230      520.767      214.024        0.767        0.121      113.637       16.096        0.020      337.188        8.993      864.003
10/21/2013  00:31:00     -132.195      -42.120       -8.039       35.216       27.921       21.221     1240.156      779.586      450.350        1.089        0.124      138.743       15.824        0.013      337.226        9.058      863.996
10/21/2013  00:32:00     -153.873      -60.516      -14.255       19.738       21.058       11.841      389.578      443.435      140.201        1.426        0.049      165.345        4.767        0.001      337.325        9.224      863.987
10/21/2013  00:33:00      -77.615      -63.868        0.457       45.495       34.387       21.478     2069.762     1182.491      461.324        0.691        0.186      100.515       26.344        0.069      337.312        9.201      863.988
10/21/2013  00:34:00      -73.792      -56.779       -8.702       36.914       34.837       23.550     1362.609     1213.624      554.585        0.594        0.157       93.108       21.895        0.055      337.255        9.105      863.973
10/21/2013  00:35:00      -82.063      -61.584       -2.936       34.359       25.546       23.369     1180.554      652.610      546.099        0.646        0.119      102.601       23.140        0.051      337.177        8.975      863.982
10/21/2013  00:36:00     -114.171      -42.904       -8.847       21.075       16.451       11.778      444.154      270.625      138.714        0.790        0.043      121.967       10.803        0.008      337.168        8.960      863.986
10/21/2013  00:37:00      -76.690      -53.309       -7.628       20.204       20.834       13.533      408.182      434.043      183.137        0.490        0.051       93.398       11.452        0.015      337.231        9.065      863.992
10/21/2013  00:38:00      -51.661      -31.683       -9.478       21.384       14.199       11.408      457.282      201.606      130.141        0.228        0.039       60.602        7.169        0.014      337.292        9.167      864.015
10/21/2013  00:39:00      -54.923      -42.730       -0.497       31.892       17.272       16.200     1017.116      298.335      262.454        0.321        0.079       69.588       16.144        0.054      337.315        9.208      864.032
10/21/2013  00:40:00      -70.770      -24.518       -5.521       14.892       18.287       10.519      221.768      334.398      110.645        0.315        0.033       74.897        8.513        0.013      337.309        9.197      864.036
10/21/2013  00:41:00      -68.321      -25.893       -9.020       12.709       10.751       11.195      161.524      115.575      125.319        0.291        0.020       73.063        6.616        0.008      337.246        9.092      864.047
10/21/2013  00:42:00      -79.615      -32.600       -9.689        9.505        9.885        9.755       90.347       97.706       95.167        0.389        0.014       86.030        5.834        0.005      337.254        9.105      864.053
10/21/2013  00:43:00      -83.222      -33.481      -12.072        6.731        8.150        6.306       45.302       66.430       39.770        0.417        0.008       89.705        2.563        0.001      337.235        9.073      864.048
10/21/2013  00:44:00      -61.481      -37.136        0.380       13.593       10.684       10.276      184.758      114.139      105.600        0.278        0.020       71.826        9.022        0.016      337.223        9.054      864.056
10/21/2013  00:45:00      -84.078      -48.166       -6.086       16.551       13.862        9.573      273.946      192.154       91.645        0.499        0.028       96.897        2.844        0.001      337.268        9.128      864.058
10/21/2013  00:46:00      -92.230      -55.900       -7.934       15.636       12.842       14.079      244.469      164.921      198.209        0.615        0.030      107.848        7.029        0.004      337.228        9.062      864.051
10/21/2013  00:47:00      -50.144      -48.257        2.289       33.898       30.232       24.569     1149.091      913.998      603.626        0.376        0.133       69.593       20.828        0.090      337.142        8.916      864.062
10/21/2013  00:48:00     -113.128      -68.896       -2.169       30.325       27.127       20.455      919.628      735.859      418.418        0.981        0.104      132.456       19.718        0.022      337.295        9.172      864.072
10/21/2013  00:49:00      -79.752      -57.877        0.431       39.389       30.951       16.723     1551.513      957.977      279.651        0.625        0.139       98.541       14.379        0.021      337.277        9.143      864.079
10/21/2013  00:50:00      -56.579      -46.787      -10.492       37.094       21.253       14.587     1375.993      451.709      212.788        0.377        0.102       73.419        7.551        0.011      337.287        9.159      864.088
10/21/2013  00:51:00     -103.114      -59.820       -4.551       42.351       33.784       26.141     1793.636     1141.372      683.357        0.892        0.181      119.209       22.773        0.036      337.168        8.960      864.093
10/21/2013  00:52:00      -96.190      -62.158       -0.100       60.947       42.734       28.325     3714.541     1826.194      802.322        0.973        0.317      114.525       28.267        0.061      337.021        8.712      864.099
10/21/2013  00:53:00     -171.559     -130.356       -9.511       44.384       44.058       28.614     1969.947     1941.104      818.751        2.562        0.236      215.465       15.938        0.005      336.977        8.637      864.105
10/21/2013  00:54:00     -148.849     -107.586       -6.386       51.640       46.754       29.738     2666.716     2185.898      884.373        1.975        0.287      183.659       27.220        0.022      336.882        8.480      864.109
10/21/2013  00:55:00     -135.269     -102.823       -6.235       45.174       50.370       35.119     2040.733     2537.115     1233.313        1.736        0.291      169.913       37.603        0.049      336.920        8.544      864.120
10/21/2013  00:56:00     -100.607      -74.419       -4.042       45.389       36.052       21.727     2060.158     1299.776      472.041        0.975        0.192      125.140       17.063        0.019      336.895        8.504      864.131
10/21/2013  00:57:00     -118.024      -61.301       -6.454       30.725       21.564       16.588      944.048      464.995      275.153        0.971        0.084      132.994       10.364        0.006      336.844        8.418      864.126
10/21/2013  00:58:00     -117.152      -63.638       -4.412       25.848       25.820       16.441      668.114      666.680      270.295        0.970        0.080      133.321        9.647        0.005      336.916        8.539      864.123
10/21/2013  00:59:00     -121.306      -59.241       -0.458       24.259       22.256       15.844      588.507      495.334      251.030        0.978        0.067      134.999       13.195        0.010      336.842        8.415      864.124
10/21/2013  01:00:00     -122.352      -49.894       -6.670       24.692       18.803       15.037      609.704      353.553      226.118        0.935        0.059      132.134        7.608        0.003      336.815        8.370      864.132
10/21/2013  01:01:00     -120.170      -42.527      -10.448       15.918       18.844       11.064      253.374      355.081      122.403        0.854        0.037      127.472        9.397        0.005      336.836        8.405      864.134
10/21/2013  01:02:00     -119.702      -30.337      -10.700       16.614       16.130       15.277      276.032      260.165      233.385        0.807        0.038      123.487       11.654        0.009      336.811        8.364      864.133
10/21/2013  01:03:00     -133.072      -34.419      -18.877       18.927       15.414       12.109      358.249      237.607      146.634        1.000        0.037      137.451       10.286        0.006      336.772        8.299      864.138
10/21/2013  01:04:00     -129.330      -37.351       -7.696       33.817       22.041       18.599     1143.620      485.822      345.928        1.008        0.099      134.616       20.792        0.024      336.754        8.269      864.152
10/21/2013  01:05:00     -130.394      -54.250        2.232       43.515       31.268       20.916     1893.529      977.671      437.490        1.163        0.165      141.230       23.749        0.028      336.862        8.449      864.152
10/21/2013  01:06:00     -141.043      -52.235       -9.186       17.030       22.294       12.869      290.036      497.024      165.613        1.183        0.048      150.405        7.606        0.003      336.861        8.447      864.159
10/21/2013  01:07:00     -131.712      -68.601       -9.577       16.476       16.238       14.260      271.457      263.680      203.337        1.144        0.037      148.506       11.276        0.006      336.826        8.390      864.169
10/21/2013  01:08:00     -144.486      -54.977      -13.450       13.573       12.706        8.464      184.222      161.431       71.637        1.225        0.021      154.592        6.562        0.002      336.780        8.312      864.174
10/21/2013  01:09:00     -140.544      -54.069      -15.271       14.756       18.090       12.359      217.732      327.264      152.742        1.180        0.035      150.586        4.808        0.001      336.739        8.243      864.177
10/21/2013  01:10:00      -79.172      -65.332        3.775       50.805       29.673       22.381     2581.148      880.508      500.895        0.726        0.198      102.647       25.302        0.061      336.764        8.286      864.181
10/21/2013  01:11:00      -62.314      -26.829        3.705       46.845       25.872       22.467     2194.484      669.386      504.776        0.399        0.168       67.844       22.399        0.109      336.769        8.294      864.181
10/21/2013  01:12:00      -75.687      -52.280        3.004       58.198       27.927       23.109     3386.992      779.926      534.017        0.659        0.235       91.988       29.519        0.103      336.895        8.503      864.179
10/21/2013  01:13:00      -77.088      -43.413       -7.979       51.782       31.042       26.930     2681.329      963.636      725.222        0.613        0.219       88.471       21.789        0.061      336.896        8.506      864.170
10/21/2013  01:14:00      -60.090      -49.912        3.594       51.342       27.490       20.671     2635.977      755.682      427.282        0.497        0.191       78.115       20.883        0.071      336.795        8.337      864.179
10/21/2013  01:15:00      -54.400      -41.172        7.349       50.595       34.385       20.542     2559.866     1182.332      421.978        0.444        0.208       68.224       23.334        0.117      336.725        8.221      864.183
10/21/2013  01:16:00      -20.310      -22.970        4.922       36.897       36.019       16.676     1361.352     1297.343      278.086        0.195        0.147       30.662       20.390        0.442      336.735        8.238      864.183
10/21/2013  01:17:00      -46.572      -14.977        1.058       22.802       23.150       13.957      519.912      535.925      194.800        0.182        0.063       48.921       10.264        0.044      336.718        8.209      864.190
10/21/2013  01:18:00      -39.271      -21.863       -5.574       16.736       14.044       11.429      280.078      197.233      130.623        0.133        0.030       44.947        7.594        0.029      336.715        8.204      864.214
10/21/2013  01:19:00      -48.122      -13.417       -9.650       16.351       19.727       11.273      267.357      389.168      127.071        0.169        0.039       49.957       12.304        0.061      336.854        8.434      864.219
10/21/2013  01:20:00      -63.187      -22.104      -10.368       12.603       11.215       10.071      158.826      125.784      101.430        0.249        0.019       66.941        5.810        0.008      336.839        8.412      864.218
10/21/2013  01:21:00      -68.738      -34.547       -9.262       13.282       13.238        9.326      176.418      175.242       86.973        0.322        0.022       76.931        6.101        0.006      336.803        8.351      864.234
10/21/2013  01:22:00      -55.538      -27.671       -9.184       12.787       12.233        8.926      163.509      149.647       79.680        0.216        0.020       62.050        2.307        0.001      336.782        8.315      864.241
10/21/2013  01:23:00      -55.820      -26.034       -5.094       13.806        9.592        7.520      190.599       92.004       56.553        0.208        0.017       61.592        3.470        0.003      336.820        8.379      864.247
10/21/2013  01:24:00      -46.611      -29.190       -6.834       14.453       11.178        8.115      208.897      124.950       65.849        0.174        0.020       54.997        4.742        0.007      336.840        8.412      864.253
10/21/2013  01:25:00      -66.891      -36.914       -2.513       18.027       11.232        9.635      324.977      126.163       92.837        0.319        0.027       76.401        5.478        0.005      336.795        8.337      864.265
10/21/2013  01:26:00      -79.479      -46.276      -11.458       28.535       16.347       13.574      814.230      267.232      184.261        0.493        0.063       91.969        9.673        0.011      336.754        8.270      864.273
10/21/2013  01:27:00      -73.649      -50.965       -6.792       25.914       17.974       15.374      671.547      323.077      236.369        0.465        0.062       89.564        8.120        0.008      336.648        8.091      864.273
10/21/2013  01:28:00      -61.318      -33.342       -2.004       27.104       18.270       15.614      734.629      333.783      243.799        0.309        0.066       69.797        7.126        0.010      336.582        7.982      864.275
10/21/2013  01:29:00     -107.001      -47.370      -10.201       14.091       17.539       11.105      198.565      307.626      123.312        0.721        0.031      117.018        8.628        0.005      336.561        7.946      864.284
10/21/2013  01:30:00     -100.140      -41.025      -11.555       12.686       17.380       11.344      160.940      302.055      128.688        0.622        0.030      108.218        3.001        0.001      336.555        7.935      864.284
10/21/2013  01:31:00     -100.769      -49.140       -9.604       10.886       13.657       10.550      118.499      186.525      111.309        0.654        0.021      112.112        7.371        0.004      336.566        7.956      864.287
10/21/2013  01:32:00      -76.603      -42.580       -2.303       22.701       18.253       14.403      515.320      333.172      207.448        0.437        0.053       87.642       13.955        0.025      336.588        7.991      864.287
10/21/2013  01:33:00      -67.859      -40.310        0.025       21.993       16.767       14.530      483.699      281.145      211.133        0.360        0.049       78.929       14.235        0.033      336.581        7.981      864.295
10/21/2013  01:34:00      -94.275      -46.078      -11.791       13.328       13.761        7.675      177.641      189.367       58.909        0.579        0.021      104.933        4.664        0.002      336.606        8.021      864.300
10/21/2013  01:35:00      -79.037      -47.383       -3.636       23.439       19.126       15.297      549.380      365.790      233.997        0.483        0.057       92.152       14.215        0.024      336.511        7.863      864.313
10/21/2013  01:36:00      -92.244      -46.878       -6.552       15.937       12.921       13.068      253.986      166.950      170.771        0.567        0.030      103.472       10.300        0.010      336.481        7.811      864.316
10/21/2013  01:37:00     -123.150      -44.094      -13.408       17.818       14.114        8.697      317.485      199.199       75.640        0.894        0.030      130.807        3.192        0.001      336.474        7.801      864.321
10/21/2013  01:38:00     -132.067      -48.239      -12.732       14.576       16.907        9.966      212.455      285.831       99.315        1.026        0.030      140.601        6.568        0.002      336.449        7.757      864.326
10/21/2013  01:39:00     -103.815      -59.948       -1.819       24.946       18.870       14.231      622.282      356.090      202.520        0.778        0.059      119.880       13.330        0.012      336.445        7.751      864.338
10/21/2013  01:40:00      -88.271      -51.689       -0.406       27.700       23.485       20.052      767.263      551.553      402.080        0.609        0.086      102.292       15.295        0.022      336.463        7.782      864.348
10/21/2013  01:41:00      -90.994      -48.431        4.007       32.035       20.382       17.418     1026.254      415.406      303.372        0.619        0.087      103.080       16.692        0.026      336.433        7.731      864.350
10/21/2013  01:42:00     -108.791      -59.871       -2.397       21.235       20.062       15.752      450.933      402.484      248.118        0.826        0.055      124.178        9.354        0.006      336.375        7.635      864.355
10/21/2013  01:43:00      -82.218      -57.452        3.276       35.091       25.288       24.423     1231.368      639.487      596.494        0.627        0.123      100.302       21.506        0.046      336.338        7.572      864.369
10/21/2013  01:44:00      -78.042      -61.554        6.691       56.660       39.709       22.774     3210.323     1576.780      518.642        0.761        0.265       99.396       21.828        0.048      336.400        7.675      864.369
10/21/2013  01:45:00     -110.282      -66.004        3.866       45.461       29.526       23.399     2066.665      871.794      547.506        1.001        0.174      128.525       22.688        0.031      336.422        7.712      864.363
10/21/2013  01:46:00      -82.924      -61.243       11.304       49.113       32.800       25.735     2412.085     1075.812      662.311        0.745        0.208      103.088       28.847        0.078      336.388        7.656      864.374
10/21/2013  01:47:00      -94.750      -48.702       -7.910       31.897       19.163       16.454     1017.392      367.236      270.734        0.653        0.083      106.534       17.613        0.027      336.446        7.752      864.388
10/21/2013  01:48:00     -124.717      -50.316       -5.274       25.982       23.948       16.676      675.084      573.504      278.078        0.982        0.076      134.484       11.994        0.008      336.387        7.654      864.390
10/21/2013  01:49:00     -126.087      -42.258       -1.425       25.938       26.016       18.589      672.762      676.836      345.536        0.969        0.085      132.981       12.512        0.009      336.343        7.580      864.395
10/21/2013  01:50:00     -118.240      -55.662       -4.655       16.556       18.107       13.925      274.096      327.855      193.908        0.895        0.040      130.687       12.984        0.010      336.336        7.570      864.404
10/21/2013  01:51:00     -112.008      -42.332       -9.862       16.889       14.873       12.832      285.231      221.201      164.648        0.755        0.034      119.740        9.244        0.006      336.386        7.652      864.405
10/21/2013  01:52:00     -130.407      -48.691       -4.890       20.082       17.321       11.994      403.272      300.001      143.846        1.012        0.042      139.201        3.649        0.001      336.398        7.674      864.407
10/21/2013  01:53:00     -141.314      -51.135       -7.633       13.280       13.997       10.326      176.359      195.930      106.636        1.156        0.024      150.281        6.092        0.002      336.352        7.597      864.408
10/21/2013  01:54:00     -148.816      -43.466      -14.700       16.126       12.911       11.839      260.055      166.683      140.160        1.241        0.028      155.034        8.108        0.003      336.312        7.529      864.403
10/21/2013  01:55:00     -129.975      -30.545      -13.881       31.247       23.986       17.051      976.351      575.330      290.745        0.993        0.092      133.515        8.784        0.004      336.191        7.327      864.396
10/21/2013  01:56:00     -110.741      -24.337       -7.519       37.744       37.459       21.232     1424.581     1403.201      450.791        0.809        0.164      113.384       19.877        0.031      336.145        7.249      864.408
10/21/2013  01:57:00     -114.164      -39.425       -0.764       38.227       40.669       23.043     1461.296     1653.990      530.986        0.912        0.182      120.780       22.444        0.035      336.303        7.515      864.404
10/21/2013  01:58:00      -47.891      -12.704       -2.719       43.519       30.284       22.062     1893.861      917.141      486.723        0.288        0.165       49.547       23.885        0.232      336.301        7.510      864.413
10/21/2013  01:59:00      -51.364      -66.701       -2.248       41.264       33.976       21.681     1702.728     1154.373      470.047        0.521        0.166       84.186       20.522        0.059      336.366        7.621      864.420
10/21/2013  02:00:00     -144.518      -65.311      -14.636       35.933       26.322       20.201     1291.167      692.823      408.077        1.388        0.120      158.591       19.887        0.016      336.263        7.447      864.418
10/21/2013  02:01:00     -130.700      -20.809        2.336       42.138       32.705       21.948     1775.590     1069.630      481.725        1.042        0.166      132.346       21.098        0.025      336.295        7.501      864.409
10/21/2013  02:02:00     -108.545      -32.290       -3.367       36.197       21.072       18.598     1310.194      444.024      345.881        0.747        0.105      113.246       20.920        0.034      336.271        7.462      864.419
10/21/2013  02:03:00     -122.556      -24.741      -13.020       16.211       16.825       13.393      262.785      283.072      179.371        0.826        0.036      125.028        7.454        0.004      336.321        7.545      864.406
10/21/2013  02:04:00     -124.718      -48.337      -13.653       13.635       15.166       12.344      185.909      230.009      152.381        0.932        0.028      133.758        4.678        0.001      336.311        7.527      864.396
10/21/2013  02:05:00     -130.926      -36.965      -13.023       14.263       14.397        9.928      203.436      207.279       98.569        0.959        0.025      136.045        9.335        0.005      336.249        7.425      864.405
10/21/2013  02:06:00     -119.146      -51.459      -14.905       18.314       15.331       14.476      335.414      235.054      209.548        0.892        0.039      129.784        9.827        0.006      336.245        7.417      864.404
10/21/2013  02:07:00     -143.181      -61.146      -10.657       16.028       14.556       12.650      256.903      211.876      160.035        1.249        0.031      155.690        6.985        0.002      336.287        7.487      864.407
10/21/2013  02:08:00     -155.859      -58.190      -10.798       19.891       16.538       10.711      395.642      273.517      114.718        1.429        0.039      166.368        7.349        0.002      336.371        7.626      864.417
10/21/2013  02:09:00      -81.791      -43.491       -0.040       40.402       20.939       21.070     1632.340      438.439      443.945        0.555        0.126       92.636       15.435        0.028      336.317        7.538      864.425
10/21/2013  02:10:00      -57.413      -50.821        1.893       29.362       25.867       19.105      862.149      669.112      364.995        0.389        0.095       76.675       18.279        0.057      336.247        7.421      864.427
10/21/2013  02:11:00      -45.832      -50.957        9.286       33.832       22.800       21.293     1144.618      519.852      453.373        0.345        0.106       68.536       20.936        0.093      336.257        7.438      864.452
10/21/2013  02:12:00      -33.035      -28.589       10.640       44.032       31.677       22.633     1938.819     1003.432      512.273        0.274        0.173       43.688       22.592        0.267      336.281        7.477      864.459
10/21/2013  02:13:00      -28.465      -43.432       10.445       44.973       36.646       21.914     2022.582     1342.943      480.235        0.333        0.192       51.929       24.599        0.224      336.425        7.719      864.465
10/21/2013  02:14:00      -69.734      -98.565       -2.769       45.955       45.384       28.365     2111.865     2059.703      804.546        0.978        0.249      120.739       25.804        0.046      336.517        7.871      864.475
10/21/2013  02:15:00      -83.688     -100.453        0.806       49.358       48.872       27.263     2436.183     2388.464      743.269        1.133        0.278      130.746       27.611        0.045      336.441        7.744      864.497
10/21/2013  02:16:00      -57.120      -68.494       -2.746       44.928       49.150       28.274     2018.535     2415.753      799.396        0.660        0.262       89.186       31.581        0.125      336.459        7.776      864.504
10/21/2013  02:17:00      -79.445      -42.369       -3.511       60.622       42.792       33.286     3675.053     1831.145     1107.974        0.737        0.331       90.037       31.906        0.126      336.279        7.474      864.493
10/21/2013  02:18:00      -92.107      -73.524        1.910       48.790       43.620       33.129     2380.464     1902.713     1097.519        0.964        0.269      117.853       27.109        0.053      336.205        7.349      864.488
10/21/2013  02:19:00     -125.871     -101.720      -10.288       62.125       48.238       30.627     3859.461     2326.924      938.020        1.671        0.356      161.835       26.515        0.027      336.156        7.266      864.492
10/21/2013  02:20:00     -156.224      -82.067      -14.361       54.426       53.301       31.793     2962.211     2841.006     1010.822        1.908        0.341      176.468       25.375        0.021      336.054        7.096      864.491
10/21/2013  02:21:00     -122.274      -58.693       -0.407       66.275       39.983       28.888     4392.423     1598.639      834.505        1.261        0.341      135.632       28.237        0.043      335.976        6.967      864.491
10/21/2013  02:22:00      -87.393      -45.722        4.901       58.001       44.156       30.156     3364.067     1949.763      909.359        0.799        0.311       98.631       26.401        0.072      335.982        6.978      864.493
10/21/2013  02:23:00     -122.132      -40.567        6.789       65.790       32.998       34.133     4328.277     1088.896     1165.057        1.159        0.329      128.693       35.172        0.075      335.900        6.841      864.497
10/21/2013  02:24:00     -132.336      -74.014       -1.946       71.621       43.331       34.358     5129.563     1877.579     1180.473        1.559        0.409      151.627       38.906        0.066      335.786        6.651      864.481
10/21/2013  02:25:00     -127.758      -90.363        1.139       43.708       35.862       25.504     1910.357     1286.112      650.436        1.417        0.192      156.485       22.043        0.020      335.952        6.928      864.471
10/21/2013  02:26:00     -106.788      -71.032       -3.221       49.037       38.783       20.485     2404.598     1504.118      419.654        1.039        0.216      128.254       21.343        0.028      336.024        7.047      864.475
10/21/2013  02:27:00     -120.811      -63.384       -0.979       32.200       24.364       20.286     1036.825      593.616      411.533        1.033        0.102      136.429       21.081        0.024      336.014        7.031      864.480
10/21/2013  02:28:00     -127.885      -50.439      -12.000       19.414       17.409       14.184      376.895      303.057      201.198        0.996        0.044      137.473        7.976        0.003      335.973        6.964      864.481
10/21/2013  02:29:00     -128.447      -38.762       -9.025       25.152       21.021       15.158      632.615      441.879      229.764        0.969        0.065      134.169       11.577        0.007      336.006        7.018      864.479
10/21/2013  02:30:00     -128.936      -37.099       -6.827       30.193       22.548       18.168      911.626      508.423      330.074        0.990        0.088      134.167       17.263        0.017      335.959        6.940      864.484
10/21/2013  02:31:00     -112.738      -28.894       -6.095       30.467       17.803       18.514      928.215      316.956      342.777        0.758        0.079      116.382       17.663        0.023      335.910        6.857      864.488
10/21/2013  02:32:00     -114.687      -28.164       -6.751       37.541       17.691       18.723     1409.301      312.985      350.550        0.803        0.104      118.095       17.511        0.022      335.894        6.833      864.507
10/21/2013  02:33:00     -124.875      -40.271       -8.947       29.910       24.416       20.792      894.581      596.144      432.313        0.961        0.096      131.208       17.107        0.017      335.898        6.838      864.503
10/21/2013  02:34:00      -94.338      -36.289        2.244       43.895       26.975       15.917     1926.812      727.653      253.345        0.656        0.145      101.077       20.905        0.043      335.873        6.796      864.499
10/21/2013  02:35:00     -125.388      -47.084        0.321       26.024       26.622       14.348      677.234      708.716      205.870        0.977        0.080      133.937       11.290        0.007      335.888        6.822      864.505
10/21/2013  02:36:00     -138.751      -46.971       -2.489       18.330       14.104       12.500      335.977      198.913      156.248        1.108        0.035      146.486        9.622        0.004      335.927        6.887      864.491
10/21/2013  02:37:00     -118.128      -59.477       -7.949       20.558       16.656       15.861      422.648      277.420      251.556        0.925        0.048      132.256        8.527        0.004      335.913        6.863      864.479
10/21/2013  02:38:00     -127.858      -46.718       -4.040       34.103       23.424       19.433     1163.013      548.678      377.629        1.032        0.104      136.126       18.683        0.019      335.881        6.810      864.474
10/21/2013  02:39:00      -77.859      -36.784        6.158       34.227       20.579       19.969     1171.469      423.500      398.753        0.472        0.100       86.111       16.914        0.039      335.909        6.856      864.485
10/21/2013  02:40:00      -83.324      -27.041        0.121       20.568       19.981       14.191      423.046      399.240      201.398        0.435        0.051       87.602       11.650        0.018      335.926        6.885      864.489
10/21/2013  02:41:00      -75.185      -31.079      -10.616       21.466       14.338        8.916      460.787      205.584       79.495        0.374        0.037       81.355        5.021        0.004      335.924        6.882      864.498
10/21/2013  02:42:00      -37.628      -14.784        5.586       19.955       10.139       13.925      398.211      102.800      193.907        0.118        0.035       40.429       12.271        0.092      335.860        6.774      864.506
10/21/2013  02:43:00      -31.767      -21.143       10.106       31.804       13.660       15.083     1011.479      186.586      227.494        0.149        0.071       38.159       16.794        0.194      335.876        6.800      864.520
10/21/2013  02:44:00      -16.443      -30.258       12.125       26.828       17.738       19.389      719.718      314.645      375.943        0.137        0.071       34.437       19.660        0.326      335.907        6.854      864.529
10/21/2013  02:45:00      -55.313      -55.210        0.470       36.445       20.150       17.099     1328.254      406.012      292.382        0.407        0.101       78.151        8.434        0.012      335.992        6.995      864.531
10/21/2013  02:46:00      -92.695      -40.303        0.536       48.784       41.029       25.491     2379.895     1683.338      649.798        0.746        0.236      101.078       20.348        0.041      335.957        6.937      864.527
10/21/2013  02:47:00      -96.337      -67.396       -7.817       40.759       40.432       23.205     1661.289     1634.752      538.485        0.886        0.192      117.572       14.022        0.014      336.008        7.022      864.529
10/21/2013  02:48:00      -77.386      -42.048        7.614       48.609       37.599       25.469     2362.809     1413.710      648.664        0.612        0.221       88.072       25.285        0.082      335.883        6.815      864.522
10/21/2013  02:49:00      -95.033      -62.187       -2.052       39.377       29.225       22.042     1550.514      854.076      485.835        0.790        0.145      113.571       20.691        0.033      335.871        6.793      864.509
10/21/2013  02:50:00      -37.148      -38.363        4.455       34.429       32.096       19.934     1185.361     1030.167      397.380        0.274        0.131       53.402       21.966        0.169      335.850        6.760      864.512
10/21/2013  02:51:00      -53.014      -68.158        2.753       38.919       24.030       20.726     1514.703      577.446      429.585        0.499        0.126       86.349       17.061        0.039      335.938        6.905      864.514
10/21/2013  02:52:00      -59.164      -65.690        3.960       29.203       31.162       19.967      852.811      971.056      398.678        0.503        0.111       88.405       22.765        0.066      335.925        6.883      864.514
10/21/2013  02:53:00      -58.692      -59.251        3.998       30.289       24.234       16.557      917.441      587.288      274.147        0.437        0.089       83.399       14.887        0.032      335.924        6.882      864.513
10/21/2013  02:54:00      -92.693      -79.093       -1.303       33.063       43.673       21.808     1093.155     1907.348      475.588        0.916        0.174      121.851       18.290        0.023      335.893        6.831      864.510
10/21/2013  02:55:00      -81.803      -72.261       -0.870       36.575       34.286       22.217     1337.696     1175.532      493.586        0.746        0.150      109.149       22.635        0.043      335.889        6.823      864.494
10/21/2013  02:56:00      -67.528      -35.773        3.913       42.503       27.959       20.234     1806.541      781.719      409.405        0.443        0.150       76.419       21.501        0.079      335.861        6.777      864.478
10/21/2013  02:57:00      -95.451      -30.526       -5.211       15.058       17.410       13.037      226.741      303.107      169.963        0.538        0.035      100.214        9.455        0.009      335.828        6.723      864.480
10/21/2013  02:58:00      -61.614      -16.670        0.031       24.767       17.740       13.695      613.397      314.690      187.552        0.259        0.056       63.829       11.391        0.032      335.765        6.616      864.478
10/21/2013  02:59:00      -67.931      -13.679       -0.404       31.386       18.977       13.689      985.091      360.139      187.383        0.317        0.077       69.294       16.291        0.055      335.646        6.419      864.469
10/21/2013  03:00:00      -50.145      -19.877        3.721       17.433       18.486       13.539      303.901      341.731      183.300        0.188        0.041       53.941        9.659        0.032      335.692        6.496      864.465
10/21/2013  03:01:00      -85.776      -20.900       -3.360       16.195       13.088       11.561      262.272      171.294      133.648        0.419        0.028       88.285       10.408        0.014      335.720        6.542      864.468
10/21/2013  03:02:00      -83.944      -33.237        2.931       15.990       12.727       10.423      255.666      161.966      108.647        0.434        0.026       90.285        8.274        0.008      335.721        6.544      864.481
10/21/2013  03:03:00      -69.006      -37.529        1.949       30.870       18.554       14.260      952.939      344.257      203.344        0.384        0.075       78.551       16.028        0.042      335.705        6.517      864.483
10/21/2013  03:04:00      -39.934      -29.493        3.236       24.658       17.792       13.250      608.001      316.564      175.572        0.179        0.055       49.645       11.872        0.057      335.731        6.561      864.487
10/21/2013  03:05:00      -52.660      -39.081        0.901       25.503       16.067       15.649      650.424      258.153      244.898        0.273        0.058       65.577       12.788        0.038      335.822        6.710      864.492
10/21/2013  03:06:00      -70.430      -46.027       -4.379       23.750       14.428        9.681      564.066      208.171       93.717        0.398        0.043       84.136        4.915        0.003      335.768        6.623      864.500
10/21/2013  03:07:00      -79.379      -25.093      -13.009       10.242       12.827        8.108      104.899      164.539       65.738        0.372        0.017       83.251        4.238        0.003      335.784        6.649      864.495
10/21/2013  03:08:00      -72.879      -35.769       -8.704       13.877       10.521       10.665      192.570      110.695      113.740        0.354        0.021       81.184        5.469        0.005      335.751        6.596      864.493
10/21/2013  03:09:00      -61.644      -25.808       -3.513       17.461       16.084       12.675      304.884      258.683      160.660        0.260        0.036       66.828        8.517        0.016      335.701        6.510      864.507
10/21/2013  03:10:00      -77.238      -19.963       -1.010       14.590       13.073       10.129      212.859      170.903      102.587        0.343        0.024       79.776        7.664        0.009      335.718        6.538      864.514
10/21/2013  03:11:00      -72.454      -15.032       -5.898       12.010       13.514       10.280      144.235      182.639      105.686        0.297        0.022       73.997        8.655        0.014      335.694        6.499      864.509
10/21/2013  03:12:00      -45.928      -20.222        3.538       19.236       16.261       11.278      370.019      264.433      127.190        0.165        0.038       50.183        8.890        0.031      335.620        6.376      864.511
10/21/2013  03:13:00      -43.009      -20.571        3.694       23.582       15.964       14.344      556.124      254.850      205.753        0.165        0.051       47.675       14.275        0.090      335.567        6.287      864.514
10/21/2013  03:14:00      -93.629      -22.634      -11.724       11.044       17.443        8.548      121.968      304.248       73.061        0.496        0.025       96.326        5.749        0.004      335.603        6.348      864.509
10/21/2013  03:15:00      -77.976      -14.856       -7.842       23.752       12.962       14.089      564.180      168.017      198.495        0.365        0.047       79.379       13.893        0.031      335.629        6.389      864.486
10/21/2013  03:16:00      -81.291      -29.196       -4.297       11.949       11.871        9.189      142.772      140.922       84.433        0.392        0.018       86.375        4.201        0.002      335.630        6.391      864.471
10/21/2013  03:17:00      -73.083      -28.964       -6.655       11.826        7.736        7.983      139.856       59.852       63.731        0.324        0.013       78.613        6.604        0.007      335.599        6.341      864.455
10/21/2013  03:18:00      -75.829      -13.361      -11.748        9.611       10.368        9.317       92.373      107.503       86.805        0.318        0.014       76.997        3.793        0.002      335.627        6.386      864.453
10/21/2013  03:19:00      -88.721      -17.452      -12.540       12.940        8.432        8.143      167.453       71.097       66.301        0.432        0.015       90.422        3.751        0.002      335.646        6.419      864.442
10/21/2013  03:20:00     -102.935      -16.429      -15.553       10.672       12.548        7.991      113.882      157.461       63.857        0.572        0.017      104.238        3.264        0.001      335.625        6.384      864.433
10/21/2013  03:21:00      -91.422      -14.690      -14.132       16.562       14.943       11.523      274.316      223.296      132.779        0.470        0.032       92.595       10.742        0.013      335.621        6.377      864.425
10/21/2013  03:22:00      -82.642      -21.019       -8.235       17.229       12.731        8.892      296.843      162.066       79.071        0.394        0.027       85.273        8.313        0.010      335.658        6.440      864.431
10/21/2013  03:23:00      -92.619      -32.510      -10.226       11.617       10.894        7.795      134.951      118.671       60.754        0.503        0.016       98.159        6.520        0.004      335.653        6.430      864.443
10/21/2013  03:24:00     -115.641      -42.774      -14.168        9.451        9.048        7.447       89.318       81.874       55.465        0.781        0.011      123.298        4.271        0.001      335.592        6.331      864.438
10/21/2013  03:25:00     -115.206      -24.579      -14.485       18.237       17.155        9.206      332.603      294.290       84.741        0.740        0.036      117.799        5.842        0.002      335.492        6.161      864.439
10/21/2013  03:26:00     -110.577      -32.991      -10.911       28.111       16.103       12.457      790.218      259.318      155.170        0.732        0.060      115.393       10.523        0.008      335.440        6.075      864.443
10/21/2013  03:27:00     -113.163      -31.523       -9.508       22.610       15.519       12.854      511.210      240.844      165.235        0.740        0.046      117.472       12.503        0.011      335.409        6.023      864.443
10/21/2013  03:28:00      -89.702      -46.543       -0.917       26.912       19.132       16.933      724.247      366.026      286.741        0.580        0.069      101.058       16.874        0.028      335.387        5.986      864.450
10/21/2013  03:29:00     -101.272      -44.817       -0.472       31.086       17.288       15.859      966.339      298.867      251.511        0.689        0.076      110.745       14.209        0.016      335.350        5.925      864.455
10/21/2013  03:30:00     -118.612      -64.676       -1.031       27.095       18.886       18.967      734.126      356.673      359.735        0.985        0.073      135.099       16.062        0.014      335.393        5.997      864.454
10/21/2013  03:31:00      -84.426      -48.455        3.940       46.828       26.703       18.768     2192.892      713.075      352.237        0.637        0.163       97.343       18.920        0.038      335.451        6.093      864.459
10/21/2013  03:32:00      -55.012      -33.646        8.665       44.430       25.818       20.600     1973.991      666.560      424.365        0.365        0.153       64.485       19.498        0.091      335.494        6.166      864.467
10/21/2013  03:33:00      -39.987      -34.102        4.141       37.438       22.263       19.605     1401.587      495.639      384.340        0.253        0.114       52.554       15.032        0.082      335.477        6.136      864.474
10/21/2013  03:34:00      -73.721      -31.553        2.795       37.279       31.455       16.373     1389.735      989.432      268.068        0.454        0.132       80.190       17.170        0.046      335.475        6.134      864.464
10/21/2013  03:35:00      -96.351      -47.001       -1.174       32.361       18.705       14.894     1047.209      349.894      221.837        0.656        0.081      107.203       16.357        0.023      335.478        6.138      864.456
10/21/2013  03:36:00     -111.770      -33.910       -6.324       23.109       20.519       14.844      534.035      421.048      220.343        0.743        0.059      116.801        8.564        0.005      335.492        6.163      864.453
10/21/2013  03:37:00     -104.199      -41.737        2.170       40.175       29.543       21.643     1614.008      872.811      468.405        0.778        0.148      112.247       25.536        0.052      335.469        6.124      864.450
10/21/2013  03:38:00      -73.852      -41.849        5.425       54.672       35.003       24.153     2988.983     1225.212      583.384        0.602        0.240       84.885       26.410        0.097      335.445        6.083      864.433
10/21/2013  03:39:00     -106.156      -39.405        2.193       41.967       25.056       18.696     1761.261      627.824      349.550        0.778        0.137      113.234       13.508        0.014      335.476        6.136      864.425
10/21/2013  03:40:00     -104.127      -38.845        3.426       32.137       28.618       16.791     1032.811      819.008      281.928        0.725        0.107      111.136       12.479        0.013      335.497        6.171      864.429
10/21/2013  03:41:00     -122.790      -67.495        0.077       34.332       32.081       18.779     1178.718     1029.203      352.655        1.110        0.128      140.118       16.957        0.015      335.624        6.381      864.431
10/21/2013  03:42:00     -119.969      -38.246        0.191       40.189       21.737       19.390     1615.190      472.513      375.983        0.916        0.123      125.917       20.944        0.028      335.482        6.144      864.427
10/21/2013  03:43:00     -128.660      -46.635       -3.175       23.949       22.958       17.992      573.573      527.070      323.722        1.008        0.071      136.851       15.360        0.013      335.436        6.068      864.429
10/21/2013  03:44:00     -131.415      -48.928       -9.547       23.593       25.455       15.929      556.649      647.971      253.733        1.061        0.073      140.228       11.659        0.007      335.384        5.981      864.424
10/21/2013  03:45:00     -155.759      -36.713      -15.810       30.770       22.204       18.527      946.812      493.034      343.267        1.382        0.089      160.027       12.559        0.006      335.278        5.805      864.434
10/21/2013  03:46:00     -117.670      -38.820       -6.309       35.344       28.919       18.167     1249.184      836.281      330.022        0.890        0.121      123.908       11.972        0.009      335.328        5.887      864.429
10/21/2013  03:47:00      -89.391      -36.809       -0.659       30.447       28.949       19.702      927.012      838.068      388.168        0.575        0.108       96.673       17.040        0.031      335.386        5.986      864.427
10/21/2013  03:48:00      -56.163      -18.431        0.755       36.211       28.881       17.659     1311.226      834.118      311.842        0.298        0.123       59.110       15.526        0.069      335.395        6.000      864.428
10/21/2013  03:49:00      -66.187      -13.018       -1.940       34.367       25.560       18.328     1181.096      653.320      335.925        0.336        0.109       67.455       14.877        0.049      335.605        6.351      864.437
10/21/2013  03:50:00      -56.541      -19.398        4.242       27.378       19.272       16.121      749.539      371.402      259.893        0.249        0.069       59.776       16.157        0.073      335.595        6.334      864.431
10/21/2013  03:51:00      -63.854      -12.889       -2.656       23.561       23.451       15.565      555.113      549.951      242.261        0.280        0.067       65.142       14.446        0.049      335.576        6.302      864.420
10/21/2013  03:52:00      -33.452      -27.149        1.709       22.783       19.397       16.114      519.043      376.242      259.666        0.151        0.058       43.083       11.450        0.071      335.469        6.123      864.422
10/21/2013  03:53:00      -19.560      -16.929        3.626       20.606       15.342       13.165      424.604      235.372      173.325        0.076        0.042       25.869       13.288        0.264      335.454        6.098      864.419
10/21/2013  03:54:00       -4.878      -31.006        0.606       13.999       14.744       11.107      195.977      217.382      123.368        0.076        0.027       31.388        4.356        0.019      335.552        6.261      864.411
10/21/2013  03:55:00       -4.011       -2.865       -5.774        9.280        8.740        4.941       86.125       76.381       24.409        0.012        0.009        4.930        3.620        0.539      335.650        6.427      864.412
10/21/2013  03:56:00      -19.709       -4.168      -12.210       11.576       15.469        7.671      134.015      239.275       58.845        0.049        0.022       20.145        5.291        0.069      336.102        7.179      864.412
10/21/2013  03:57:00      -24.787      -24.186       -7.482       13.036       15.554       17.341      169.943      241.923      300.706        0.098        0.036       34.632       10.032        0.084      335.957        6.937      864.409
10/21/2013  03:58:00      -41.831      -26.842        0.264       16.790       15.385        8.967      281.889      236.687       80.413        0.153        0.030       49.702        7.550        0.023      335.522        6.212      864.400
10/21/2013  03:59:00      -66.557      -21.852       -8.171       15.577        9.653       12.090      242.658       93.185      146.162        0.273        0.024       70.052        9.911        0.020      335.429        6.056      864.402
10/21/2013  04:00:00      -77.686      -39.707      -13.640       13.214        9.820        8.213      174.615       96.426       67.456        0.407        0.017       87.246        4.272        0.002      335.391        5.993      864.403
10/21/2013  04:01:00     -107.284      -39.445      -11.853        7.770       10.957        5.282       60.367      120.054       27.895        0.671        0.010      114.306        2.158        0.000      335.376        5.967      864.396
10/21/2013  04:02:00     -114.575      -53.000      -11.374        8.623       10.947        8.481       74.364      119.836       71.931        0.817        0.013      126.240        2.129        0.000      335.457        6.102      864.386
10/21/2013  04:03:00      -86.471      -42.574        4.582       34.652       22.677       16.912     1200.727      514.259      286.006        0.566        0.100       96.384       18.310        0.036      335.348        5.921      864.386
10/21/2013  04:04:00      -63.555      -42.558        8.299       44.181       27.148       21.946     1951.952      736.988      481.628        0.454        0.159       76.488       23.432        0.094      335.422        6.045      864.390
10/21/2013  04:05:00      -79.385      -50.191        1.785       38.752       23.935       19.629     1501.749      572.900      385.305        0.564        0.123       93.921       19.822        0.045      335.406        6.017      864.395
10/21/2013  04:06:00      -83.403      -54.329       -1.303       27.009       21.978       15.274      729.484      483.036      233.285        0.568        0.072       99.538        7.936        0.006      335.388        5.988      864.389
10/21/2013  04:07:00      -66.461      -53.602       -1.922       41.582       32.520       20.240     1729.025     1057.579      409.647        0.524        0.160       85.383       18.835        0.049      335.355        5.932      864.389
10/21/2013  04:08:00      -87.471      -59.014        6.832       53.907       35.876       26.453     2905.993     1287.071      699.764        0.804        0.245      105.517       24.235        0.053      335.444        6.081      864.385
10/21/2013  04:09:00      -74.383      -70.364        5.610       41.992       38.891       23.274     1763.362     1512.549      541.702        0.717        0.191      102.391       14.637        0.020      335.520        6.210      864.397
10/21/2013  04:10:00     -111.836      -83.398       -6.001       50.049       47.598       24.680     2504.931     2265.570      609.085        1.244        0.269      139.508       21.681        0.024      335.523        6.214      864.399
10/21/2013  04:11:00     -123.187      -76.860       -1.332       54.249       37.077       23.525     2943.002     1374.689      553.403        1.298        0.244      145.199       23.814        0.027      335.518        6.206      864.399
10/21/2013  04:12:00     -130.615      -85.173       -2.919       44.452       32.885       24.014     1975.991     1081.408      576.670        1.398        0.182      155.931       20.852        0.018      335.479        6.139      864.399
10/21/2013  04:13:00     -107.958      -74.679       -2.398       54.899       34.804       25.252     3013.862     1211.295      637.684        1.105        0.243      131.270       19.398        0.022      335.416        6.033      864.398
10/21/2013  04:14:00     -113.492      -56.676      -11.403       41.917       20.658       17.085     1757.025      426.734      291.908        0.935        0.124      126.857       19.282        0.023      335.330        5.891      864.409
10/21/2013  04:15:00     -126.601      -56.123       -3.384       31.538       21.888       20.048      994.654      479.084      401.938        1.053        0.094      138.484       15.735        0.013      335.338        5.903      864.410
10/21/2013  04:16:00      -96.975      -53.288        4.362       46.857       30.490       21.901     2195.557      929.610      479.663        0.793        0.180      110.652       20.726        0.035      335.268        5.787      864.410
10/21/2013  04:17:00     -108.249      -57.027        1.289       37.601       22.612       19.028     1413.819      511.319      362.075        0.863        0.114      122.352       17.778        0.021      335.260        5.774      864.409
10/21/2013  04:18:00      -98.620      -63.688       -2.989       36.565       30.247       22.031     1337.027      914.864      485.369        0.826        0.137      117.397       14.706        0.016      335.334        5.897      864.408
10/21/2013  04:19:00     -101.105      -47.897        4.712       43.033       26.758       26.714     1851.818      716.016      713.627        0.791        0.164      111.876       26.184        0.055      335.274        5.797      864.410
10/21/2013  04:20:00      -82.883      -57.455        4.095       43.222       22.038       17.452     1868.184      485.675      304.570        0.642        0.133      100.850       21.219        0.044      335.272        5.795      864.402
10/21/2013  04:21:00      -58.572      -48.380        7.660       36.843       25.826       21.098     1357.437      666.958      445.138        0.415        0.123       75.969       17.940        0.056      335.277        5.804      864.394
10/21/2013  04:22:00      -46.020      -49.115        6.928       49.312       35.126       22.365     2431.643     1233.858      500.182        0.437        0.208       67.306       24.012        0.127      335.323        5.879      864.403
10/21/2013  04:23:00      -54.731      -32.732        8.925       44.716       29.096       26.123     1999.549      846.563      682.409        0.384        0.176       63.772       25.745        0.163      335.255        5.767      864.404
10/21/2013  04:24:00      -59.855      -52.531        4.189       43.374       31.355       23.701     1881.304      983.158      561.739        0.489        0.171       79.637       24.422        0.094      335.348        5.920      864.403
10/21/2013  04:25:00      -63.934      -50.012       10.698       45.407       29.963       27.363     2061.827      897.783      748.708        0.521        0.185       81.171       27.114        0.112      335.301        5.842      864.410
10/21/2013  04:26:00      -36.340      -34.686        9.623       48.564       34.649       22.819     2358.502     1200.556      520.705        0.335        0.204       50.236       23.463        0.218      335.294        5.830      864.412
10/21/2013  04:27:00      -66.257      -39.231       -1.062       45.028       37.932       19.889     2027.522     1438.803      395.565        0.490        0.193       77.000       15.955        0.043      335.238        5.738      864.412
10/21/2013  04:28:00      -88.419      -45.691      -12.745       18.060       19.695       11.859      326.175      387.890      140.647        0.546        0.043       99.527        7.979        0.006      335.182        5.644      864.417
10/21/2013  04:29:00      -82.654      -41.016       -1.168       22.928       18.978       11.573      525.671      360.161      133.933        0.477        0.051       92.271       10.662        0.013      335.150        5.592      864.430
10/21/2013  04:30:00      -74.990      -26.901        2.268       27.484       21.951       17.240      755.391      481.830      297.226        0.394        0.077       79.669       14.649        0.034      335.096        5.503      864.450
10/21/2013  04:31:00      -76.743      -18.389       -1.928       25.700       17.178       13.655      660.483      295.098      186.451        0.369        0.057       78.915       14.085        0.032      335.056        5.437      864.457
10/21/2013  04:32:00      -64.235      -21.488       -1.817       14.305       17.458       11.550      204.644      304.773      133.409        0.262        0.032       67.734        6.960        0.011      335.190        5.658      864.468
10/21/2013  04:33:00      -54.419      -23.809        2.057       20.722       16.942       12.428      429.413      287.041      154.445        0.220        0.044       59.399       11.941        0.040      335.192        5.663      864.480
10/21/2013  04:34:00      -76.956       -9.935       -7.897       16.152       10.962       11.849      260.877      120.164      140.389        0.330        0.026       77.595       10.082        0.017      335.138        5.573      864.495
10/21/2013  04:35:00      -80.132      -12.405      -10.795       11.528       17.701        8.960      132.903      313.334       80.282        0.361        0.026       81.087        5.532        0.005      335.227        5.718      864.488
10/21/2013  04:36:00      -78.796      -12.187      -13.580        9.730       11.962        8.205       94.682      143.097       67.326        0.342        0.015       79.733        5.022        0.004      335.242        5.745      864.485
10/21/2013  04:37:00      -62.903      -24.413      -13.482        6.001        7.080        6.769       36.009       50.131       45.821        0.243        0.007       67.474        3.952        0.003      335.338        5.905      864.496
10/21/2013  04:38:00      -54.842      -16.720       -7.951        8.535        7.592        6.069       72.848       57.640       36.831        0.176        0.008       57.334        3.872        0.005      335.331        5.892      864.507
10/21/2013  04:39:00      -57.190      -18.078      -14.051       11.144        9.925        6.335      124.188       98.499       40.130        0.203        0.013       59.980        4.215        0.005      335.268        5.788      864.507
10/21/2013  04:40:00      -45.854      -27.127      -13.350       16.843       11.113       12.389      283.676      123.496      153.497        0.179        0.028       53.277        5.768        0.012      335.147        5.588      864.505
10/21/2013  04:41:00      -49.326      -31.408       -5.246       19.686       15.511       11.791      387.549      240.580      139.022        0.211        0.038       58.477        6.511        0.012      334.962        5.281      864.515
10/21/2013  04:42:00      -90.250      -48.692      -13.004       26.111       13.864        9.834      681.764      192.205       96.704        0.583        0.049      102.547        8.254        0.006      334.848        5.091      864.520
10/21/2013  04:43:00     -116.051      -64.784      -16.917       18.086       18.947       12.154      327.105      358.990      147.710        0.939        0.042      132.909        6.650        0.003      334.939        5.243      864.525
10/21/2013  04:44:00     -104.769      -55.480       -4.631       27.399       22.481       18.582      750.712      505.402      345.291        0.784        0.080      118.552       19.111        0.026      334.916        5.203      864.519
10/21/2013  04:45:00     -102.477      -66.657       -5.369       28.022       29.912       12.822      785.252      894.699      164.401        0.841        0.092      122.248        9.984        0.007      335.157        5.604      864.503
10/21/2013  04:46:00      -69.028      -39.221        2.882       30.901       21.439       19.983      954.880      459.614      399.327        0.406        0.091       79.393       19.661        0.061      335.052        5.432      864.493
10/21/2013  04:47:00      -45.553      -25.011        8.104       40.970       24.040       20.978     1678.547      577.910      440.071        0.273        0.135       51.967       23.485        0.204      335.051        5.429      864.497
10/21/2013  04:48:00      -46.713      -31.156        5.983       25.357       17.536       17.636      642.985      307.500      311.038        0.222        0.063       56.150       12.049        0.046      335.042        5.414      864.504
10/21/2013  04:49:00      -55.449      -31.046        4.661       35.815       20.151       16.074     1282.686      406.064      258.366        0.300        0.097       63.548       17.336        0.074      335.006        5.355      864.518
10/21/2013  04:50:00      -62.804      -36.883       -3.715       24.817       13.438       12.866      615.897      180.567      165.547        0.314        0.048       72.833       11.477        0.025      335.077        5.474      864.530
10/21/2013  04:51:00      -53.194      -37.216       -1.189       25.433       11.865       12.955      646.840      140.780      167.833        0.259        0.048       64.920       10.360        0.025      335.087        5.488      864.544
10/21/2013  04:52:00      -47.541      -44.685        8.524       26.511       20.764       19.868      702.833      431.129      394.727        0.293        0.076       65.244       21.015        0.104      335.104        5.516      864.549
10/21/2013  04:53:00      -62.127      -41.425       -4.097       21.120       23.861       13.886      446.059      569.348      192.834        0.340        0.060       74.672        8.086        0.012      335.131        5.561      864.565
10/21/2013  04:54:00      -92.626      -54.257      -10.723       17.412       21.132       13.688      303.180      446.549      187.374        0.629        0.047      107.347        7.184        0.004      335.158        5.606      864.573
10/21/2013  04:55:00      -87.192      -48.047       -0.449       31.202       20.763       16.042      973.586      431.084      257.331        0.579        0.083       99.554       16.394        0.027      335.127        5.555      864.575
10/21/2013  04:56:00      -90.646      -37.544        1.054       24.280       17.963       11.979      589.539      322.685      143.497        0.534        0.053       98.113        9.053        0.009      335.150        5.593      864.570
10/21/2013  04:57:00      -87.627      -25.601        2.572       19.658       17.065       12.253      386.438      291.221      150.131        0.458        0.041       91.290       11.710        0.016      335.137        5.571      864.568
10/21/2013  04:58:00      -96.987      -27.857       -8.579       12.712       13.348        7.070      161.605      178.168       49.988        0.532        0.019      100.908        3.298        0.001      335.129        5.557      864.571
10/21/2013  04:59:00      -79.677      -29.096       -3.884       12.290       11.414        7.496      151.048      130.284       56.198        0.377        0.017       84.823        6.093        0.005      335.130        5.561      864.583
10/21/2013  05:00:00      -81.075      -24.398       -6.898       11.165       11.443        8.165      124.661      130.948       66.674        0.377        0.016       84.666        3.892        0.002      335.158        5.606      864.584
10/21/2013  05:01:00      -63.981      -31.642       -9.165       11.283       11.846        8.714      127.297      140.324       75.926        0.276        0.017       71.377        4.823        0.005      335.113        5.531      864.590
10/21/2013  05:02:00      -31.595      -25.628       10.973       22.273       13.473       13.831      496.066      181.527      191.293        0.132        0.043       40.682        9.439        0.054      335.096        5.504      864.606
10/21/2013  05:03:00      -39.434      -30.542        8.474       47.624       24.474       18.413     2268.021      598.989      339.057        0.288        0.160       49.878       22.379        0.201      335.050        5.427      864.615
10/21/2013  05:04:00      -65.071      -41.480        8.028       45.951       31.788       22.444     2111.539     1010.507      503.713        0.482        0.181       77.168       16.542        0.046      335.029        5.393      864.620
10/21/2013  05:05:00       -4.214      -24.835        2.778       23.141       19.816       18.033      535.483      392.690      325.183        0.095        0.063       25.190       12.385        0.242      335.111        5.526      864.616
10/21/2013  05:06:00      -22.038      -25.437        5.148       36.320       30.381       18.050     1319.117      923.034      325.808        0.186        0.128       33.656       14.659        0.190      335.116        5.535      864.612
10/21/2013  05:07:00      -42.206      -38.421       13.965       43.218       37.983       24.145     1867.780     1442.700      582.975        0.367        0.195       57.075       21.322        0.140      335.152        5.595      864.622
10/21/2013  05:08:00      -12.310      -51.157        4.419       34.941       30.870       23.892     1220.907      952.946      570.824        0.277        0.137       52.617       17.510        0.111      335.223        5.712      864.627
10/21/2013  05:09:00      -53.607      -46.373        9.486       55.876       40.421       24.910     3122.133     1633.862      620.522        0.524        0.269       70.882       27.407        0.150      335.214        5.699      864.636
10/21/2013  05:10:00      -60.606      -35.936        6.357       54.629       35.754       24.048     2984.379     1278.381      578.283        0.492        0.242       70.459       18.394        0.068      335.106        5.521      864.639
10/21/2013  05:11:00      -90.924      -84.469       -1.789       47.934       39.322       26.482     2297.645     1546.258      701.318        0.997        0.227      124.105       17.888        0.021      335.137        5.571      864.640
10/21/2013  05:12:00      -79.181      -76.613        8.172       78.541       45.947       30.528     6168.660     2111.110      931.955        1.071        0.461      110.178       32.764        0.088      335.125        5.552      864.641
10/21/2013  05:13:00     -109.175      -92.786        1.493       48.294       35.272       30.312     2332.318     1244.137      918.805        1.251        0.225      143.278       24.641        0.030      335.084        5.484      864.639
10/21/2013  05:14:00     -108.565      -86.340        0.903       49.996       29.808       29.811     2499.577      888.533      888.705        1.176        0.214      138.712       25.731        0.034      335.078        5.475      864.633
10/21/2013  05:15:00      -87.470      -70.755       -1.269       37.902       32.426       23.836     1436.530     1051.433      568.163        0.786        0.153      112.504       12.834        0.013      335.094        5.500      864.623
10/21/2013  05:16:00      -66.093      -53.083        3.994       45.361       30.774       20.626     2057.576      947.024      425.433        0.532        0.172       84.771       22.431        0.070      335.105        5.518      864.605
10/21/2013  05:17:00     -112.064     -102.536       -2.616       38.398       37.176       24.833     1474.376     1382.037      616.674        1.328        0.174      151.895       23.694        0.024      335.106        5.521      864.601
10/21/2013  05:18:00      -90.739      -73.687        2.513       54.163       39.253       24.056     2933.593     1540.763      578.712        0.936        0.253      116.890       28.135        0.058      335.094        5.502      864.602
10/21/2013  05:19:00      -99.713      -42.378       -2.479       33.151       26.329       21.011     1098.987      693.238      441.475        0.699        0.112      108.345       21.062        0.038      335.078        5.475      864.604
10/21/2013  05:20:00     -102.405      -41.958        2.578       34.729       27.903       17.523     1206.136      778.587      307.064        0.727        0.115      110.667       16.816        0.023      334.944        5.251      864.604
10/21/2013  05:21:00     -119.651       -5.313       -3.279       34.898       27.603       20.587     1217.880      761.934      423.840        0.838        0.120      119.769       17.731        0.022      334.813        5.033      864.607
10/21/2013  05:22:00     -126.902       -4.645       -3.106       59.174       28.066       22.931     3501.572      787.722      525.831        1.047        0.241      126.987       29.519        0.054      334.678        4.808      864.604
10/21/2013  05:23:00     -130.763       -8.833       -2.746       52.863       28.579       26.071     2794.545      816.748      679.708        1.074        0.215      131.061       24.968        0.036      334.624        4.718      864.613
10/21/2013  05:24:00     -111.522       -9.720        0.616       55.713       38.322       27.056     3103.991     1468.541      732.011        0.892        0.265      111.944       30.513        0.074      334.536        4.573      864.618
10/21/2013  05:25:00     -141.565        2.250       -3.628       49.622       34.970       22.966     2462.303     1222.909      527.444        1.214        0.211      141.583       21.026        0.022      334.525        4.555      864.609
10/21/2013  05:26:00     -148.189      -31.834       -2.208       43.947       38.829       27.102     1931.303     1507.683      734.535        1.358        0.209      151.569       23.559        0.024      334.596        4.673      864.601
10/21/2013  05:27:00     -143.334      -45.921       -6.640       23.781       27.254       19.211      565.555      742.786      369.080        1.219        0.084      150.511       12.414        0.007      334.670        4.796      864.595
10/21/2013  05:28:00      -82.604      -36.770       -0.781       49.135       25.586       20.154     2414.259      654.642      406.180        0.582        0.174       90.418       22.988        0.065      334.714        4.869      864.595
10/21/2013  05:29:00      -82.713      -33.805       -2.615       25.414       21.688       14.587      645.855      470.350      212.784        0.466        0.066       89.355        9.479        0.011      334.855        5.102      864.595
10/21/2013  05:30:00     -114.614      -31.306       -6.958       23.198       37.787       19.086      538.156     1427.854      364.262        0.825        0.117      118.812       14.755        0.015      334.798        5.007      864.591
10/21/2013  05:31:00      -78.084      -29.856        5.161       40.130       34.956       25.018     1610.431     1221.946      625.882        0.524        0.173       83.597       25.498        0.093      334.780        4.979      864.586
10/21/2013  05:32:00      -72.426      -27.369       -4.362       53.978       32.340       20.260     2913.592     1045.850      410.456        0.519        0.218       77.425       11.408        0.022      334.798        5.007      864.578
10/21/2013  05:33:00      -52.636      -45.602        2.937       68.151       36.203       24.889     4644.616     1310.678      619.440        0.572        0.329       69.642       31.347        0.203      334.750        4.929      864.582
10/21/2013  05:34:00      -65.948      -29.637        2.355       60.306       25.955       19.537     3636.755      673.685      381.694        0.496        0.235       72.301       24.558        0.115      334.704        4.853      864.580
10/21/2013  05:35:00     -152.989      -40.509       -9.208       21.842       28.995       19.076      477.053      840.727      363.905        1.341        0.084      158.261       16.770        0.011      334.574        4.635      864.584
10/21/2013  05:36:00     -134.815      -34.360       -8.830       34.928       29.262       18.799     1219.933      856.267      353.415        1.093        0.121      139.125       17.463        0.016      334.587        4.656      864.585
10/21/2013  05:37:00      -90.402      -47.556        1.888       29.438       29.256       16.597      866.611      855.918      275.473        0.622        0.100      102.147       13.302        0.017      334.588        4.658      864.591
10/21/2013  05:38:00     -104.617      -22.930        1.129       44.656       33.434       22.774     1994.121     1117.865      518.651        0.755        0.182      107.100       23.492        0.048      334.590        4.661      864.602
10/21/2013  05:39:00     -110.968      -23.421       -2.640       37.602       32.019       19.465     1413.909     1025.245      378.874        0.784        0.141      113.412       18.184        0.026      334.521        4.549      864.600
10/21/2013  05:40:00     -108.849      -40.212       -0.831       37.978       29.127       19.975     1442.304      848.376      399.006        0.808        0.134      116.039       15.111        0.017      334.649        4.761      864.591
10/21/2013  05:41:00     -120.150      -37.166       -8.747       41.189       33.679       20.959     1696.562     1134.300      439.284        0.958        0.164      125.767       16.587        0.017      334.568        4.626      864.578
10/21/2013  05:42:00     -109.301      -42.671       -0.603       36.105       40.419       20.112     1303.604     1633.725      404.484        0.855        0.167      117.336       13.275        0.013      334.561        4.615      864.569
10/21/2013  05:43:00     -116.906      -43.892       -0.898       49.942       44.567       26.475     2494.155     1986.223      700.913        1.039        0.259      124.874       25.475        0.042      334.566        4.623      864.563
10/21/2013  05:44:00      -81.539      -31.011       -2.963       53.516       39.671       26.379     2863.968     1573.817      695.849        0.638        0.257       87.237       25.505        0.085      334.630        4.729      864.568
10/21/2013  05:45:00      -56.539      -19.898        0.621       51.620       34.222       25.290     2664.668     1171.176      639.587        0.403        0.224       59.938       24.415        0.166      334.729        4.893      864.565
10/21/2013  05:46:00      -93.966      -38.810       -6.851       33.467       33.649       18.659     1120.026     1132.235      348.144        0.649        0.130      101.666        9.041        0.008      334.884        5.151      864.563
10/21/2013  05:47:00      -41.436      -39.310       -0.874       40.086       28.888       22.206     1606.927      834.517      493.108        0.310        0.147       57.116       15.589        0.074      334.823        5.049      864.560
10/21/2013  05:48:00      -36.858      -25.012      -10.157       36.995       18.853       15.657     1368.664      355.444      245.152        0.203        0.098       44.543        9.563        0.046      334.819        5.044      864.559
10/21/2013  05:49:00      -42.706      -34.945       -4.221       43.622       22.358       17.757     1902.914      499.873      315.299        0.289        0.136       55.181       17.548        0.101      334.701        4.848      864.564
10/21/2013  05:50:00      -40.217      -37.923        0.939       37.647       20.155       18.269     1417.327      406.237      333.770        0.261        0.108       55.277       19.298        0.122      334.668        4.792      864.573
10/21/2013  05:51:00      -50.661      -53.610        2.281       34.091       20.985       19.454     1162.177      440.385      378.465        0.371        0.099       73.760       20.132        0.074      334.723        4.883      864.586
10/21/2013  05:52:00      -41.216      -23.066        4.559       23.946       17.699       16.247      573.411      313.254      263.958        0.170        0.058       47.231        6.862        0.021      334.795        5.004      864.602
10/21/2013  05:53:00      -50.923      -45.672        6.089       30.714       22.495       22.357      943.360      506.017      499.815        0.333        0.097       68.404       12.779        0.035      334.860        5.110      864.616
10/21/2013  05:54:00      -73.850      -65.064       -4.096       36.597       32.470       15.980     1339.321     1054.280      255.367        0.618        0.132       98.423       11.873        0.015      334.796        5.005      864.630
10/21/2013  05:55:00      -94.008      -57.593        4.874       42.838       33.717       25.572     1835.091     1136.828      653.933        0.790        0.181      110.247       21.464        0.038      334.878        5.141      864.641
10/21/2013  05:56:00     -100.970      -66.889       -9.077       38.133       50.795       29.686     1454.094     2580.161      881.260        0.983        0.246      121.116       21.124        0.030      334.896        5.170      864.653
10/21/2013  05:57:00     -102.498      -45.392        5.369       46.692       35.965       25.362     2180.179     1293.450      643.233        0.836        0.206      112.100       28.188        0.063      334.838        5.075      864.656
10/21/2013  05:58:00     -124.044     -116.510      -14.297       30.359       49.295       19.896      921.651     2429.952      395.834        1.646        0.187      170.180       11.087        0.004      334.845        5.087      864.659
10/21/2013  05:59:00     -121.365      -85.701       -7.697       51.205       46.979       27.140     2622.000     2207.056      736.558        1.385        0.278      148.573       30.037        0.041      334.822        5.047      864.657
10/21/2013  06:00:00     -145.481     -100.808        1.069       60.785       54.240       30.289     3694.874     2941.982      917.446        1.944        0.378      176.995       28.270        0.026      334.812        5.029      864.645
10/21/2013  06:01:00     -118.257      -75.052       11.413       74.779       39.233       37.651     5591.921     1539.218     1417.586        1.415        0.427      140.062       35.119        0.063      334.782        4.982      864.637
10/21/2013  06:02:00     -131.918      -95.144        4.531       49.597       35.243       29.454     2459.889     1242.040      867.532        1.552        0.228      162.650       23.549        0.021      334.784        4.983      864.632
10/21/2013  06:03:00     -102.156      -83.205        0.459       51.627       35.504       22.802     2665.373     1260.527      519.916        1.090        0.222      131.753       25.782        0.038      334.741        4.913      864.635
10/21/2013  06:04:00      -91.527      -65.700       -1.473       53.646       41.922       30.259     2877.906     1757.434      915.579        0.912        0.278      112.667       29.256        0.067      334.756        4.937      864.643
10/21/2013  06:05:00      -95.221      -47.543        1.905       38.122       25.315       22.270     1453.282      640.869      495.942        0.696        0.130      106.430       13.951        0.017      334.727        4.890      864.658
10/21/2013  06:06:00      -75.779      -42.832        7.247       47.240       38.181       25.752     2231.639     1457.794      663.173        0.599        0.218       87.046       27.834        0.102      334.773        4.966      864.671
10/21/2013  06:07:00     -115.564      -42.769        1.143       54.012       33.755       24.216     2917.253     1139.427      586.437        0.991        0.232      123.225       24.369        0.039      334.796        5.004      864.685
10/21/2013  06:08:00     -100.339      -56.153        1.126       37.746       39.839       24.199     1424.769     1587.158      585.587        0.841        0.180      114.983       21.160        0.034      334.796        5.005      864.701
10/21/2013  06:09:00     -102.684      -39.418        0.782       41.956       37.652       18.400     1760.264     1417.655      338.549        0.781        0.176      109.990       16.425        0.022      334.783        4.983      864.715
10/21/2013  06:10:00      -96.404      -83.024       -2.998       36.571       28.913       22.584     1337.419      835.935      510.048        0.944        0.134      127.228       18.338        0.021      334.823        5.050      864.735
10/21/2013  06:11:00      -38.564      -52.261        4.403       37.834       27.909       15.550     1431.449      778.892      241.805        0.334        0.123       64.949        8.259        0.016      334.926        5.222      864.763
10/21/2013  06:12:00      -40.184      -26.438        1.582       25.901       17.828       15.762      670.842      317.841      248.432        0.178        0.062       48.101       16.169        0.113      334.846        5.089      864.790
10/21/2013  06:13:00       -6.182       -8.776        9.800       17.391       12.418        9.788      302.438      154.195       95.811        0.038        0.028       10.735       11.771        1.202      334.844        5.085      864.813
10/21/2013  06:14:00      -14.056       -2.336       -0.761        8.255        9.362        4.213       68.138       87.654       17.752        0.019        0.009       14.249        4.009        0.079      334.876        5.138      864.831
10/21/2013  06:15:00      -25.718        2.912       -0.157        9.052        6.856        7.267       81.946       47.006       52.816        0.043        0.009       25.883        4.425        0.029      334.959        5.275      864.844
10/21/2013  06:16:00      -22.472       -7.432        1.918       10.820        7.924        5.455      117.064       62.788       29.760        0.039        0.010       23.669        3.776        0.025      335.029        5.390      864.856
10/21/2013  06:17:00      -39.772       -5.587       -5.455        7.104        9.574        6.633       50.464       91.660       44.001        0.091        0.009       40.162        4.299        0.011      334.933        5.233      864.862
10/21/2013  06:18:00      -44.453      -19.825       -7.173       14.782       10.036        7.649      218.513      100.726       58.500        0.140        0.019       48.673        3.402        0.005      334.861        5.113      864.868
10/21/2013  06:19:00      -55.676      -15.469       -9.512       20.183        9.483        9.555      407.351       89.932       91.300        0.201        0.029       57.785        9.362        0.026      334.846        5.088      864.858
10/21/2013  06:20:00      -77.575      -28.668      -12.447        9.557       10.549        7.547       91.336      111.277       56.965        0.363        0.013       82.703        3.041        0.001      334.800        5.013      864.858
10/21/2013  06:21:00      -70.612      -21.252       -4.869       18.878       17.004       11.222      356.365      289.129      125.933        0.312        0.039       73.741        9.272        0.016      334.834        5.068      864.857
10/21/2013  06:22:00      -76.608       -7.570       -9.255       30.022       16.210       11.896      901.312      262.758      141.514        0.366        0.065       76.981       13.720        0.032      334.703        4.851      864.867
10/21/2013  06:23:00      -73.159       -4.786       -6.161       24.203       17.680       12.669      585.762      312.579      160.498        0.324        0.053       73.316       12.293        0.028      334.732        4.899      864.870
10/21/2013  06:24:00      -60.676       -5.429       -5.171       15.215       15.283       12.474      231.490      233.560      155.612        0.218        0.031       60.919        7.879        0.017      334.746        4.922      864.876
10/21/2013  06:25:00      -55.798      -12.797       -4.503       16.674       14.758       10.896      278.030      217.802      118.720        0.196        0.031       57.247        9.361        0.027      334.712        4.866      864.881
10/21/2013  06:26:00      -38.814      -26.594       -4.268       25.164       10.596       15.511      633.243      112.268      240.597        0.161        0.049       47.050       16.598        0.124      334.717        4.873      864.877
10/21/2013  06:27:00      -18.836       -9.887        7.528       27.285       14.574       14.850      744.484      212.393      220.522        0.084        0.059       21.274       12.237        0.331      334.675        4.804      864.871
10/21/2013  06:28:00      -70.693      -27.009       -4.533       20.423       17.510       16.027      417.080      306.590      256.871        0.336        0.049       75.677       11.735        0.024      334.623        4.718      864.857
10/21/2013  06:29:00      -78.955      -27.525       -7.167       13.986       18.198       14.763      195.601      331.172      217.957        0.389        0.037       83.616       11.379        0.019      334.506        4.524      864.849
10/21/2013  06:30:00      -40.243      -25.757       -9.771       12.841        8.716       10.554      164.886       75.961      111.389        0.137        0.018       47.780        5.146        0.012      334.525        4.556      864.856
10/21/2013  06:31:00      -28.662       -6.244       -6.135       17.921        8.192        9.361      321.178       67.110       87.628        0.069        0.024       29.334        5.697        0.038      334.555        4.603      864.858
10/21/2013  06:32:00      -54.951       -2.685      -12.748        7.766        8.065        6.525       60.311       65.038       42.577        0.168        0.008       55.017        5.177        0.009      334.558        4.609      864.857
10/21/2013  06:33:00      -60.412       -8.521       -8.521       12.840       10.669        8.016      164.857      113.824       64.263        0.207        0.017       61.010        4.568        0.006      334.582        4.649      864.854
10/21/2013  06:34:00      -77.308       -0.777      -12.269        7.379        6.628        6.459       54.446       43.931       41.719        0.313        0.007       77.312        3.085        0.002      334.540        4.580      864.846
10/21/2013  06:35:00      -79.257      -11.648      -14.539        9.170        7.107        6.249       84.084       50.511       39.055        0.340        0.009       80.108        3.128        0.002      334.505        4.522      864.841
10/21/2013  06:36:00      -51.763      -18.015       -7.989        8.774        7.674        8.394       76.989       58.898       70.458        0.164        0.010       54.808        3.801        0.005      334.530        4.562      864.850
10/21/2013  06:37:00      -44.233       -9.090       -8.124        7.553        5.790        8.172       57.046       33.522       66.789        0.113        0.008       45.157        3.055        0.005      334.577        4.642      864.862
10/21/2013  06:38:00      -39.222       -6.958       -9.140       11.163        9.577        5.519      124.613       91.714       30.455        0.096        0.012       39.835        3.313        0.007      334.679        4.810      864.878
10/21/2013  06:39:00      -34.856      -12.136       -6.997       12.656        9.002        6.496      160.168       81.029       42.199        0.085        0.014       36.908        4.867        0.017      334.681        4.815      864.888
10/21/2013  06:40:00      -56.506      -17.008       -7.456       10.302        9.302        6.326      106.136       86.527       40.014        0.189        0.012       59.010        3.887        0.004      334.547        4.592      864.894
10/21/2013  06:41:00      -70.225      -34.101      -11.042        8.236        6.925        7.660       67.834       47.959       58.674        0.320        0.009       78.067        3.563        0.002      334.493        4.501      864.897
10/21/2013  06:42:00      -70.470      -49.512       -8.030       14.969       12.713        9.502      224.077      161.629       90.296        0.398        0.024       86.124        6.479        0.006      334.479        4.479      864.901
10/21/2013  06:43:00      -81.678      -39.136       -7.507       10.198        8.074        7.617      104.004       65.192       58.019        0.424        0.011       90.570        4.058        0.002      334.452        4.435      864.908
10/21/2013  06:44:00      -71.838      -21.898       -2.326       17.342       12.489        6.944      300.762      155.970       48.214        0.308        0.025       75.101        2.382        0.001      334.420        4.383      864.907
10/21/2013  06:45:00      -58.632      -17.603        0.255       13.087       13.273       10.485      171.277      176.173      109.927        0.210        0.023       61.217        9.246        0.023      334.457        4.442      864.913
10/21/2013  06:46:00      -77.733      -26.289       -7.038       13.309       19.487        8.232      177.119      379.762       67.758        0.370        0.031       82.058        5.431        0.004      334.511        4.532      864.913
10/21/2013  06:47:00      -76.958      -52.739        4.774       30.289       17.030       20.495      917.443      290.017      420.034        0.518        0.081       93.294       19.287        0.043      334.479        4.480      864.916
10/21/2013  06:48:00      -73.351      -48.015        2.017       37.066       27.349       16.017     1373.853      747.995      256.532        0.503        0.119       87.669       15.431        0.031      334.482        4.483      864.917
10/21/2013  06:49:00     -101.469      -58.339        3.771       50.072       30.454       27.933     2507.241      927.448      780.237        0.896        0.211      117.044       25.431        0.047      334.529        4.561      864.909
10/21/2013  06:50:00      -58.084      -53.027        9.876       68.506       36.187       28.455     4693.127     1309.468      809.671        0.655        0.341       78.648       29.913        0.145      334.513        4.535      864.909
10/21/2013  06:51:00     -142.842     -108.491       -6.277       43.086       37.848       28.027     1856.373     1432.498      785.495        1.814        0.204      179.372       17.017        0.009      334.533        4.568      864.906
10/21/2013  06:52:00     -123.907     -101.052       -2.927       39.021       41.111       26.148     1522.658     1690.115      683.737        1.473        0.195      159.889       21.534        0.018      334.497        4.508      864.911
10/21/2013  06:53:00      -89.038      -55.994        1.866       46.886       48.304       29.891     2198.314     2333.312      893.496        0.824        0.271      105.181       28.015        0.071      334.512        4.532      864.916
10/21/2013  06:54:00      -84.091      -69.782       -5.753       25.466       38.003       21.492      648.498     1444.259      461.917        0.726        0.128      109.274       14.387        0.017      334.523        4.552      864.926
10/21/2013  06:55:00      -67.683      -46.580       -2.087       27.463       17.705       15.887      754.199      313.460      252.411        0.404        0.066       82.163       14.943        0.033      334.522        4.550      864.932
10/21/2013  06:56:00      -53.174      -17.035       -5.209       16.371       11.727        9.361      268.015      137.530       87.630        0.182        0.025       55.836        9.140        0.027      334.515        4.537      864.939
10/21/2013  06:57:00      -80.080        2.432       -7.086       19.689       12.341       13.957      387.640      152.295      194.798        0.360        0.037       80.117       13.154        0.027      334.391        4.333      864.951
10/21/2013  06:58:00      -95.446       -4.856       -9.516       18.384       12.571        9.351      337.983      158.031       87.447        0.490        0.029       95.569        8.879        0.009      334.393        4.337      864.956
10/21/2013  06:59:00      -76.083       -6.117        2.655       25.106       20.298       17.520      630.330      411.993      306.967        0.359        0.067       76.328       14.863        0.038      334.310        4.199      864.962
10/21/2013  07:00:00      -91.391      -14.892        1.744       18.122       19.207       14.930      328.420      368.916      222.890        0.475        0.046       92.596       10.247        0.012      334.326        4.225      864.957
10/21/2013  07:01:00      -98.154      -24.838        2.205       28.293       24.859       18.154      800.487      617.974      329.575        0.600        0.087      101.248       17.152        0.029      334.340        4.249      864.946
10/21/2013  07:02:00     -135.234      -14.912       -6.317       28.345       29.903       21.727      803.443      894.185      472.082        1.036        0.108      136.054       17.478        0.017      334.278        4.146      864.933
10/21/2013  07:03:00     -130.362      -51.190       -5.800       30.805       26.696       16.872      948.970      712.666      284.652        1.080        0.097      140.052       13.604        0.009      334.302        4.185      864.928
10/21/2013  07:04:00      -90.874      -30.122       -4.922       39.007       29.151       19.679     1521.515      849.805      387.248        0.597        0.138       95.736       16.645        0.030      334.366        4.291      864.930
10/21/2013  07:05:00     -121.397      -17.140      -14.688       35.862       20.409       18.410     1286.094      416.509      338.922        0.864        0.102      122.601       20.858        0.029      334.258        4.111      864.935
10/21/2013  07:06:00     -129.852      -23.548       -9.324       25.022       21.929       17.786      626.086      480.899      316.331        0.946        0.071      131.970       13.661        0.011      334.310        4.198      864.940
10/21/2013  07:07:00      -96.909      -34.091       -8.147       25.782       20.145       16.114      664.720      405.821      259.670        0.597        0.067      102.730       14.571        0.020      334.342        4.252      864.934
10/21/2013  07:08:00      -84.966      -37.702       -5.307       26.844       14.993       14.334      720.592      224.793      205.456        0.491        0.058       92.955       14.413        0.024      334.443        4.419      864.930
10/21/2013  07:09:00      -63.381      -24.563       -7.446       20.849       14.465       10.029      434.692      209.223      100.587        0.271        0.037       67.974        9.666        0.020      334.392        4.336      864.921
10/21/2013  07:10:00      -67.327      -25.514      -11.502       14.077       15.084        9.012      198.158      227.531       81.219        0.291        0.025       71.999        3.858        0.003      334.398        4.346      864.910
10/21/2013  07:11:00      -72.776      -41.308       -8.299       24.664       25.321       14.556      608.291      641.171      211.877        0.427        0.073       83.682       12.072        0.021      334.405        4.357      864.892
10/21/2013  07:12:00      -60.788      -36.858       -1.736       30.553       19.274       16.396      933.477      371.473      268.832        0.331        0.079       71.089       16.656        0.055      334.380        4.316      864.873
10/21/2013  07:13:00      -97.742      -44.328       -3.966       40.720       26.363       21.893     1658.120      695.001      479.299        0.718        0.142      107.324       21.069        0.039      334.287        4.161      864.862
10/21/2013  07:14:00      -50.359      -19.040       -0.407       40.210       29.994       20.414     1616.860      899.626      416.727        0.292        0.147       53.838       19.749        0.135      334.299        4.181      864.865
10/21/2013  07:15:00      -25.990      -48.360        7.115       50.854       31.789       32.006     2586.143     1010.527     1024.400        0.384        0.231       54.901       33.654        0.376      334.273        4.138      864.881
10/21/2013  07:16:00     -138.946      -48.922       -7.489       43.617       27.540       20.813     1902.433      758.429      433.178        1.242        0.155      147.307       20.461        0.019      334.246        4.093      864.916
10/21/2013  07:17:00     -124.914      -64.102       -3.914       28.533       23.080       19.520      814.154      532.669      381.028        1.073        0.086      140.402       10.947        0.006      334.290        4.166      864.940
10/21/2013  07:18:00     -113.766      -53.289       -8.116       37.238       21.289       17.770     1386.641      453.214      315.789        0.900        0.108      125.628       15.073        0.014      334.379        4.314      864.956
10/21/2013  07:19:00     -104.038      -63.465       -4.213       24.430       20.716       19.703      596.813      429.141      388.222        0.814        0.071      121.868       12.538        0.011      334.393        4.337      864.973
10/21/2013  07:20:00      -62.451      -33.863        2.667       40.260       26.797       21.707     1620.901      718.090      471.173        0.393        0.141       71.041       22.607        0.101      334.335        4.241      864.977
10/21/2013  07:21:00      -84.603      -58.037       -5.196       24.885       17.948       16.392      619.285      322.140      268.700        0.588        0.061      102.596        7.499        0.005      334.345        4.258      864.978
10/21/2013  07:22:00      -50.236      -22.665        0.814       38.202       20.253       14.779     1459.383      410.169      218.421        0.256        0.104       55.113       16.314        0.088      334.350        4.265      864.969
10/21/2013  07:23:00      -33.117      -34.197        5.493       28.804       26.604       19.100      829.649      707.795      364.826        0.210        0.095       47.605       17.757        0.139      334.352        4.268      864.968
10/21/2013  07:24:00      -24.278      -25.289        9.759       28.509       28.185       16.091      812.736      794.416      258.906        0.159        0.093       35.056       18.775        0.287      334.357        4.277      864.977
10/21/2013  07:25:00      -36.712      -41.533       12.020       42.880       29.620       22.439     1838.659      877.353      503.496        0.322        0.161       55.433       20.006        0.130      334.464        4.454      864.992
10/21/2013  07:26:00      -43.904      -40.223        3.959       38.711       20.577       18.720     1498.524      423.404      350.425        0.292        0.114       59.544       20.535        0.119      334.532        4.567      865.003
10/21/2013  07:27:00      -64.759      -65.850       -2.092       15.260       24.239       13.759      232.874      587.530      189.305        0.477        0.050       92.358        8.827        0.009      334.698        4.842      865.008
10/21/2013  07:28:00      -76.991      -36.374       -0.286       18.625       19.377       13.305      346.878      375.452      177.025        0.407        0.045       85.151        9.286        0.012      334.604        4.686      865.016
10/21/2013  07:29:00      -91.372      -60.574       -2.741       21.376       34.495       13.081      456.946     1189.884      171.112        0.692        0.091      109.627       10.148        0.009      334.639        4.744      865.027
10/21/2013  07:30:00      -90.232      -91.340       -2.698       33.913       30.901       20.458     1150.089      954.870      418.543        0.951        0.126      128.394       19.364        0.023      334.582        4.650      865.028
10/21/2013  07:31:00      -95.956      -91.683        8.131       57.133       49.157       29.406     3264.128     2416.400      864.702        1.211        0.327      132.715       32.501        0.060      334.538        4.575      865.043
10/21/2013  07:32:00     -111.794      -93.191        4.580       76.229       75.021       40.000     5810.790     5628.179     1599.964        1.712        0.652      145.542       44.799        0.095      334.590        4.660      865.058
10/21/2013  07:33:00     -144.456      -88.338       -4.857       44.905       49.617       31.362     2016.446     2461.816      983.548        1.708        0.273      169.326       27.161        0.026      334.528        4.558      865.072
10/21/2013  07:34:00     -117.942     -114.585        4.696       47.759       39.995       26.619     2280.941     1599.608      708.596        1.582        0.229      164.438       23.726        0.021      334.536        4.573      865.090
10/21/2013  07:35:00      -73.177      -64.371        9.567       47.613       44.138       25.780     2266.995     1948.132      664.632        0.723        0.244       97.460       18.331        0.035      334.577        4.641      865.099
10/21/2013  07:36:00     -127.277      -87.027       -3.337       29.367       45.964       23.779      862.405     2112.690      565.423        1.366        0.177      154.185       18.206        0.014      334.584        4.652      865.102
10/21/2013  07:37:00     -126.700      -92.059       -5.145       31.790       37.147       22.207     1010.617     1379.886      493.154        1.372        0.144      156.613       19.340        0.015      334.622        4.715      865.103
10/21/2013  07:38:00     -115.273      -65.068       -2.548       25.361       30.025       20.634      643.158      901.482      425.775        0.975        0.099      132.370       14.690        0.012      334.630        4.728      865.111
10/21/2013  07:39:00      -54.120      -43.790       -0.747       43.438       20.750       17.301     1886.848      430.576      299.334        0.373        0.131       69.617       16.649        0.057      334.720        4.878      865.128
10/21/2013  07:40:00      -34.953       -9.494        9.580       24.620       17.376       13.006      606.164      301.922      169.155        0.124        0.054       36.219       10.120        0.078      334.741        4.913      865.148
10/21/2013  07:41:00      -44.621      -18.903       -2.901       11.745       13.356        8.738      137.938      178.391       76.350        0.137        0.020       48.460        6.184        0.016      334.725        4.888      865.166
10/21/2013  07:42:00      -52.995      -52.893       -5.963       25.058       24.051       13.322      627.885      578.438      177.477        0.351        0.069       74.874        9.794        0.017      334.815        5.037      865.190
10/21/2013  07:43:00      -40.281      -57.115        3.018       42.955       35.955       27.654     1845.099     1292.726      764.719        0.440        0.195       69.891       19.860        0.081      334.870        5.129      865.212
10/21/2013  07:44:00     -103.442      -77.338       -6.780       35.684       33.006       25.463     1273.317     1089.399      648.388        0.987        0.151      129.156       18.365        0.020      334.720        4.880      865.208
10/21/2013  07:45:00     -114.263      -83.721        0.673       31.269       24.815       20.857      977.723      615.793      435.000        1.105        0.101      141.652       16.025        0.013      334.605        4.688      865.200
10/21/2013  07:46:00     -126.534      -98.595       -4.547       34.444       26.500       19.803     1186.414      702.261      392.151        1.402        0.114      160.412       13.391        0.007      334.585        4.654      865.210
10/21/2013  07:47:00     -123.937      -88.201        4.468       42.780       36.717       28.584     1830.086     1348.116      817.048        1.358        0.200      152.118       24.664        0.026      334.611        4.697      865.220
10/21/2013  07:48:00      -85.651      -94.936        2.082       54.526       44.341       24.296     2973.067     1966.111      590.275        1.094        0.276      127.863       21.484        0.028      334.631        4.729      865.224
10/21/2013  07:49:00      -78.000      -81.667       11.720       64.209       53.086       34.876     4122.817     2818.121     1216.343        1.052        0.408      112.931       38.930        0.119      334.672        4.798      865.248
10/21/2013  07:50:00     -105.098      -39.221        1.973       27.927       26.355       17.274      779.913      694.579      298.378        0.718        0.089      112.178       12.847        0.013      334.696        4.838      865.276
10/21/2013  07:51:00      -49.321      -15.031        0.931       28.942       29.994       15.991      837.666      899.660      255.705        0.233        0.100       51.560       11.483        0.050      334.724        4.885      865.313
10/21/2013  07:52:00      -46.893        1.921        0.540       25.151       22.463       15.768      632.554      504.582      248.643        0.179        0.069       46.932       15.031        0.103      334.749        4.927      865.334
10/21/2013  07:53:00      -29.947      -13.219        7.244       29.230       19.015       15.233      854.398      361.578      232.050        0.129        0.072       32.735       18.640        0.324      334.870        5.128      865.358
10/21/2013  07:54:00      -75.186        1.070       -8.383       30.331       20.918       14.735      919.987      437.546      217.111        0.365        0.079       75.194       13.810        0.034      334.724        4.885      865.376
10/21/2013  07:55:00      -84.653      -10.352      -10.921       24.040       11.212       10.537      577.923      125.705      111.028        0.410        0.041       85.284       11.398        0.018      334.677        4.809      865.385
10/21/2013  07:56:00      -85.556        0.054      -10.847       14.570       12.275       12.181      212.273      150.679      148.383        0.397        0.026       85.556        8.881        0.011      334.717        4.874      865.386
10/21/2013  07:57:00      -74.920      -18.964       -4.930       17.180       14.492       11.531      295.162      210.008      132.969        0.332        0.032       77.283       10.099        0.017      334.778        4.975      865.396
10/21/2013  07:58:00      -73.905      -43.105       -1.934       22.897       20.035       10.899      524.276      401.402      118.785        0.418        0.052       85.557       11.545        0.018      334.845        5.085      865.402
10/21/2013  07:59:00      -58.452      -44.216       -3.286       25.910       18.375       14.617      671.327      337.653      213.656        0.330        0.061       73.292        4.475        0.004      334.874        5.134      865.416
10/21/2013  08:00:00      -74.405      -43.297       -1.489       25.747       20.659       12.385      662.900      426.775      153.386        0.433        0.062       86.085        7.939        0.009      334.902        5.181      865.428
10/21/2013  08:01:00      -93.796      -44.787       -5.461       24.322       20.183       15.253      591.557      407.351      232.646        0.603        0.062      103.940       13.208        0.016      334.917        5.206      865.428
10/21/2013  08:02:00      -74.070      -52.758       -7.493       29.934       22.069       15.321      896.019      487.038      234.721        0.497        0.081       90.938        7.312        0.006      334.953        5.266      865.436
10/21/2013  08:03:00      -84.761      -44.670       -5.985       16.383       16.604       11.594      268.403      275.680      134.428        0.495        0.034       95.812        9.414        0.010      334.939        5.243      865.435
10/21/2013  08:04:00      -29.296      -24.630        7.582       32.323       15.507       16.167     1044.796      240.482      261.357        0.153        0.077       38.274       13.749        0.129      335.138        5.572      865.450
10/21/2013  08:05:00      -20.828      -31.836        1.213       23.947       18.688       15.129      573.436      349.227      228.889        0.130        0.058       38.044       14.161        0.139      335.126        5.554      865.453
10/21/2013  08:06:00      -35.034      -26.555       -1.782       18.633       17.515       15.295      347.200      306.782      233.939        0.141        0.044       43.961       10.959        0.062      335.162        5.614      865.463
10/21/2013  08:07:00      -42.794      -24.693        3.355       32.885       15.978       14.992     1081.413      255.297      224.755        0.201        0.078       49.407       12.732        0.066      335.159        5.608      865.473
10/21/2013  08:08:00      -31.989      -19.879        7.246       28.476       18.898       13.935      810.897      357.145      194.173        0.142        0.068       37.663       14.480        0.148      335.180        5.644      865.475
10/21/2013  08:09:00      -57.658      -32.393        3.003       26.475       18.397       14.694      700.908      338.433      215.909        0.282        0.063       66.134       14.373        0.047      335.182        5.644      865.482
10/21/2013  08:10:00      -77.601      -38.038       -0.829       24.707       25.216       13.507      610.440      635.864      182.450        0.445        0.071       86.422       10.047        0.014      335.191        5.662      865.491
10/21/2013  08:11:00      -49.915      -28.690       -0.609       33.330       19.512       13.010     1110.904      380.700      169.258        0.249        0.083       57.573       15.901        0.076      335.152        5.596      865.504
10/21/2013  08:12:00      -24.439      -22.470        9.032       23.939       23.493       17.475      573.082      551.938      305.370        0.131        0.072       33.198       15.468        0.217      335.249        5.756      865.521
10/21/2013  08:13:00      -27.302      -24.431        0.494       26.634       20.658       15.543      709.379      426.765      241.574        0.136        0.069       36.637       11.252        0.094      335.232        5.727      865.542
10/21/2013  08:14:00      -25.870      -37.056        9.640       25.814       26.309       17.980      666.350      692.150      323.295        0.191        0.084       45.193       16.236        0.129      335.287        5.819      865.551
10/21/2013  08:15:00      -60.146      -35.145        3.905       33.972       17.453       18.117     1154.078      304.596      328.232        0.333        0.089       69.661       17.514        0.063      335.292        5.827      865.562
10/21/2013  08:16:00      -38.344      -53.658        5.438       29.762       23.802       14.275      885.792      566.531      203.787        0.302        0.083       65.950       17.438        0.070      335.341        5.910      865.568
10/21/2013  08:17:00      -57.076      -55.998       -6.358       16.572       15.241       11.265      274.636      232.285      126.904        0.353        0.032       79.959        5.438        0.005      335.371        5.959      865.576
10/21/2013  08:18:00      -53.471      -34.963       -1.576       22.264       21.050       15.854      495.680      443.096      251.340        0.264        0.060       63.887       13.563        0.045      335.374        5.963      865.581
10/21/2013  08:19:00      -28.232      -23.597        2.612       16.790       13.794       16.235      281.891      190.278      263.564        0.105        0.037       36.795        9.143        0.062      335.419        6.040      865.589
10/21/2013  08:20:00      -40.976       -2.157       12.116       14.221       10.031       10.708      202.225      100.621      114.656        0.112        0.021       41.033        7.088        0.030      335.502        6.179      865.596
10/21/2013  08:21:00       -3.882        4.683        0.326        8.689        5.595        8.645       75.505       31.305       74.738        0.011        0.009        6.083        4.883        0.644      335.656        6.435      865.597
10/21/2013  08:22:00      -24.439      -10.609       -3.708       12.695        8.033        6.098      161.170       64.526       37.186        0.049        0.013       26.642        5.483        0.042      335.577        6.303      865.601
10/21/2013  08:23:00      -14.934       -3.479       -3.403        6.062        5.776        5.211       36.753       33.367       27.159        0.017        0.005       15.334        3.355        0.048      335.601        6.344      865.607
10/21/2013  08:24:00      -20.779       -2.817       -7.044       11.494        7.306        6.979      132.114       53.376       48.700        0.036        0.012       20.969        5.897        0.079      335.673        6.464      865.618
10/21/2013  08:25:00      -25.680       -0.250       -1.983        9.147        3.870        3.919       83.660       14.975       15.361        0.039        0.006       25.682        4.346        0.029      335.647        6.421      865.628
10/21/2013  08:26:00      -16.122        1.574        5.962        8.874        6.224        6.289       78.753       38.742       39.553        0.023        0.008       16.198        4.749        0.086      335.774        6.632      865.626
10/21/2013  08:27:00       -9.301        0.210        7.759        9.057        8.844       11.077       82.027       78.211      122.692        0.021        0.014        9.303        6.617        0.506      335.971        6.959      865.636
10/21/2013  08:28:00      -12.000       11.148       24.152        8.512       10.070       12.492       72.462      101.401      156.049        0.059        0.016       16.379        8.367        0.261      335.972        6.962      865.658
10/21/2013  08:29:00      -16.315       -7.273       18.508       10.629       16.655       13.219      112.980      277.403      174.752        0.061        0.028       17.862       12.703        0.506      335.915        6.866      865.665
10/21/2013  08:30:00      -19.033       15.266       14.091       13.614       20.327       16.584      185.348      413.187      275.031        0.083        0.044       24.399       12.058        0.244      335.953        6.931      865.689
10/21/2013  08:31:00      -33.609       19.128        6.082       19.497       24.502       25.235      380.144      600.335      636.829        0.157        0.081       38.671       16.726        0.187      335.803        6.681      865.707
10/21/2013  08:32:00      -24.329       26.445        8.298       14.127       12.900       16.690      199.577      166.409      278.572        0.100        0.032       35.934       11.474        0.102      335.781        6.645      865.723
10/21/2013  08:33:00      -17.325       16.755       -6.699       15.646       14.917       15.083      244.798      222.505      227.484        0.066        0.035       24.102       10.694        0.197      335.736        6.569      865.725
10/21/2013  08:34:00      -17.095       13.541        7.409       13.602       12.950       16.908      185.004      167.706      285.872        0.058        0.032       21.808        7.541        0.120      335.906        6.851      865.734
10/21/2013  08:35:00      -22.602       23.271       41.015       14.348       12.038       10.204      205.856      144.908      104.120        0.159        0.023       32.440        7.890        0.059      336.007        7.020      865.740
10/21/2013  08:36:00       -3.747        1.302       23.956       11.404        8.172        8.889      130.052       66.782       79.006        0.043        0.014        3.967        6.466        2.657      336.294        7.499      865.746
10/21/2013  08:37:00       -0.106        2.864       30.092        7.692        8.501        4.843       59.167       72.260       23.451        0.053        0.008        2.866        3.477        1.472      336.436        7.736      865.744
10/21/2013  08:38:00       -5.906       16.322       35.883        9.289       19.746       10.318       86.289      389.909      106.458        0.109        0.029       17.358       10.720        0.381      336.349        7.590      865.766
10/21/2013  08:39:00       11.534       29.911       40.186       25.157       18.888       11.026      632.870      356.747      121.573        0.188        0.056       32.058       10.821        0.114      336.288        7.489      865.776
10/21/2013  08:40:00       45.823       28.116       21.406       25.376       18.871       21.234      643.942      356.127      450.893        0.240        0.073       53.761       14.668        0.074      336.085        7.148      865.785
10/21/2013  08:41:00        7.956       33.331       45.411       26.915       25.694       19.709      724.397      660.164      388.451        0.250        0.089       34.267       17.155        0.251      336.436        7.736      865.786
10/21/2013  08:42:00        7.917       35.818       48.468       15.009       21.025       11.977      225.263      442.051      143.458        0.225        0.041       36.683       10.080        0.076      336.289        7.490      865.789
10/21/2013  08:43:00       47.470       60.813       51.278       34.003       18.535       19.168     1156.200      343.531      367.423        0.522        0.093       77.147       19.426        0.063      336.148        7.255      865.796
10/21/2013  08:44:00       44.602       46.454       42.539       21.130       21.198       23.989      446.467      449.354      575.466        0.371        0.074       64.400       19.125        0.088      336.170        7.292      865.795
10/21/2013  08:45:00       15.034       34.388       50.212       21.739       20.936       12.876      472.604      438.320      165.791        0.250        0.054       37.531       12.792        0.116      336.328        7.556      865.786
10/21/2013  08:46:00       27.781       27.588       37.437       21.046       18.787       17.595      442.938      352.963      309.589        0.202        0.055       39.151       12.897        0.109      336.383        7.649      865.777
10/21/2013  08:47:00       24.593       33.935       33.085       22.796       18.025       18.736      519.666      324.897      351.047        0.202        0.060       41.909        9.880        0.056      336.437        7.739      865.782
10/21/2013  08:48:00        5.575       14.005       32.079       16.322       17.651       11.749      266.403      311.558      138.034        0.099        0.036       15.074       10.151        0.453      336.731        8.231      865.789
10/21/2013  08:49:00       20.658      -29.624        2.975       19.330       36.006       24.263      373.646     1296.439      588.704        0.179        0.113       36.116       19.893        0.303      336.574        7.967      865.800
10/21/2013  08:50:00       20.454      -62.463       -1.574       19.783       33.100       16.781      391.374     1095.618      281.607        0.305        0.088       65.727        9.242        0.020      336.483        7.816      865.813
10/21/2013  08:51:00        7.613      -26.040       18.985       18.741       32.031       23.000      351.237     1025.989      528.980        0.150        0.095       27.130       22.371        0.680      336.616        8.038      865.826
10/21/2013  08:52:00        3.018       25.041       34.123       19.103       18.373       10.122      364.929      337.570      102.462        0.130        0.040       25.222        8.327        0.109      336.745        8.253      865.829
10/21/2013  08:53:00       -7.328       11.764       40.273       11.288       16.940       12.255      127.424      286.960      150.179        0.119        0.028       13.860       11.473        0.685      336.993        8.667      865.838
10/21/2013  08:54:00       -4.114       11.324       35.468       19.441       18.712       14.766      377.965      350.129      218.025        0.117        0.047       12.048       14.337        1.416      336.922        8.549      865.844
10/21/2013  08:55:00      -19.218       16.622       24.970       15.367       15.065       17.150      236.131      226.946      294.138        0.101        0.038       25.409       12.188        0.230      336.831        8.397      865.850
10/21/2013  08:56:00       -9.030        8.365        7.955       22.615       19.513       15.077      511.450      380.744      227.326        0.067        0.056       12.309       13.356        1.177      336.770        8.295      865.861
10/21/2013  08:57:00       -1.996       30.937       46.435       18.331       31.330       24.937      336.029      981.543      621.865        0.253        0.097       31.001       24.708        0.635      337.051        8.765      865.868
10/21/2013  08:58:00      -21.340       -7.629       27.743       16.662       29.108       19.163      277.619      847.268      367.225        0.139        0.075       22.662       16.424        0.525      336.893        8.500      865.872
10/21/2013  08:59:00      -29.217       38.529       17.886       33.221       20.358       33.268     1103.656      414.463     1106.781        0.264        0.131       48.354       25.690        0.282      336.723        8.216      865.872
10/21/2013  09:00:00        3.157      -15.618        7.832       34.413       24.474       23.826     1184.246      598.953      567.658        0.133        0.118       15.934       24.421        2.349      336.922        8.549      865.871
10/21/2013  09:01:00        1.247      -46.782        1.900       33.557       40.214       26.634     1126.072     1617.126      709.356        0.282        0.173       46.799       25.289        0.292      336.979        8.644      865.859
10/21/2013  09:02:00       -7.504      -32.926        5.908       31.379       30.229       20.087      984.658      913.781      403.474        0.174        0.115       33.770       21.415        0.402      336.801        8.347      865.856
10/21/2013  09:03:00       -3.905      -31.582        0.278       14.448       17.961       18.874      208.758      322.604      356.213        0.095        0.044       31.822       10.954        0.118      336.982        8.648      865.853
10/21/2013  09:04:00      -13.958       19.674       26.686       19.990       20.633        9.520      399.594      425.719       90.636        0.110        0.046       24.122        7.381        0.094      337.175        8.972      865.855
10/21/2013  09:05:00      -24.250       30.591       24.354       20.915       20.307       26.102      437.447      412.361      681.298        0.182        0.077       39.037       20.645        0.280      337.157        8.942      865.859
10/21/2013  09:06:00       17.403       45.987       30.931       26.955       18.669       21.884      726.557      348.540      478.930        0.246        0.078       49.170       21.972        0.200      337.035        8.737      865.859
10/21/2013  09:07:00       18.554       31.276       17.934       25.878       19.491       15.447      669.658      379.887      238.608        0.147        0.064       36.365       13.281        0.133      337.143        8.917      865.859
10/21/2013  09:08:00       28.984       67.433       16.360       41.313       26.768       24.344     1706.784      716.543      592.622        0.433        0.151       73.398       14.674        0.040      336.964        8.620      865.856
10/21/2013  09:09:00      -36.387        9.297       13.313       30.021       45.228       19.719      901.275     2045.538      388.828        0.246        0.167       37.556       16.015        0.182      337.026        8.723      865.864
10/21/2013  09:10:00      -57.398       -5.773        6.446       16.324       16.450       12.428      266.477      270.597      154.445        0.203        0.035       57.688        8.986        0.024      336.899        8.509      865.869
10/21/2013  09:11:00      -16.265        2.185        0.019       11.043       10.345       12.480      121.946      107.029      155.763        0.033        0.019       16.412        9.391        0.327      337.315        9.205      865.874
10/21/2013  09:12:00      -21.824      -13.721        1.037       12.447        8.159        8.600      154.933       66.563       73.953        0.048        0.015       25.779        4.025        0.024      337.121        8.881      865.869
10/21/2013  09:13:00      -10.029       -2.127        8.935       14.017        8.854       10.581      196.470       78.395      111.957        0.029        0.019       10.252        6.846        0.446      337.742        9.921      865.868
10/21/2013  09:14:00      -23.055      -18.064       -1.042       15.994       13.168        9.359      255.809      173.390       87.595        0.069        0.026       29.289        6.795        0.054      337.177        8.975      865.859
10/21/2013  09:15:00      -16.587      -13.725        7.681       16.793       14.682       14.087      281.998      215.560      198.434        0.061        0.035       21.529       10.431        0.235      337.361        9.283      865.854
10/21/2013  09:16:00      -15.619       -1.318        5.973       14.760       12.537       10.556      217.855      157.181      111.439        0.038        0.024       15.675        7.702        0.241      337.540        9.584      865.853
10/21/2013  09:17:00      -46.185      -36.910       -3.622       14.086       17.787       12.289      198.410      316.364      151.014        0.209        0.033       59.122        8.134        0.019      337.172        8.965      865.854
10/21/2013  09:18:00      -42.791       -3.873       -7.334       14.953        8.926        9.224      223.601       79.671       85.088        0.114        0.019       42.966        4.244        0.010      337.142        8.916      865.854
10/21/2013  09:19:00      -62.013      -11.221       -9.530       12.085       14.796        7.373      146.035      218.910       54.363        0.224        0.021       63.020        5.457        0.007      337.151        8.930      865.846
10/21/2013  09:20:00      -53.418      -21.677       -6.362       15.238       19.760       14.513      232.194      390.448      210.629        0.210        0.042       57.649        6.498        0.013      337.209        9.029      865.832
10/21/2013  09:21:00      -16.248      -20.285        3.560       22.080       15.211       11.173      487.526      231.378      124.844        0.077        0.042       25.990       10.388        0.160      337.446        9.425      865.815
10/21/2013  09:22:00      -30.160        2.426      -13.267       12.776       17.131       11.567      163.223      293.456      133.806        0.084        0.030       30.257       12.270        0.164      337.333        9.235      865.809
10/21/2013  09:23:00      -15.089        3.215       -1.380       10.014        7.279       10.517      100.285       52.984      110.601        0.025        0.013       15.428        6.945        0.203      337.653        9.771      865.813
10/21/2013  09:24:00        1.904       30.566        8.093       18.008       22.707       21.730      324.301      515.593      472.178        0.116        0.066       30.625       20.240        0.437      338.052       10.442      865.823
10/21/2013  09:25:00      -16.646       16.264       12.430       26.192       29.942       20.883      686.026      896.523      436.113        0.136        0.101       23.272       18.548        0.635      337.910       10.204      865.840
10/21/2013  09:26:00       -4.002       34.299       66.808       17.219       38.240       30.116      296.480     1462.329      906.963        0.416        0.133       34.532       26.695        0.598      338.253       10.780      865.856
10/21/2013  09:27:00       10.667        1.889       48.540       35.582       76.644       31.754     1266.110     5874.273     1008.287        0.531        0.407       10.833       41.012       14.334      338.112       10.542      865.858
10/21/2013  09:28:00       37.032       51.712       46.933       27.007       30.361       25.802      729.377      921.808      665.746        0.428        0.116       63.605       20.346        0.102      337.994       10.343      865.864
10/21/2013  09:29:00       26.218       37.912       27.467       38.102       17.807       33.349     1451.794      317.085     1112.132        0.288        0.144       46.094       31.648        0.471      337.959       10.287      865.859
10/21/2013  09:30:00        3.424       58.852       84.391       24.401       39.588       30.955      595.426     1567.223      958.219        0.686        0.156       58.951       28.175        0.228      338.096       10.515      865.851
10/21/2013  09:31:00       38.671       35.592       48.307       28.680       39.381       28.302      822.562     1550.862      801.017        0.413        0.159       52.557       26.396        0.252      337.989       10.336      865.848
10/21/2013  09:32:00       29.630       52.178       71.062       37.825       39.251       35.618     1430.696     1540.641     1268.629        0.644        0.212       60.004       30.908        0.265      337.857       10.114      865.841
10/21/2013  09:33:00       23.540       78.522       83.345       36.007       37.924       24.842     1296.471     1438.226      617.143        0.851        0.168       81.974       22.221        0.073      337.866       10.129      865.844
10/21/2013  09:34:00        4.873       39.278       65.130       27.580       28.073       23.756      760.636      788.069      564.359        0.396        0.106       39.579       20.345        0.264      338.225       10.733      865.848
10/21/2013  09:35:00       76.471       63.198       52.751       57.469       36.373       31.627     3302.741     1322.962     1000.271        0.912        0.281       99.205       25.037        0.064      337.879       10.152      865.855
10/21/2013  09:36:00       29.217       43.052       36.485       42.543       46.517       31.809     1809.915     2163.838     1011.839        0.451        0.249       52.030       27.708        0.284      338.199       10.688      865.855
10/21/2013  09:37:00       84.882       80.306        1.920       31.704       24.177       25.366     1005.162      584.523      643.435        0.795        0.112      116.850        9.007        0.006      337.658        9.780      865.849
10/21/2013  09:38:00       72.149       40.591       -4.043       44.140       32.219       31.041     1948.333     1038.088      963.538        0.541        0.197       82.783       20.830        0.063      337.835       10.078      865.860
10/21/2013  09:39:00       83.021       44.272        9.826       48.376       41.438       31.539     2340.229     1717.071      994.686        0.700        0.253       94.088       18.917        0.040      337.938       10.249      865.855
10/21/2013  09:40:00      129.710       73.837        0.269       46.844       43.126       28.198     2194.371     1859.895      795.100        1.356        0.242      149.253       17.907        0.014      337.814       10.043      865.852
10/21/2013  09:41:00       86.957       60.411       15.985       56.274       42.739       40.794     3166.720     1826.596     1664.148        0.906        0.333      105.883       38.925        0.135      337.979       10.319      865.851
10/21/2013  09:42:00       78.701       69.636       43.125       46.109       47.748       28.840     2125.998     2279.835      831.746        0.907        0.262      105.085       17.906        0.029      338.235       10.749      865.841
10/21/2013  09:43:00       64.226       67.555        7.731       37.131       30.115       35.635     1378.728      906.897     1269.889        0.615        0.178       93.213       23.456        0.063      338.052       10.442      865.832
10/21/2013  09:44:00       -2.776       32.003       67.239       33.986       40.169       26.508     1155.064     1613.521      702.657        0.451        0.174       32.123       27.577        0.737      338.484       11.167      865.823
10/21/2013  09:45:00       -7.660      -22.036       28.139       28.803       55.621       35.164      829.615     3093.683     1236.517        0.325        0.258       23.329       23.302        0.998      338.592       11.348      865.808
10/21/2013  09:46:00       36.133      -45.293       25.654       37.115       49.024       39.145     1377.555     2403.380     1532.314        0.466        0.266       57.940       28.922        0.249      338.476       11.154      865.794
10/21/2013  09:47:00       21.670       25.198       43.746       31.662       49.919       34.874     1002.488     2491.884     1216.208        0.386        0.236       33.234       36.006        1.174      338.490       11.177      865.794
10/21/2013  09:48:00       32.796       17.337       37.035       39.118       52.007       25.643     1530.188     2704.725      657.559        0.382        0.245       37.096       25.743        0.482      338.426       11.070      865.790
10/21/2013  09:49:00       51.937       60.139       39.562       50.837       37.164       26.164     2584.399     1381.175      684.569        0.626        0.233       79.462       12.664        0.025      338.491       11.178      865.781
10/21/2013  09:50:00       89.199       61.798       16.015       36.515       19.896       23.386     1333.369      395.832      546.901        0.715        0.114      108.515       13.692        0.016      338.133       10.577      865.782
10/21/2013  09:51:00       11.287       56.535       70.022       30.843       35.928       40.126      951.278     1290.847     1610.099        0.604        0.193       57.651       26.787        0.216      338.637       11.424      865.768
10/21/2013  09:52:00       36.070       -3.386       30.805       30.650       35.714       25.071      939.433     1275.499      628.545        0.255        0.142       36.229       22.431        0.383      338.529       11.243      865.762
10/21/2013  09:53:00       32.516       32.021        7.131       26.663       20.088       22.363      710.897      403.516      500.121        0.187        0.081       45.635       16.842        0.136      338.618       11.392      865.757
10/21/2013  09:54:00       53.244       68.254       53.251       47.667       37.431       34.635     2272.138     1401.042     1199.564        0.760        0.244       86.565       12.452        0.021      338.579       11.328      865.744
10/21/2013  09:55:00       25.129       10.758       35.040       42.424       53.424       27.300     1799.820     2854.109      745.287        0.369        0.270       27.335       21.471        0.617      338.746       11.608      865.749
10/21/2013  09:56:00       10.161       47.913       61.709       29.553       37.444       31.253      873.398     1402.058      976.728        0.473        0.163       48.979       26.213        0.286      339.019       12.067      865.752
10/21/2013  09:57:00       16.362       43.939       50.585       41.271       43.830       38.347     1703.311     1921.079     1470.510        0.493        0.255       46.887       31.221        0.443      338.830       11.748      865.749
10/21/2013  09:58:00       29.833       34.529        9.964       52.474       42.993       25.836     2753.508     1848.373      667.514        0.372        0.263       45.632       18.979        0.173      338.887       11.845      865.754
10/21/2013  09:59:00       85.180       69.513       21.301       61.284       36.129       30.599     3755.747     1305.334      936.296        0.927        0.300      109.944       13.970        0.016      338.683       11.502      865.755
10/21/2013  10:00:00      117.182       74.115       21.597       44.575       40.539       43.163     1986.960     1643.382     1863.064        1.259        0.275      138.652       22.590        0.027      338.561       11.297      865.746
10/21/2013  10:01:00       58.680       78.727       58.091       56.488       47.173       53.682     3190.919     2225.265     2881.774        1.066        0.415       98.190       37.865        0.149      338.742       11.600      865.734
10/21/2013  10:02:00      132.072       75.191       16.344       32.818       39.103       28.962     1077.009     1529.083      838.795        1.340        0.172      151.976       15.182        0.010      338.256       10.784      865.732
10/21/2013  10:03:00      119.074       69.534       23.966       34.630       26.559       25.863     1199.246      705.396      668.885        1.108        0.129      137.890       15.540        0.013      338.373       10.982      865.725
10/21/2013  10:04:00       39.682       37.439       17.520       45.687       25.641       27.191     2087.283      657.482      739.355        0.338        0.174       54.556       23.563        0.187      338.839       11.764      865.713
10/21/2013  10:05:00       50.220       51.198       46.771       52.059       32.002       40.198     2710.089     1024.145     1615.893        0.634        0.268       71.717       38.713        0.291      338.791       11.681      865.716
10/21/2013  10:06:00       66.412       57.253        1.041       23.379       22.372       25.808      546.579      500.494      666.037        0.470        0.086       87.684       15.558        0.031      338.348       10.938      865.718
10/21/2013  10:07:00      102.788       73.204       18.491       45.598       32.228       33.613     2079.133     1038.626     1129.841        1.026        0.212      126.191        9.041        0.005      338.576       11.321      865.715
10/21/2013  10:08:00      147.804       84.422       32.181       37.286       26.421       32.415     1390.228      698.048     1050.715        1.657        0.157      170.215       13.850        0.007      338.373       10.980      865.711
10/21/2013  10:09:00       80.738       89.375       52.949       57.617       40.997       43.161     3319.740     1680.755     1862.875        1.209        0.343      120.443       35.077        0.085      338.796       11.691      865.704
10/21/2013  10:10:00       13.873       63.033       71.948       46.544       55.718       43.651     2166.369     3104.543     1905.403        0.826        0.359       64.541       40.721        0.398      339.069       12.150      865.717
10/21/2013  10:11:00      118.938       84.882       31.308       57.530       37.495       49.730     3309.648     1405.898     2473.092        1.476        0.359      146.120       38.959        0.071      338.678       11.493      865.714
10/21/2013  10:12:00       35.406       36.529        5.227       37.046       25.617       27.769     1372.394      656.233      771.132        0.271        0.140       50.872       18.571        0.133      338.871       11.816      865.709
10/21/2013  10:13:00       38.561       37.797       27.078       38.169       41.815       46.407     1456.894     1748.522     2153.621        0.450        0.268       53.996       28.843        0.285      338.982       12.004      865.705
10/21/2013  10:14:00       17.052       20.653       48.143       46.587       38.609       47.996     2170.308     1490.657     2303.625        0.450        0.298       26.783       38.668        2.084      339.223       12.411      865.694
10/21/2013  10:15:00       27.201       60.395       89.753       45.910       50.859       32.178     2107.724     2586.632     1035.411        0.909        0.286       66.237       32.202        0.236      338.985       12.008      865.697
10/21/2013  10:16:00       20.198       93.306      105.614       44.732       44.530       29.477     2000.949     1982.958      868.914        1.256        0.243       95.467       32.987        0.119      338.902       11.869      865.692
10/21/2013  10:17:00       70.715       58.444       82.989       77.358       46.876       33.586     5984.318     2197.366     1127.990        1.230        0.465       91.740       41.475        0.204      338.966       11.976      865.691
10/21/2013  10:18:00       96.718      101.231       62.201       45.880       35.437       53.126     2104.930     1255.814     2822.398        1.483        0.309      140.008       38.442        0.075      338.574       11.316      865.694
10/21/2013  10:19:00       17.460       30.078       14.037       34.216       36.968       22.973     1170.768     1366.653      527.751        0.224        0.153       34.778       16.123        0.215      338.908       11.879      865.691
10/21/2013  10:20:00       51.316      -29.190       11.988       42.614       39.234       31.685     1815.966     1539.305     1003.963        0.399        0.218       59.037       26.200        0.197      339.078       12.166      865.680
10/21/2013  10:21:00       29.100       67.422       73.393       63.154       54.531       40.885     3988.475     2973.629     1671.622        0.970        0.432       73.434       39.393        0.288      339.382       12.678      865.663
10/21/2013  10:22:00      105.928       87.346       10.393       35.198       37.271       38.048     1238.899     1389.131     1447.676        1.152        0.204      137.296       13.505        0.010      338.931       11.918      865.667
10/21/2013  10:23:00       74.873       73.835        1.563       21.503       29.638       35.513      462.366      878.401     1261.204        0.683        0.130      105.155       26.161        0.062      338.923       11.906      865.661
10/21/2013  10:24:00       58.854       67.362        2.972       29.991       31.034       30.717      899.476      963.111      943.518        0.541        0.140       89.451       19.856        0.049      338.917       11.893      865.659
10/21/2013  10:25:00       94.776       76.914       13.902       33.219       26.562       36.834     1103.520      705.540     1356.761        0.913        0.158      122.058       13.570        0.012      338.946       11.941      865.653
10/21/2013  10:26:00       62.933       47.406        2.434       27.239       26.060       25.188      741.946      679.144      634.429        0.413        0.103       78.791       15.164        0.037      339.005       12.042      865.645
10/21/2013  10:27:00       28.879        4.469        8.768       33.933       54.963       29.291     1151.466     3020.893      857.955        0.298        0.252       29.222       25.310        0.750      339.383       12.679      865.630
10/21/2013  10:28:00       24.167       57.856       94.311       47.607       88.417       53.007     2266.423     7817.559     2809.747        1.286        0.645       62.700       61.468        0.961      339.441       12.776      865.614
10/21/2013  10:29:00       78.091      118.986      106.773       55.650       43.226       38.177     3096.962     1868.445     1457.452        1.904        0.321      142.323       29.173        0.042      339.169       12.319      865.603
10/21/2013  10:30:00      112.510       97.693       45.760       39.271       34.194       37.704     1542.180     1169.212     1421.585        1.421        0.207      149.005       25.305        0.029      338.980       12.000      865.602
10/21/2013  10:31:00       26.565       37.042       52.574       32.806       42.673       35.233     1076.244     1820.965     1241.386        0.449        0.207       45.583       18.662        0.168      339.394       12.697      865.608
10/21/2013  10:32:00       49.370       55.858       69.575       37.117       37.216       21.575     1377.695     1385.026      465.479        0.681        0.161       74.549       14.114        0.036      339.329       12.587      865.599
10/21/2013  10:33:00       21.252       25.711       23.052       29.595       22.508       15.458      875.888      506.605      238.949        0.163        0.081       33.358       14.768        0.196      339.391       12.693      865.597
10/21/2013  10:34:00       51.514       49.505       23.835       18.585       15.964       25.228      345.384      254.845      636.453        0.345        0.062       71.445       11.209        0.025      339.138       12.267      865.593
10/21/2013  10:35:00       46.933       37.080       -6.660       17.700       33.082       36.748      313.289     1094.434     1350.407        0.319        0.138       59.814       11.526        0.037      339.254       12.461      865.584
10/21/2013  10:36:00       33.798       14.605        9.875       34.800       25.894       23.290     1211.048      670.486      542.439        0.194        0.121       36.818       15.356        0.174      339.708       13.227      865.587
10/21/2013  10:37:00       27.448       46.957       51.716       36.248       38.698       40.708     1313.909     1497.566     1657.129        0.505        0.223       54.391       29.310        0.290      339.905       13.560      865.580
10/21/2013  10:38:00        7.881       65.551       76.620       37.360       61.178       46.913     1395.734     3742.764     2200.875        0.878        0.367       66.023       42.564        0.416      339.861       13.483      865.577
10/21/2013  10:39:00       82.464       52.581       -3.010       39.233       40.868       29.202     1539.253     1670.186      852.737        0.682        0.203       97.801       11.708        0.014      339.718       13.244      865.582
10/21/2013  10:40:00       62.296       53.422       -3.100       35.789       28.849       30.041     1280.888      832.290      902.481        0.488        0.151       82.066       14.156        0.030      339.760       13.314      865.588
10/21/2013  10:41:00        5.604       16.202       42.947       29.858       42.929       34.795      891.521     1842.893     1210.708        0.304        0.197       17.144       35.342        4.250      340.337       14.286      865.590
10/21/2013  10:42:00      126.610       71.187       36.584       32.700       30.992       36.684     1069.316      960.535     1345.735        1.291        0.169      145.250       23.841        0.027      339.358       12.636      865.589
10/21/2013  10:43:00       33.565       38.040       36.251       45.765       42.441       33.543     2094.467     1801.263     1125.118        0.445        0.251       50.731       25.910        0.261      340.113       13.910      865.590
10/21/2013  10:44:00       55.059       72.702        0.616       38.265       40.718       30.439     1464.214     1657.928      926.539        0.618        0.202       91.199       17.615        0.037      339.777       13.344      865.591
10/21/2013  10:45:00       66.982       54.078       45.024       65.508       57.280       39.320     4291.345     3281.017     1546.082        0.928        0.456       86.087       20.771        0.058      339.911       13.570      865.586
10/21/2013  10:46:00      120.335       91.331       47.168       54.337       36.130       48.409     2952.535     1305.344     2343.389        1.582        0.330      151.069       37.636        0.062      339.538       12.939      865.580
10/21/2013  10:47:00       35.900       44.400       58.863       36.505       40.650       37.840     1332.637     1652.421     1431.848        0.557        0.221       57.097       34.002        0.355      339.901       13.552      865.584
10/21/2013  10:48:00       24.059      -76.360      -15.239       45.161       34.488       23.136     2039.526     1189.444      535.254        0.520        0.188       80.060       14.185        0.031      339.661       13.146      865.575
10/21/2013  10:49:00       16.161       -2.392       44.012       30.299       65.045       45.224      918.028     4230.870     2045.234        0.470        0.360       16.337       53.244       10.622      339.992       13.705      865.564
10/21/2013  10:50:00       44.959      -56.347       10.899       26.343       50.828       32.769      693.963     2583.459     1073.839        0.483        0.218       72.085       30.336        0.177      339.669       13.161      865.549
10/21/2013  10:51:00       -1.122        7.219       58.102       20.174       78.921       46.584      406.990     6228.525     2170.055        0.612        0.440        7.306       55.752       58.240      340.194       14.046      865.539
10/21/2013  10:52:00       32.477       50.075       74.245       39.531       40.047       18.380     1562.666     1603.734      337.808        0.629        0.175       59.685       22.189        0.138      340.254       14.148      865.530
10/21/2013  10:53:00       62.547       80.676       54.868       52.444       38.915       47.205     2750.378     1514.369     2228.298        0.996        0.325      102.082       28.250        0.077      339.829       13.431      865.525
10/21/2013  10:54:00       22.916       18.217       59.154       38.945       36.579       24.315     1516.689     1338.009      591.239        0.390        0.172       29.275       18.162        0.385      340.277       14.187      865.520
10/21/2013  10:55:00       51.240       54.665       52.141       59.463       49.693       50.295     3535.798     2469.423     2529.635        0.843        0.427       74.925       42.052        0.315      340.276       14.184      865.514
10/21/2013  10:56:00       41.063       44.106       36.720       46.473       45.190       33.803     2159.694     2042.147     1142.628        0.516        0.267       60.261       27.574        0.209      340.564       14.671      865.508
10/21/2013  10:57:00       64.771       66.617       37.085       38.563       27.598       38.999     1487.078      761.637     1520.888        0.689        0.188       92.915       23.207        0.062      340.031       13.771      865.512
10/21/2013  10:58:00        2.769       14.949       55.849       23.133       31.088       19.423      535.131      966.449      377.236        0.261        0.094       15.203       17.766        1.366      340.528       14.610      865.505
10/21/2013  10:59:00       36.966       38.724       27.767       36.238       41.778       35.013     1313.213     1745.422     1225.942        0.396        0.214       53.535       28.852        0.290      340.320       14.260      865.498
10/21/2013  11:00:00        1.504       15.637       39.859       25.400       44.856       36.720      645.182     2012.050     1348.323        0.292        0.200       15.709       38.813        6.105      340.573       14.687      865.491
10/21/2013  11:01:00       71.620       66.623       59.273       63.035       41.279       46.725     3973.423     1703.933     2183.265        1.047        0.393       97.816       46.108        0.222      340.255       14.150      865.473
10/21/2013  11:02:00       85.580       23.100       23.052       40.382       37.470       32.580     1630.738     1404.038     1061.477        0.624        0.205       88.643       27.882        0.099      340.187       14.034      865.480
10/21/2013  11:03:00       15.810        2.362       29.380       23.218       18.475       17.237      539.061      341.311      297.101        0.115        0.059       15.986        8.821        0.305      340.719       14.933      865.470
10/21/2013  11:04:00        8.563       57.837       70.487       35.425       37.084       29.754     1254.940     1375.218      885.274        0.595        0.176       58.467       23.592        0.163      341.000       15.410      865.471
10/21/2013  11:05:00       39.887       83.205       78.019       49.963       38.051       44.613     2496.253     1447.893     1990.329        1.027        0.297       92.271       39.344        0.182      340.611       14.751      865.459
10/21/2013  11:06:00       -7.164       61.677       80.504       25.967       40.992       26.416      674.289     1680.371      697.785        0.669        0.153       62.092       21.013        0.115      340.807       15.083      865.460
10/21/2013  11:07:00       60.770       43.856       19.497       53.704       32.518       44.633     2884.104     1057.424     1992.073        0.596        0.297       74.942       37.815        0.255      340.772       15.023      865.446
10/21/2013  11:08:00       65.802       89.917       62.912       55.298       41.259       35.984     3057.867     1702.268     1294.832        1.121        0.303      111.422       23.551        0.045      340.488       14.545      865.449
10/21/2013  11:09:00       20.236       45.424       80.324       37.601       48.757       26.243     1413.863     2377.291      688.699        0.670        0.224       49.727       28.711        0.333      341.012       15.429      865.437
10/21/2013  11:10:00       25.768       35.405       54.064       40.474       32.951       27.011     1638.171     1085.758      729.587        0.415        0.173       43.789       18.150        0.172      340.744       14.976      865.438
10/21/2013  11:11:00       40.265       48.855       52.400       28.481       24.964       13.438      811.172      623.178      180.567        0.418        0.081       63.309       12.195        0.037      340.569       14.681      865.432
10/21/2013  11:12:00       25.103       44.477       37.106       27.687       27.256       39.177      766.581      742.902     1534.852        0.351        0.152       51.072       11.401        0.050      340.592       14.719      865.430
10/21/2013  11:13:00      -43.311        8.919      -19.509       15.954       22.582       13.355      254.543      509.943      178.364        0.164        0.047       44.220       10.771        0.059      340.294       14.215      865.431
10/21/2013  11:14:00       38.637       28.711        9.700       69.850       49.121       22.598     4879.082     2412.870      510.667        0.511        0.390       48.136       11.448        0.057      340.602       14.737      865.432
10/21/2013  11:15:00      110.225       93.586       10.684       34.097       32.930       31.154     1162.617     1084.354      970.592        1.212        0.161      144.595       11.274        0.006      340.413       14.416      865.431
10/21/2013  11:16:00        8.152       37.765       61.543       37.662       67.189       45.916     1418.437     4514.396     2108.276        0.666        0.402       38.635       42.875        1.232      341.071       15.530      865.410
10/21/2013  11:17:00       23.803       94.688      117.225       45.957       53.062       39.716     2112.071     2815.580     1577.394        1.489        0.325       97.634       40.172        0.169      340.909       15.255      865.401
10/21/2013  11:18:00       89.394       69.628       44.949       58.394       40.833       51.403     3409.825     1667.345     2642.301        1.129        0.386      113.311       42.650        0.142      340.586       14.708      865.401
10/21/2013  11:19:00       35.115       32.639       37.564       36.186       48.831       36.854     1309.454     2384.438     1358.221        0.438        0.253       47.941       35.149        0.538      340.993       15.397      865.400
10/21/2013  11:20:00       48.856       51.332       59.878       42.723       37.701       30.610     1825.280     1421.350      936.949        0.639        0.209       70.866       18.940        0.071      341.003       15.415      865.380
10/21/2013  11:21:00       63.948       68.531       53.437       61.622       38.843       42.178     3797.211     1508.777     1778.976        0.936        0.354       93.733       38.230        0.166      341.261       15.852      865.382
10/21/2013  11:22:00      124.867       83.879       41.270       53.905       40.152       49.475     2905.789     1612.207     2447.813        1.565        0.348      150.424       29.911        0.040      340.828       15.117      865.390
10/21/2013  11:23:00       96.971       77.416       30.718       36.365       27.034       31.013     1322.448      730.816      961.811        0.968        0.151      124.084       24.543        0.039      340.770       15.020      865.401
10/21/2013  11:24:00       78.987       49.931       17.505       44.609       36.115       32.801     1989.968     1304.269     1075.878        0.670        0.219       93.445       26.425        0.080      341.128       15.627      865.404
10/21/2013  11:25:00       12.222       24.539       16.303       30.610       33.692       22.423      936.967     1135.182      502.782        0.180        0.129       27.414        8.389        0.094      341.670       16.545      865.391
10/21/2013  11:26:00       53.391       -0.805       26.499       32.405       63.884       25.893     1050.074     4081.134      670.464        0.468        0.290       53.397       16.999        0.101      341.160       15.681      865.392
10/21/2013  11:27:00       61.399       35.977        8.648       43.843       23.759       35.521     1922.174      564.481     1261.712        0.444        0.187       71.163       28.402        0.159      341.154       15.669      865.373
10/21/2013  11:28:00      105.961       72.523       12.567       37.098       41.313       50.586     1376.281     1706.765     2558.965        1.114        0.282      128.403       35.046        0.074      341.004       15.417      865.364
10/21/2013  11:29:00       57.894       54.444       48.789       20.842       15.832       23.766      434.392      250.668      564.835        0.497        0.062       79.473        8.969        0.013      340.856       15.166      865.358
10/21/2013  11:30:00       26.127      -31.401       15.190       30.925       45.960       33.558      956.383     2112.307     1126.169        0.305        0.210       40.849       33.874        0.688      341.050       15.493      865.353
10/21/2013  11:31:00      -11.631      -44.499       -5.454       32.749       29.384       21.655     1072.480      863.390      468.923        0.227        0.120       45.994       16.767        0.133      341.111       15.598      865.336
10/21/2013  11:32:00       14.002      -10.173       15.979       34.654       38.512       23.445     1200.875     1483.172      549.691        0.189        0.162       17.308       22.611        1.707      341.339       15.984      865.330
10/21/2013  11:33:00       17.349       40.197       40.068       27.056       37.783       28.315      732.024     1427.593      801.716        0.324        0.148       43.781       22.182        0.257      341.646       16.503      865.329
10/21/2013  11:34:00       26.012       47.721       59.911       30.362       39.288       31.011      921.868     1543.571      961.692        0.498        0.171       54.350       16.981        0.098      341.533       16.312      865.325
10/21/2013  11:35:00       54.300       33.339       17.977       36.929       25.656       28.345     1363.773      658.248      803.420        0.360        0.141       63.718       17.760        0.078      341.519       16.287      865.316
10/21/2013  11:36:00       29.741       93.271        0.758       45.672       47.170       32.576     2085.929     2224.972     1061.191        0.748        0.269       97.898       26.069        0.071      341.570       16.375      865.314
10/21/2013  11:37:00       86.160       68.930        0.224       57.435       50.190       43.310     3298.741     2519.010     1875.746        0.993        0.385      110.340       29.875        0.073      341.438       16.151      865.303
10/21/2013  11:38:00       83.411       66.452       14.965       43.372       32.979       28.712     1881.100     1087.598      824.395        0.769        0.190      106.646       18.023        0.029      341.362       16.022      865.300
10/21/2013  11:39:00       19.501       79.849       -1.001       53.313       51.050       27.837     2842.296     2606.099      774.918        0.649        0.311       82.196       13.237        0.026      341.646       16.504      865.281
10/21/2013  11:40:00       54.305       59.740       15.462       66.818       53.354       47.572     4464.665     2846.675     2263.104        0.816        0.479       80.733       23.917        0.088      341.754       16.688      865.274
10/21/2013  11:41:00       60.879       85.462        3.947       61.464       51.322       51.056     3777.871     2633.912     2606.733        1.002        0.451      104.929       38.122        0.132      341.621       16.460      865.266
10/21/2013  11:42:00       97.679       68.776        3.401       52.906       49.593       44.717     2799.035     2459.513     1999.603        1.077        0.363      119.463       33.632        0.079      341.656       16.519      865.248
10/21/2013  11:43:00       76.645       73.684        2.872       64.068       32.734       41.811     4104.668     1071.541     1748.122        0.912        0.346      106.319       23.640        0.049      341.794       16.754      865.242
10/21/2013  11:44:00       68.609       59.339        8.250       39.556       31.951       28.965     1564.697     1020.845      838.978        0.586        0.171       90.710       16.670        0.034      341.764       16.704      865.231
10/21/2013  11:45:00      110.884       70.584       24.569       45.015       36.085       35.764     2026.341     1302.153     1279.091        1.124        0.230      131.444       11.820        0.008      341.807       16.776      865.211
10/21/2013  11:46:00      122.910       93.465        5.672       53.131       35.455       26.841     2822.952     1257.071      720.444        1.434        0.240      154.410       13.201        0.007      341.423       16.125      865.206
10/21/2013  11:47:00       32.149       91.050       -3.568       41.302       67.421       38.407     1705.897     4545.562     1475.069        0.853        0.386       96.559       41.989        0.189      341.874       16.890      865.186
10/21/2013  11:48:00       84.756       88.620        1.270       75.349       45.158       44.312     5677.472     2039.285     1963.580        1.236        0.484      122.626       34.947        0.081      341.596       16.419      865.169
10/21/2013  11:49:00       57.768       50.174        5.345       64.056       37.480       25.696     4103.206     1404.752      660.269        0.602        0.308       76.515       35.474        0.215      341.764       16.704      865.165
10/21/2013  11:50:00      -18.356        8.386       -5.626       22.485       33.987       12.254      505.554     1155.119      150.171        0.112        0.091       20.181        9.288        0.212      341.845       16.841      865.141
10/21/2013  11:51:00       79.956       51.151       21.597       61.744       40.237       40.731     3812.317     1619.026     1659.051        0.828        0.355       94.918       39.784        0.176      342.199       17.441      865.123
10/21/2013  11:52:00       28.777        4.256       18.063       39.678       44.270       28.984     1574.383     1959.808      840.101        0.277        0.219       29.090       22.382        0.592      342.223       17.482      865.104
10/21/2013  11:53:00      -13.102      -10.003       -3.758       12.906       21.639       14.988      166.564      468.258      224.651        0.057        0.043       16.484       14.118        0.734      342.019       17.137      865.096
10/21/2013  11:54:00       46.588      -23.097       17.492       62.219       83.748       42.886     3871.262     7013.746     1839.222        0.786        0.636       51.999       45.464        0.764      342.085       17.248      865.082
10/21/2013  11:55:00       77.031       61.431       56.857       63.605       52.702       46.969     4045.583     2777.547     2206.086        1.098        0.451       98.527       34.742        0.124      342.078       17.235      865.079
10/21/2013  11:56:00       26.383       80.141        3.806       34.849       64.920       34.461     1214.420     4214.604     1187.566        0.687        0.331       84.372       37.054        0.193      342.002       17.107      865.067
10/21/2013  11:57:00       83.992       57.728        3.237       55.065       56.429       35.990     3032.142     3184.182     1295.260        0.895        0.376      101.917       29.141        0.082      342.167       17.387      865.054
10/21/2013  11:58:00      126.116       91.719       21.911       64.409       55.143       41.268     4148.457     3040.786     1703.063        1.684        0.445      155.941       39.526        0.064      342.130       17.324      865.045
10/21/2013  11:59:00      141.253      106.129       10.353       53.221       63.860       50.828     2832.454     4078.117     2583.454        2.041        0.475      176.680       40.058        0.051      341.899       16.931      865.035
10/21/2013  12:00:00      124.237      105.001       27.895       82.158       55.610       54.592     6749.955     3092.442     2980.302        2.003        0.641      162.665       32.624        0.040      342.210       17.458      865.019
10/21/2013  12:01:00      161.582       98.619       19.223       60.528       52.357       43.981     3663.636     2741.257     1934.309        2.227        0.417      189.300       35.228        0.035      342.067       17.215      865.009
10/21/2013  12:02:00       55.171       45.123       33.100       52.725       41.266       41.172     2779.918     1702.907     1695.115        0.618        0.309       71.274       31.813        0.199      342.390       17.766      865.002
10/21/2013  12:03:00      109.510      102.614       85.424       65.668       47.848       51.719     4312.324     2289.463     2674.872        1.955        0.464      150.073       40.459        0.073      342.274       17.568      864.986
10/21/2013  12:04:00      142.511      107.269       38.452       59.690       33.021       45.384     3562.855     1090.368     2059.715        2.000        0.336      178.371       18.913        0.011      341.983       17.072      864.983
10/21/2013  12:05:00      155.916       78.985       20.903       49.932       55.196       38.523     2493.167     3046.605     1483.985        1.900        0.351      174.781       18.801        0.012      341.962       17.038      864.964
10/21/2013  12:06:00      135.278       67.683       21.037       54.961       45.683       38.533     3020.707     2086.948     1484.756        1.496        0.330      151.265       16.165        0.011      342.210       17.460      864.954
10/21/2013  12:07:00      112.363       79.909       33.868       73.093       49.167       41.609     5342.597     2417.429     1731.319        1.482        0.475      137.880       19.766        0.021      342.403       17.787      864.929
10/21/2013  12:08:00       38.220       88.149       80.510       58.045       59.053       52.867     3369.256     3487.222     2794.946        1.268        0.483       96.078       44.223        0.212      342.866       18.575      864.914
10/21/2013  12:09:00       54.822       90.342       85.838       78.218       50.536       48.443     6118.066     2553.934     2346.753        1.478        0.551      105.675       43.576        0.170      342.648       18.205      864.890
10/21/2013  12:10:00       90.303       83.500       26.359       58.909       32.670       45.043     3470.287     1067.307     2028.829        1.119        0.328      122.991       33.188        0.073      342.129       17.322      864.879
10/21/2013  12:11:00      142.035       74.920       24.913       50.251       44.911       39.084     2525.181     2017.037     1527.552        1.624        0.303      160.583       26.504        0.027      342.436       17.845      864.862
10/21/2013  12:12:00       81.600      100.799       93.576       85.466       89.776       67.757     7304.352     8059.724     4591.063        2.276        0.998      129.688       63.183        0.237      342.786       18.437      864.844
10/21/2013  12:13:00      162.622      142.288       62.208       69.764       77.265       82.577     4867.009     5969.935     6818.974        3.411        0.883      216.083       64.292        0.089      342.195       17.431      864.832
10/21/2013  12:14:00      105.118       84.001       15.805       50.233       45.776       31.712     2523.346     2095.466     1005.650        1.199        0.281      134.559       15.504        0.013      342.123       17.312      864.821
10/21/2013  12:15:00       78.620       25.080       19.599       37.052       44.425       26.381     1372.826     1973.595      695.958        0.562        0.202       82.524       17.707        0.046      342.435       17.843      864.804
10/21/2013  12:16:00       82.353       61.679       34.506       58.393       39.631       36.233     3409.698     1570.593     1312.816        0.903        0.315      102.890       20.262        0.039      342.583       18.094      864.786
10/21/2013  12:17:00       47.608       50.114       39.396       78.837       70.554       68.489     6215.304     4977.818     4690.721        1.110        0.794       69.122       39.283        0.323      342.812       18.484      864.785
10/21/2013  12:18:00      122.329       63.665       75.152       73.793       85.858       67.455     5445.432     7371.640     4550.132        2.101        0.868      137.905       64.273        0.217      342.514       17.976      864.779
10/21/2013  12:19:00      166.215      113.391       47.521       90.117       68.821       61.035     8121.061     4736.396     3725.223        2.966        0.829      201.209       49.857        0.061      342.439       17.846      864.764
10/21/2013  12:20:00      131.539      104.637       38.973       72.183       45.477       52.027     5210.396     2068.172     2706.857        1.988        0.499      168.081       22.388        0.018      342.532       18.007      864.753
10/21/2013  12:21:00      144.879      109.931       44.377       56.482       43.667       32.372     3190.198     1906.806     1047.971        2.059        0.307      181.864       16.186        0.008      342.752       18.380      864.739
10/21/2013  12:22:00       89.707       60.116       14.603       44.638       35.455       36.398     1992.574     1257.031     1324.833        0.822        0.229      107.988       19.154        0.031      342.529       18.002      864.723
10/21/2013  12:23:00       86.014       86.922       77.441       82.253       60.210       63.828     6765.483     3625.202     4074.076        1.771        0.723      122.285       57.391        0.220      343.041       18.874      864.707
10/21/2013  12:24:00       12.970       14.156       48.227       42.349       78.519       43.167     1793.457     6165.264     1863.363        0.626        0.491       19.199       35.977        3.511      343.215       19.171      864.686
10/21/2013  12:25:00      117.084       97.648       43.514       58.259       47.266       43.111     3394.115     2234.116     1858.601        1.631        0.374      152.459       30.414        0.040      342.714       18.316      864.685
10/21/2013  12:26:00       97.968      104.866       95.497       56.391       51.030       39.787     3179.905     2604.020     1582.994        1.854        0.368      143.508       27.152        0.036      342.875       18.591      864.679
10/21/2013  12:27:00      121.315       96.231       53.793       63.943       42.962       39.926     4088.743     1845.718     1594.116        1.720        0.376      154.847       38.854        0.063      342.814       18.486      864.654
10/21/2013  12:28:00       28.485       22.100       40.802       62.513       57.971       41.200     3907.826     3360.613     1697.476        0.596        0.448       36.053       40.275        1.248      343.058       18.902      864.643
10/21/2013  12:29:00       80.776        5.215       59.071       88.973       96.280       58.732     7916.124     9269.856     3449.452        1.533        1.032       80.944       51.749        0.409      343.195       19.134      864.630
10/21/2013  12:30:00      111.128      -11.412       64.462       65.468       97.345       71.459     4286.053     9476.022     5106.362        1.775        0.943      111.713       62.286        0.311      342.917       18.661      864.620
10/21/2013  12:31:00       56.825      119.637      143.462       92.002       95.209       54.170     8464.399     9064.835     2934.336        2.929        1.023      132.447       54.725        0.171      342.902       18.635      864.585
10/21/2013  12:32:00      111.865       47.602       70.274       74.199       72.095       47.288     5505.470     5197.752     2236.161        1.633        0.647      121.572       19.090        0.025      343.092       18.959      864.586
10/21/2013  12:33:00      111.943        6.781       37.713       71.252       96.927       57.052     5076.814     9394.773     3254.937        1.586        0.886      112.148       45.431        0.164      342.960       18.735      864.552
10/21/2013  12:34:00      160.425        1.396       56.869      101.123       71.290       51.308    10225.803     5082.221     2632.533        2.345        0.897      160.431       56.155        0.123      343.035       18.861      864.537
10/21/2013  12:35:00      140.742      -72.469        0.650       82.100       76.462       46.485     6740.376     5846.456     2160.849        1.990        0.737      158.303       33.494        0.045      342.809       18.477      864.529
10/21/2013  12:36:00       25.792       26.172       40.367       41.247       21.618       20.015     1701.345      467.349      400.610        0.277        0.128       36.745       17.787        0.234      343.131       19.026      864.502
10/21/2013  12:37:00       84.992       53.741       46.315       70.411       52.267       50.534     4957.674     2731.831     2553.687        1.125        0.512      100.557       39.751        0.156      343.029       18.852      864.483
10/21/2013  12:38:00       29.952       56.137       77.033       45.016       58.371       49.023     2026.413     3407.144     2403.281        0.891        0.392       63.627       46.595        0.536      343.096       18.967      864.455
10/21/2013  12:39:00       42.409       45.184       52.444       66.234       52.714       44.010     4386.936     2778.757     1936.923        0.785        0.455       61.969       40.478        0.427      343.381       19.452      864.432
10/21/2013  12:40:00       87.796       75.334       87.678       80.147       68.917       71.793     6423.620     4749.592     5154.214        1.870        0.816      115.687       59.410        0.264      343.361       19.416      864.410
10/21/2013  12:41:00       31.195       59.168       42.590       48.234       48.114       48.878     2326.501     2314.947     2389.104        0.666        0.352       66.888       27.150        0.165      343.515       19.681      864.399
10/21/2013  12:42:00       46.915       78.303       71.044       97.935       71.504       53.695     9591.168     5112.800     2883.118        1.548        0.879       91.282       52.387        0.329      343.620       19.859      864.386
10/21/2013  12:43:00       65.325       75.947        9.758       57.103       38.668       40.533     3260.723     1495.248     1642.906        0.826        0.320      100.177       16.638        0.028      343.226       19.189      864.369
10/21/2013  12:44:00       47.764       51.870       12.109       53.781       36.156       31.288     2892.384     1307.256      978.909        0.515        0.259       70.512       14.587        0.043      343.335       19.373      864.363
10/21/2013  12:45:00      132.657       94.439       71.329       70.168       62.171       51.972     4923.492     3865.223     2701.084        2.155        0.574      162.839       32.764        0.040      343.633       19.879      864.348
10/21/2013  12:46:00       54.831       71.489       68.912       45.576       47.133       35.656     2077.134     2221.501     1271.318        0.922        0.278       90.095       30.003        0.111      343.415       19.511      864.322
10/21/2013  12:47:00      117.176       35.248       57.124       71.467       55.180       46.067     5107.492     3044.846     2122.200        1.425        0.514      122.363       39.867        0.106      343.233       19.201      864.299
10/21/2013  12:48:00      131.495       70.801       19.268       77.789       68.429       50.194     6051.206     4682.549     2519.482        1.796        0.663      149.345       24.560        0.027      343.272       19.266      864.271
10/21/2013  12:49:00      112.563       74.278       20.031      115.166       70.760       48.147    13263.110     5007.036     2318.144        1.959        1.029      134.861       45.848        0.116      343.459       19.584      864.252
10/21/2013  12:50:00      188.340      113.383       19.937       83.431       59.931       52.215     6960.743     3591.696     2726.392        3.100        0.664      219.836       32.794        0.022      343.241       19.211      864.235
10/21/2013  12:51:00       71.862       66.945       42.517       60.590       30.112       30.361     3671.162      906.733      921.777        0.848        0.275       98.213       29.315        0.089      343.461       19.589      864.223
10/21/2013  12:52:00       84.460     -104.190        2.209       73.385       96.051       46.689     5385.365     9225.745     2179.827        1.739        0.840      134.123       54.326        0.164      343.553       19.744      864.204
10/21/2013  12:53:00      168.831     -165.181      -26.732       83.655      111.410       47.722     6998.240    12412.227     2277.366        3.909        1.084      236.196       55.900        0.056      343.328       19.360      864.174
10/21/2013  12:54:00      132.924     -139.948       -3.864       66.879      100.734       43.977     4472.791    10147.249     1933.968        2.691        0.828      193.014       51.832        0.072      343.160       19.073      864.172
10/21/2013  12:55:00       56.821     -176.792      -17.140       64.244       58.200       30.462     4127.240     3387.248      927.914        2.161        0.422      185.699       20.068        0.012      343.256       19.238      864.157
10/21/2013  12:56:00       36.287     -107.947      -16.281       81.137       48.576       30.741     6583.149     2359.594      945.001        1.156        0.494      113.882       39.658        0.121      343.453       19.575      864.128
10/21/2013  12:57:00      -24.824      -16.883       12.331       26.969       36.915       19.890      727.308     1362.753      395.608        0.177        0.124       30.021       21.476        0.512      343.891       20.323      864.116
10/21/2013  12:58:00       44.826      -79.140        1.273       42.704       37.142       24.022     1823.617     1379.559      577.034        0.603        0.189       90.953       14.186        0.024      343.493       19.643      864.094
10/21/2013  12:59:00       51.333       49.928       31.650       85.047       61.346       54.366     7232.932     3763.380     2955.668        1.004        0.698       71.609       27.751        0.150      343.877       20.298      864.068
10/21/2013  13:00:00      116.772       71.468       49.937       87.263       70.795       61.812     7614.825     5011.994     3820.744        1.884        0.822      136.906       51.418        0.141      343.516       19.682      864.060
10/21/2013  13:01:00      111.257       88.131       18.824       64.385       50.851       47.252     4145.460     2585.804     2232.729        1.473        0.448      141.934       27.968        0.039      343.411       19.503      864.032
10/21/2013  13:02:00       72.425      -13.233       35.333       84.110       86.959       40.951     7074.478     7561.933     1676.946        1.149        0.816       73.624       45.604        0.384      343.858       20.264      864.009
10/21/2013  13:03:00      140.147     -179.983      -14.003       58.839       66.507       43.093     3461.985     4423.220     1857.044        3.098        0.487      228.112       42.074        0.034      343.207       19.152      863.993
10/21/2013  13:04:00       17.699      -92.690      -17.204       39.155       28.286       22.399     1533.126      800.078      501.700        0.602        0.142       94.365       12.029        0.016      343.221       19.180      863.974
10/21/2013  13:05:00       27.155      -29.858       28.635       32.569       65.640       37.380     1060.720     4308.568     1397.277        0.461        0.338       40.360       41.846        1.075      343.670       19.945      863.948
10/21/2013  13:06:00       67.548       -2.932        9.791       58.366       37.400       44.979     3406.574     1398.779     2023.083        0.575        0.341       67.612       27.621        0.167      343.610       19.842      863.929
10/21/2013  13:07:00       21.706       13.362       24.650       35.763       44.266       29.353     1278.990     1959.442      861.620        0.268        0.205       25.489       11.945        0.220      344.071       20.629      863.909
10/21/2013  13:08:00      142.337      118.308       69.361      108.467       77.965       73.553    11765.155     6078.482     5409.990        3.116        1.163      185.085       59.398        0.103      343.986       20.483      863.885
10/21/2013  13:09:00      179.726       81.463       34.533      102.059       79.527       62.025    10415.984     6324.489     3847.139        3.036        1.029      197.326       53.132        0.073      343.719       20.028      863.879
10/21/2013  13:10:00       92.510       81.346       72.886       70.172       67.040       57.340     4924.123     4494.426     3287.861        1.659        0.635      123.188       32.716        0.071      343.900       20.337      863.868
10/21/2013  13:11:00       90.047       57.703       83.035       82.010       62.574       39.434     6725.616     3915.562     1555.019        1.526        0.610      106.949       30.261        0.080      343.719       20.028      863.860
10/21/2013  13:12:00       76.500      -17.122       55.628       88.662      104.663       56.515     7860.962    10954.376     3193.937        1.562        1.100       78.392       75.243        0.921      343.867       20.280      863.843
10/21/2013  13:13:00       48.682      -27.173       24.559       66.892       67.887       51.726     4474.522     4608.637     2675.603        0.773        0.588       55.752       32.697        0.344      343.980       20.474      863.837
10/21/2013  13:14:00       68.992       59.583       19.665       48.021       39.538       33.116     2306.051     1563.248     1096.639        0.683        0.248       91.160       21.135        0.054      343.741       20.067      863.813
10/21/2013  13:15:00       49.992       15.380        7.765       38.133       34.795       25.496     1454.096     1210.715      650.043        0.305        0.166       52.304       19.454        0.138      343.888       20.317      863.798
10/21/2013  13:16:00       47.678       75.375        2.204       46.013       65.685       33.343     2117.168     4314.464     1111.771        0.775        0.377       89.189       36.763        0.170      343.513       19.679      863.772
10/21/2013  13:17:00       46.960       66.061       -0.141       54.566       38.137       37.713     2977.427     1454.442     1422.254        0.621        0.293       81.051       24.572        0.092      343.629       19.876      863.742
10/21/2013  13:18:00       38.893       40.238       34.262       66.478       47.409       39.671     4419.316     2247.621     1573.803        0.627        0.412       55.962       19.414        0.120      344.111       20.699      863.730
10/21/2013  13:19:00       71.742      -10.068       48.022       83.366      147.841       64.639     6949.877    21857.039     4178.183        2.026        1.649       72.446       55.917        0.596      343.942       20.407      863.694
10/21/2013  13:20:00      206.938      117.885      124.327      154.751      145.301       96.599    23947.874    21112.366     9331.314        6.328        2.720      238.160       96.754        0.165      343.918       20.365      863.646
10/21/2013  13:21:00       35.370       25.541       62.408       72.784       62.742       38.241     5297.535     3936.536     1462.367        0.825        0.535       43.628       42.366        0.943      344.159       20.780      863.668
10/21/2013  13:22:00       31.781      131.363      133.720       81.245       80.482       73.303     6600.800     6477.279     5373.341        2.730        0.923      135.153       70.323        0.271      343.858       20.265      863.659
10/21/2013  13:23:00       33.022      111.385      121.051       59.605       72.549       56.955     3552.741     5263.312     3243.867        2.010        0.603      116.177       57.009        0.241      343.697       19.989      863.641
10/21/2013  13:24:00       75.124       69.380       70.727       55.951       47.927       32.350     3130.521     2297.021     1046.517        1.097        0.324      102.260       31.251        0.093      343.651       19.912      863.641
10/21/2013  13:25:00       55.965       23.249        1.138       88.188       38.817       23.719     7777.111     1506.782      562.605        0.676        0.492       60.602       24.491        0.163      343.492       19.641      863.617
10/21/2013  13:26:00       31.828      -54.639       -7.256       50.639       48.287       22.274     2564.327     2331.678      496.145        0.472        0.270       63.233       22.062        0.122      343.828       20.215      863.597
10/21/2013  13:27:00       44.877        5.031       35.705       38.101       34.941       27.493     1451.677     1220.885      755.879        0.337        0.171       45.158       24.119        0.285      344.135       20.739      863.595
10/21/2013  13:28:00       97.786      -95.097        5.064       84.177      117.584       42.320     7085.791    13826.084     1790.948        2.066        1.135      136.402       65.839        0.233      344.039       20.573      863.576
10/21/2013  13:29:00       80.459      -76.869        2.855       52.729      109.503       40.969     2780.365    11990.983     1678.446        1.442        0.822      111.277       38.814        0.122      343.867       20.280      863.567
10/21/2013  13:30:00       90.151       39.294       12.189       62.489       59.687       52.728     3904.934     3562.517     2780.266        1.003        0.512       98.343       31.121        0.100      344.212       20.870      863.554
10/21/2013  13:31:00      120.533       28.398       65.595       99.966       84.430       54.788     9993.300     7128.452     3001.691        1.988        1.006      123.833       54.005        0.190      344.030       20.557      863.524
10/21/2013  13:32:00       24.305       53.456       47.489       66.779       55.052       67.894     4459.472     3030.748     4609.551        0.890        0.605       58.722       28.046        0.228      344.336       21.081      863.506
10/21/2013  13:33:00      218.592      110.081       31.051       91.422       50.882       51.695     8358.008     2588.942     2672.387        3.724        0.681      244.745       24.536        0.010      343.946       20.413      863.510
10/21/2013  13:34:00      144.270        5.672        1.553      112.299       89.454       58.082    12611.173     8002.066     3373.535        2.241        1.199      144.381       44.472        0.095      343.830       20.217      863.486
10/21/2013  13:35:00       34.018        5.889       30.958       63.051       88.007       40.264     3975.434     7745.283     1621.222        0.774        0.667       34.524       23.138        0.449      344.309       21.036      863.457
10/21/2013  13:36:00       63.229       77.861       -1.615       85.068       79.542       52.191     7236.484     6326.947     2723.854        1.317        0.814      100.301       40.972        0.167      344.156       20.774      863.464
10/21/2013  13:37:00       65.603      121.287      108.573       90.448       64.587       70.875     8180.782     4171.506     5023.198        2.409        0.869      137.893       68.940        0.250      344.169       20.795      863.457
10/21/2013  13:38:00       52.548       96.021       51.675       52.674       67.799       53.772     2774.557     4596.699     2891.396        1.246        0.513      109.459       32.321        0.087      343.917       20.367      863.440
10/21/2013  13:39:00       83.658       95.298        3.149      102.785       60.303       53.213    10564.810     3636.396     2831.593        1.656        0.852      126.808       45.652        0.130      343.890       20.320      863.434
10/21/2013  13:40:00      -15.152      110.739      -20.518       43.069       20.842       15.948     1854.973      434.403      254.349        0.773        0.127      111.771       12.822        0.013      343.700       19.996      863.404
10/21/2013  13:41:00       72.572       43.601       13.427       48.947       40.140       34.496     2395.786     1611.245     1189.950        0.627        0.260       84.663       18.879        0.050      344.022       20.546      863.381
10/21/2013  13:42:00      134.946       40.523       55.182       86.243       63.372       56.241     7437.825     4015.986     3163.013        1.875        0.731      140.899       39.959        0.080      344.224       20.890      863.356
10/21/2013  13:43:00      103.967       45.690       76.023       97.620      102.179       58.286     9529.617    10440.619     3397.279        2.102        1.168      113.563       54.314        0.229      344.262       20.954      863.342
10/21/2013  13:44:00       47.836       -8.213       48.345       75.241      103.547       64.990     5661.263    10722.081     4223.726        1.265        1.030       48.536       62.892        1.679      344.542       21.434      863.324
10/21/2013  13:45:00       77.734      120.122      116.681       94.431       75.109       69.322     8917.149     5641.305     4805.543        2.672        0.968      143.080       60.751        0.180      344.464       21.300      863.322
10/21/2013  13:46:00      100.664       98.136      139.948       94.969      107.459       91.853     9019.160    11547.506     8437.016        3.417        1.450      140.584       89.140        0.402      344.138       20.741      863.347
10/21/2013  13:47:00       35.684      -20.851       41.925       74.564       96.943       40.028     5559.845     9397.947     1602.233        1.001        0.828       41.330       38.045        0.847      344.325       21.064      863.334
10/21/2013  13:48:00       34.268        2.791       37.907       38.237       67.768       36.335     1462.067     4592.553     1320.201        0.500        0.369       34.381       39.837        1.343      344.625       21.577      863.316
10/21/2013  13:49:00      149.617     -126.683       30.932       91.536      106.540       61.728     8378.783    11350.747     3810.344        3.146        1.177      196.046       45.576        0.054      344.295       21.010      863.298
10/21/2013  13:50:00       93.310       40.067       75.273       84.903      121.994       66.235     7208.476    14882.515     4387.133        2.122        1.324      101.549       78.592        0.599      344.192       20.836      863.306
10/21/2013  13:51:00      178.935      164.862      110.147       93.284       81.396       78.016     8701.827     6625.372     6086.530        4.637        1.071      243.305       50.018        0.042      343.897       20.330      863.271
10/21/2013  13:52:00       59.512       35.549       58.378      104.903       74.980       55.626    11004.538     5621.972     3094.281        1.396        0.986       69.321       42.189        0.370      344.366       21.134      863.255
10/21/2013  13:53:00       23.166       72.284      102.377       55.029       72.598       43.257     3028.168     5270.445     1871.129        1.320        0.508       75.906       44.550        0.344      344.543       21.436      863.261
10/21/2013  13:54:00       84.264       27.989       51.576       58.980      109.315       57.878     3478.623    11949.785     3349.875        1.466        0.939       88.791       72.743        0.671      344.029       20.557      863.246
10/21/2013  13:55:00       87.167       65.739      104.965      101.428       65.949       63.087    10287.590     4349.238     3979.931        2.077        0.931      109.177       56.797        0.271      344.100       20.677      863.229
10/21/2013  13:56:00      100.850       66.300       30.828       48.141       41.163       53.630     2317.587     1694.415     2876.156        1.120        0.344      120.692       30.730        0.065      343.720       20.030      863.216
10/21/2013  13:57:00        5.318      -65.973       -3.432       40.053       37.670       21.901     1604.234     1419.023      479.669        0.395        0.175       66.187       18.902        0.082      344.097       20.673      863.196
10/21/2013  13:58:00       46.719      -41.351       28.517       70.571       85.972       46.590     4980.239     7391.127     2170.618        0.962        0.727       62.391       58.093        0.867      344.248       20.932      863.179
10/21/2013  13:59:00       43.342       15.835       48.395      118.062       56.019       51.498    13938.752     3138.084     2652.003        1.210        0.986       46.144       46.882        1.032      344.420       21.225      863.158
10/21/2013  14:00:00       83.093      136.416      152.091      111.878       99.973       71.278    12516.781     9994.587     5080.578        3.811        1.380      159.730       74.919        0.220      344.271       20.969      863.106
10/21/2013  14:01:00      146.537      121.757       84.174       77.025       68.707       78.810     5932.783     4720.640     6210.996        3.012        0.843      190.520       51.765        0.074      344.040       20.574      863.111
10/21/2013  14:02:00      169.914       71.306       70.173      133.015       83.767       71.981    17692.940     7016.936     5181.301        3.438        1.495      184.269       57.835        0.099      344.139       20.744      863.101
10/21/2013  14:03:00      104.458       54.608       69.139       54.500       73.302       65.688     2970.228     5373.160     4314.911        1.566        0.633      117.870       58.218        0.244      344.212       20.870      863.099
10/21/2013  14:04:00       90.349       35.062       21.916       53.055       44.746       50.414     2814.862     2002.220     2541.567        0.861        0.368       96.914       30.374        0.098      344.096       20.672      863.080
10/21/2013  14:05:00       17.547     -123.481      -18.832       58.741       51.363       29.016     3450.479     2638.134      841.953        1.142        0.347      124.722       20.358        0.027      344.218       20.881      863.049
10/21/2013  14:06:00       43.207      -93.160      -11.449       29.399       23.774       25.038      864.301      565.217      626.884        0.637        0.103      102.692       13.109        0.016      343.888       20.317      863.042
10/21/2013  14:07:00       32.929      -52.180       -6.144       19.855       36.033       26.750      394.221     1298.401      715.568        0.313        0.120       61.702       26.512        0.185      343.961       20.443      863.033
10/21/2013  14:08:00        7.040      -51.036       -6.836       32.451       52.522       25.933     1053.045     2758.532      672.543        0.359        0.224       51.520       10.354        0.040      344.175       20.809      863.024
10/21/2013  14:09:00       79.227      -74.386       13.212       40.351       52.688       31.726     1628.238     2775.980     1006.561        0.870        0.271      108.675       33.264        0.094      344.093       20.668      863.012
10/21/2013  14:10:00       47.603       43.187        8.173       50.732       36.242       29.072     2573.712     1313.481      845.167        0.446        0.237       64.274       15.694        0.060      344.073       20.635      863.006
10/21/2013  14:11:00        3.852        8.753       53.044       44.981       55.273       38.622     2023.281     3055.059     1491.679        0.474        0.329        9.564       39.184       16.787      344.416       21.219      862.998
10/21/2013  14:12:00       24.217       43.110       59.537       51.230       47.345       29.527     2624.508     2241.509      871.844        0.586        0.287       49.447       27.405        0.307      344.481       21.330      863.003
10/21/2013  14:13:00       50.948      130.012      114.869       66.706       64.291       60.462     4449.662     4133.296     3655.648        2.246        0.612      139.638       53.502        0.147      344.247       20.928      862.993
10/21/2013  14:14:00      134.587      115.417       63.381       84.872       42.670       55.559     7203.206     1820.693     3086.759        2.378        0.606      177.299       41.806        0.056      344.120       20.712      862.987
10/21/2013  14:15:00       95.702       51.505       55.443       67.843       50.918       50.822     4602.684     2592.600     2582.891        1.233        0.489      108.681       37.705        0.120      344.454       21.285      862.980
10/21/2013  14:16:00      189.695      116.130       20.917       64.611       64.606       37.464     4174.534     4173.947     1403.571        2.983        0.488      222.419       29.638        0.018      344.059       20.608      862.976
10/21/2013  14:17:00       97.087       81.376       36.608       55.727       37.060       39.730     3105.547     1373.457     1578.466        1.172        0.303      126.680       19.074        0.023      344.277       20.983      862.963
10/21/2013  14:18:00      116.773      102.515       79.252       96.306       66.336       62.793     9274.937     4400.427     3942.927        2.402        0.881      155.387       63.001        0.164      344.561       21.464      862.952
10/21/2013  14:19:00       74.181       98.390       93.112       79.246       64.293       60.876     6279.931     4133.627     3705.863        1.898        0.706      123.221       48.155        0.153      344.548       21.445      862.951
10/21/2013  14:20:00       92.546       48.424       68.823       84.302       57.444       51.307     7106.826     3299.827     2632.400        1.434        0.652      104.449       38.270        0.134      344.493       21.351      862.944
10/21/2013  14:21:00       55.207      -74.305       29.385       80.216      138.851       57.424     6434.644    19279.673     3297.528        1.922        1.451       92.569       83.245        0.809      344.655       21.625      862.921
10/21/2013  14:22:00       52.573      102.438      114.179       70.749       66.812       51.997     5005.370     4463.855     2703.670        1.923        0.609      115.141       47.013        0.167      344.354       21.112      862.926
10/21/2013  14:23:00       58.857        5.826       26.286       59.606       43.056       35.989     3552.912     1853.789     1295.211        0.544        0.335       59.145       25.888        0.192      344.246       20.929      862.915
10/21/2013  14:24:00       93.299       34.959        0.396       45.302       33.225       32.844     2052.238     1103.923     1078.753        0.708        0.212       99.634       19.679        0.039      344.025       20.552      862.892
10/21/2013  14:25:00      -24.937       58.348       -6.281       34.606       39.757       24.598     1197.588     1580.605      605.075        0.372        0.169       63.453       15.589        0.060      344.139       20.746      862.862
10/21/2013  14:26:00        9.001       62.146      -10.463       37.477       21.873       18.327     1404.491      478.431      335.890        0.314        0.111       62.795       12.827        0.042      344.033       20.564      862.850
10/21/2013  14:27:00      -18.942      -41.283      -13.125       33.655       66.104       19.000     1132.661     4369.696      361.011        0.405        0.293       45.422       10.279        0.051      344.292       21.006      862.836
10/21/2013  14:28:00       -9.665       33.094        6.830       39.357       47.882       26.382     1548.943     2292.708      696.000        0.289        0.227       34.477       13.526        0.154      344.678       21.667      862.818
10/21/2013  14:29:00      -42.100       40.637      -20.354       47.472       41.572       29.266     2253.544     1728.206      856.486        0.434        0.242       58.513       10.008        0.029      344.463       21.298      862.800
10/21/2013  14:30:00       -6.989       74.078      -14.165       38.025       29.317       20.469     1445.920      859.459      418.974        0.423        0.136       74.407       16.214        0.047      344.144       20.755      862.781
10/21/2013  14:31:00      -16.352      -17.556       -1.429       48.663       27.076       16.242     2368.100      733.118      263.812        0.197        0.168       23.992        7.594        0.100      344.503       21.367      862.767
10/21/2013  14:32:00     -105.959      -37.795       -6.511       65.528       41.144       27.237     4293.974     1692.814      741.866        0.971        0.336      112.498       18.540        0.027      344.567       21.477      862.757
10/21/2013  14:33:00      -94.485      -86.949      -12.468       48.782       34.175       21.346     2379.710     1167.901      455.650        1.032        0.200      128.404       18.868        0.022      344.303       21.025      862.738
10/21/2013  14:34:00      -67.762      -66.878        5.237       63.486       30.373       27.856     4030.484      922.532      775.975        0.741        0.286       95.207       28.392        0.089      344.487       21.340      862.727
10/21/2013  14:35:00      -11.740      -49.667       20.044       70.580       80.097       52.377     4981.484     6415.576     2743.313        0.857        0.707       51.036       49.636        0.946      344.649       21.618      862.720
10/21/2013  14:36:00      -74.621     -101.612      -16.036       49.291       58.891       25.421     2429.630     3468.143      646.222        1.135        0.327      126.068       22.241        0.031      344.234       20.907      862.710
10/21/2013  14:37:00       31.889      -66.948       -4.508       21.047       28.731       19.355      442.973      825.467      374.608        0.358        0.082       74.155       15.248        0.042      344.205       20.857      862.713
10/21/2013  14:38:00       13.013      -82.285       -8.793       24.455       27.118       15.345      598.037      735.394      235.482        0.429        0.078       83.308       13.922        0.028      344.370       21.140      862.710
10/21/2013  14:39:00      -44.542      -35.676       -8.492       19.873       28.933       16.556      394.934      837.122      274.115        0.242        0.075       57.068        7.899        0.019      344.473       21.316      862.700
10/21/2013  14:40:00        5.213       -8.403        6.319       26.202       20.703       25.698      686.570      428.623      660.396        0.096        0.089        9.889       16.727        2.861      345.061       22.323      862.695
10/21/2013  14:41:00        4.591       31.091       17.995       26.124       33.418       30.993      682.441     1116.792      960.574        0.204        0.138       31.428       13.448        0.183      345.018       22.250      862.690
10/21/2013  14:42:00       20.587        5.571       35.266       30.541       66.740       40.451      932.783     4454.230     1636.287        0.436        0.351       21.328       42.291        3.932      344.805       21.884      862.671
10/21/2013  14:43:00        8.232       37.056       52.039       29.568       54.505       41.705      874.263     2970.750     1739.318        0.487        0.279       37.959       43.820        1.333      344.878       22.008      862.666
10/21/2013  14:44:00       15.397        9.684       55.876       41.990       76.010       48.280     1763.172     5777.488     2330.923        0.666        0.494       18.189       53.755        8.734      344.917       22.076      862.659
10/21/2013  14:45:00      122.898     -135.647        5.701       64.396       55.525       49.962     4146.908     3083.023     2496.198        2.163        0.486      183.041       34.422        0.035      344.594       21.522      862.638
10/21/2013  14:46:00      -10.044       -6.292       17.229       25.110       34.449       19.219      630.520     1186.745      369.352        0.131        0.109       11.852        8.312        0.492      345.020       22.253      862.647
10/21/2013  14:47:00       63.378       43.278       48.108       77.355       54.023       37.002     5983.819     2918.538     1369.166        0.924        0.514       76.745       27.266        0.126      344.883       22.019      862.655
10/21/2013  14:48:00      217.928      119.426       71.693       96.656      101.412       61.308     9342.359    10284.305     3758.664        4.514        1.169      248.506       32.706        0.017      344.507       21.372      862.636
10/21/2013  14:49:00      206.370       64.538       77.709      113.175       89.492       71.637    12808.680     8008.832     5131.813        3.937        1.297      216.226       58.146        0.072      344.705       21.710      862.638
10/21/2013  14:50:00       93.222      -27.284        7.024       73.473       82.024       40.998     5398.240     6727.961     1680.819        1.164        0.690       97.133       32.337        0.111      344.873       22.000      862.647
10/21/2013  14:51:00      143.441     -228.461       -3.848      111.667      136.854       71.161    12469.566    18728.916     5063.889        5.452        1.813      269.758       78.969        0.086      344.576       21.491      862.637
10/21/2013  14:52:00      110.092     -146.237       28.029       89.146      138.409       72.843     7947.046    19157.122     5306.088        3.335        1.621      183.045       85.198        0.217      344.503       21.366      862.654
10/21/2013  14:53:00      -22.159     -151.565        0.690       85.677      127.453       58.454     7340.546    16244.207     3416.864        2.523        1.350      153.176       62.607        0.167      344.588       21.511      862.635
10/21/2013  14:54:00       41.457       68.330       96.088       84.646       85.385       65.615     7164.899     7290.541     4305.359        1.719        0.938       79.923       53.604        0.450      344.780       21.842      862.653
10/21/2013  14:55:00       92.068       43.844       56.701       90.556       96.995       56.575     8200.316     9408.103     3200.753        1.721        1.040      101.975       58.190        0.326      344.584       21.505      862.663
10/21/2013  14:56:00       31.554      -31.332        5.951       51.456       43.889       40.477     2647.673     1926.248     1638.391        0.411        0.311       44.467       13.902        0.098      344.509       21.379      862.642
10/21/2013  14:57:00       56.681       57.723       13.131       67.480       38.132       44.723     4553.544     1454.050     2000.143        0.736        0.400       80.899       20.838        0.066      344.506       21.372      862.633
10/21/2013  14:58:00       46.792       44.595        7.778       39.225       36.683       25.406     1538.603     1345.667      645.461        0.388        0.176       64.639       21.795        0.114      344.420       21.225      862.624
10/21/2013  14:59:00      -67.866      109.649      -29.588       48.690       48.414       27.057     2370.723     2343.941      732.054        1.147        0.272      128.953       28.668        0.049      344.511       21.381      862.620
10/21/2013  15:00:00      -64.280       72.369       -5.507       44.694       47.092       24.954     1997.540     2217.671      622.692        0.712        0.242       96.795       23.432        0.059      344.659       21.634      862.598
10/21/2013  15:01:00      -54.909      197.491      -33.838       44.325       41.503       23.793     1964.684     1722.537      566.089        2.371        0.213      204.983       21.897        0.011      344.434       21.249      862.599
10/21/2013  15:02:00       59.542       81.893      -21.533       47.721       60.913       21.493     2277.323     3710.347      461.967        0.858        0.322      101.251       22.427        0.049      344.395       21.184      862.611
10/21/2013  15:03:00       42.719       29.353        2.774       32.537       32.674       21.043     1058.668     1067.593      442.807        0.263        0.128       51.832       11.635        0.050      344.404       21.198      862.601
10/21/2013  15:04:00       56.490        2.294       -3.244       34.348       41.829       26.609     1179.766     1749.696      708.025        0.342        0.182       56.537       27.753        0.241      344.432       21.248      862.580
10/21/2013  15:05:00        0.108      -19.129       28.265       14.296       25.063       15.958      204.364      628.156      254.658        0.113        0.054       19.130       10.807        0.319      344.934       22.106      862.587
10/21/2013  15:06:00       36.879        8.793       40.522       31.859       27.032       20.292     1014.993      730.716      411.769        0.262        0.108       37.913        5.686        0.022      344.772       21.828      862.599
10/21/2013  15:07:00       85.736     -113.758       -7.296       55.052      100.548       36.763     3030.743    10109.967     1351.532        1.742        0.725      142.448       50.157        0.124      344.627       21.579      862.594
10/21/2013  15:08:00       65.746     -162.427        9.162       95.394      104.093       54.901     9099.940    10835.393     3014.138        2.687        1.147      175.229       53.389        0.093      344.864       21.981      862.569
10/21/2013  15:09:00       60.316       43.299       38.216       78.549       83.245       58.987     6169.872     6929.764     3479.492        1.177        0.829       74.249       51.445        0.480      345.052       22.308      862.584
10/21/2013  15:10:00       62.473        1.333       44.748       72.192       84.375       40.345     5211.714     7119.082     1627.709        0.993        0.698       62.488       23.131        0.137      345.117       22.419      862.597
10/21/2013  15:11:00       38.891      -36.368       22.648       51.965      100.963       56.831     2700.365    10193.549     3229.808        0.973        0.806       53.246       69.469        1.702      345.027       22.264      862.598
10/21/2013  15:12:00       40.495        8.014       48.223       61.947       69.246       52.254     3837.445     4795.011     2730.520        0.769        0.568       41.281       53.093        1.654      344.857       21.974      862.583
10/21/2013  15:13:00       59.866       -8.996       52.442       40.114       47.826       47.429     1609.157     2287.332     2249.494        0.628        0.307       60.539       36.820        0.370      344.653       21.625      862.580
10/21/2013  15:14:00      107.709        5.980       76.823       72.684       88.568       58.051     5282.989     7844.229     3369.866        1.702        0.825      107.875       61.702        0.327      344.743       21.777      862.574
10/21/2013  15:15:00      127.692      -48.013       42.637       87.565      102.052       73.680     7667.653    10414.549     5428.750        2.197        1.176      136.420       79.419        0.339      344.841       21.946      862.562
10/21/2013  15:16:00      119.661       26.762       70.730      113.493      106.430       69.831    12880.630    11327.425     4876.397        2.456        1.454      122.617       81.341        0.440      344.912       22.065      862.568
10/21/2013  15:17:00       74.549      109.811      127.492       72.936       73.733       57.434     5319.621     5436.603     3298.681        2.396        0.703      132.725       47.979        0.131      344.625       21.575      862.586
10/21/2013  15:18:00       94.991       37.812       80.819       71.611       77.844       55.001     5128.096     6059.687     3025.164        1.560        0.711      102.240       61.778        0.365      344.532       21.417      862.594
10/21/2013  15:19:00      112.469      -36.007       28.481       33.229       38.942       41.874     1104.178     1516.473     1753.453        0.956        0.219      118.092       32.910        0.078      344.602       21.538      862.590
10/21/2013  15:20:00       35.138      -39.076       15.706       46.831       40.172       32.688     2193.146     1613.808     1068.520        0.394        0.244       52.551       27.283        0.270      344.878       22.009      862.576
10/21/2013  15:21:00       24.354      -29.558       -1.006       27.658       28.095       20.541      764.950      789.301      421.945        0.172        0.099       38.299       14.254        0.139      345.027       22.264      862.570
10/21/2013  15:22:00       29.832      -19.289       36.835       40.705       52.992       43.811     1656.871     2808.117     1919.396        0.450        0.319       35.525       38.844        1.196      344.969       22.164      862.564
10/21/2013  15:23:00       27.028      -57.608       14.681       31.487       56.684       31.522      991.452     3213.052      993.636        0.473        0.260       63.633       30.837        0.235      345.002       22.221      862.553
10/21/2013  15:24:00       71.392      -71.518       17.177       58.271       74.069       43.416     3395.473     5486.222     1884.968        1.063        0.538      101.052       43.517        0.185      344.916       22.074      862.540
10/21/2013  15:25:00       95.914      -64.207       22.971       78.563       96.719       58.830     6172.220     9354.522     3460.919        1.642        0.949      115.421       72.671        0.396      344.729       21.754      862.541
10/21/2013  15:26:00       99.967     -114.723      -14.238       38.219       56.825       20.096     1460.690     3229.137      403.864        1.422        0.255      152.167       11.977        0.006      344.724       21.745      862.542
10/21/2013  15:27:00       33.046       19.036       25.421       31.853       22.802       19.476     1014.625      519.943      379.308        0.201        0.096       38.136        5.522        0.021      344.930       22.097      862.536
10/21/2013  15:28:00      -17.813       -1.308        5.197       24.817        9.524       14.277      615.860       90.702      203.842        0.063        0.046       17.861        7.833        0.192      345.206       22.571      862.524
10/21/2013  15:29:00       -5.855       -7.464        8.134       20.006       21.176       19.657      400.244      448.405      386.408        0.070        0.062        9.486       13.737        2.097      345.361       22.835      862.511
10/21/2013  15:30:00      -41.487       -6.679       18.212       40.972       38.371       21.871     1678.689     1472.315      478.360        0.286        0.181       42.022       20.354        0.235      345.259       22.661      862.499
10/21/2013  15:31:00      -41.156        5.249       17.581       47.127       31.949       27.164     2220.980     1020.732      737.884        0.300        0.199       41.490       21.482        0.268      345.217       22.590      862.496
10/21/2013  15:32:00       -4.621       34.118       14.415       22.863       24.713       20.802      522.730      610.725      432.723        0.148        0.078       34.430       12.212        0.126      345.094       22.379      862.509
10/21/2013  15:33:00       12.071       35.185      -10.432       25.425       37.331       19.932      646.409     1393.580      397.265        0.196        0.122       37.198       12.063        0.105      345.032       22.274      862.524
10/21/2013  15:34:00       61.432       13.654       14.304       66.907       51.361       34.441     4476.579     2637.995     1186.176        0.623        0.415       62.931       29.539        0.220      345.033       22.275      862.539
10/21/2013  15:35:00      188.143       84.191       31.995      118.233       83.091       64.010    13979.093     6904.158     4097.266        3.424        1.249      206.121       35.397        0.029      344.941       22.114      862.541
10/21/2013  15:36:00      275.158      144.868       25.879       99.596       83.935       67.519     9919.421     7045.127     4558.867        5.944        1.076      310.964       42.255        0.018      344.713       21.723      862.526
10/21/2013  15:37:00      179.548       88.441       69.745       80.241       72.782       59.515     6438.578     5297.151     3542.002        3.010        0.764      200.149       49.366        0.061      344.791       21.857      862.544
10/21/2013  15:38:00       10.596       28.388       44.668       54.813       39.072       39.321     3004.503     1526.660     1546.148        0.449        0.304       30.301       16.707        0.304      344.961       22.152      862.557
10/21/2013  15:39:00       74.776       50.193        4.702       51.923       41.841       32.530     2696.003     1750.653     1058.177        0.682        0.275       90.059       18.372        0.042      344.951       22.135      862.565
10/21/2013  15:40:00       19.108       36.101       74.334       52.339       60.925       38.631     2739.359     3711.822     1492.369        0.757        0.397       40.846       33.588        0.676      345.109       22.405      862.559
10/21/2013  15:41:00      121.865       86.809       48.877       87.306       62.144       64.762     7622.296     3861.895     4194.158        2.022        0.784      149.622       59.857        0.160      344.873       22.000      862.555
10/21/2013  15:42:00      185.576      125.188       52.290       80.498       60.981       48.296     6479.890     3718.681     2332.487        3.269        0.627      223.854       23.740        0.011      344.667       21.645      862.555
10/21/2013  15:43:00      110.406       59.099       36.904       55.211       36.386       38.417     3048.277     1323.948     1475.835        1.145        0.292      125.228       22.678        0.033      344.766       21.818      862.557
10/21/2013  15:44:00      140.224       81.570       49.496      104.626       84.029       79.214    10946.635     7060.843     6274.806        2.652        1.214      162.224       64.890        0.160      344.739       21.770      862.551
10/21/2013  15:45:00       79.873       60.653       81.470      105.145       76.178       64.767    11055.514     5803.056     4194.711        1.887        1.053      100.292       58.446        0.340      344.855       21.969      862.531
10/21/2013  15:46:00       -9.433       88.198       -9.047       59.318       62.941       39.787     3518.590     3961.533     1583.007        0.850        0.453       88.701       43.585        0.241      344.891       22.032      862.526
10/21/2013  15:47:00      -14.865       64.831       -0.129       40.736       30.808       27.411     1659.425      949.103      751.342        0.389        0.168       66.513       24.720        0.138      344.961       22.151      862.506
10/21/2013  15:48:00       39.280       65.787       -0.230       36.654       27.740       28.588     1343.508      769.489      817.248        0.440        0.147       76.622       21.607        0.080      344.822       21.913      862.515
10/21/2013  15:49:00       33.070       -8.833       12.597       39.848       45.762       31.736     1587.838     2094.193     1007.158        0.301        0.234       34.229       25.114        0.538      344.946       22.127      862.528
10/21/2013  15:50:00       25.342       52.846       81.579       74.528       86.040       65.479     5554.491     7402.897     4287.516        1.366        0.862       58.608       58.523        0.997      345.083       22.360      862.519
10/21/2013  15:51:00      101.638       98.462      117.396      106.021       78.899       78.795    11240.445     6225.020     6208.585        2.874        1.184      141.510       65.338        0.213      344.882       22.014      862.513
10/21/2013  15:52:00       83.642       69.095       66.890       76.052       62.196       59.006     5783.975     3868.327     3481.665        1.469        0.657      108.490       45.243        0.174      344.724       21.745      862.510
10/21/2013  15:53:00      112.409       70.823       63.052       86.105       56.020       54.468     7414.025     3138.269     2966.733        1.757        0.676      132.860       31.585        0.057      344.883       22.016      862.513
10/21/2013  15:54:00      155.077       72.160       46.859       91.605       66.958       60.561     8391.491     4483.419     3667.651        2.399        0.827      171.044       44.016        0.066      344.821       21.911      862.507
10/21/2013  15:55:00      166.419       88.965       28.391       54.195       58.742       43.106     2937.050     3450.612     1858.114        2.233        0.412      188.706       29.644        0.025      344.833       21.931      862.508
10/21/2013  15:56:00      156.207      108.422       37.549      101.484       83.184       46.231    10299.102     6919.569     2137.298        2.846        0.968      190.147       31.420        0.027      344.948       22.128      862.493
10/21/2013  15:57:00      254.410      146.056       23.928       89.196       67.601       66.364     7955.932     4569.886     4404.245        5.178        0.847      293.354       40.831        0.019      344.738       21.765      862.493
10/21/2013  15:58:00      166.215      126.825       24.496       71.052       54.647       46.243     5048.442     2986.262     2138.434        2.724        0.509      209.074       32.414        0.024      344.724       21.742      862.495
10/21/2013  15:59:00      153.685       50.945       31.895      101.756       65.654       40.992    10354.265     4310.394     1680.315        2.179        0.817      161.909       26.324        0.026      344.840       21.941      862.482
10/21/2013  16:00:00      127.291       84.438       32.973       39.674       38.752       33.488     1574.055     1501.691     1121.467        1.431        0.210      152.751       18.965        0.015      344.760       21.807      862.463
10/21/2013  16:01:00      107.279       10.351       20.889       50.659       51.307       34.865     2566.319     2632.363     1215.593        0.923        0.321      107.778       22.887        0.045      344.876       22.006      862.449
10/21/2013  16:02:00      108.359       86.800       61.509       63.812       44.400       45.366     4072.024     1971.375     2058.100        1.558        0.405      138.838       35.615        0.066      344.787       21.853      862.446
10/21/2013  16:03:00      125.890       81.592       42.092       51.842       37.466       54.256     2687.619     1403.706     2943.702        1.565        0.352      150.018       37.798        0.063      344.797       21.871      862.449
10/21/2013  16:04:00      113.184       56.090       68.747       81.090       68.439       51.375     6575.563     4683.866     2639.425        1.729        0.695      126.320       58.698        0.216      344.899       22.045      862.438
10/21/2013  16:05:00      178.351      105.971       53.504      101.230       64.691       67.198    10247.518     4184.911     4515.567        3.242        0.947      207.459       55.282        0.071      344.792       21.859      862.442
10/21/2013  16:06:00       98.537      105.289      100.508      103.173       85.977       70.210    10644.594     7392.063     4929.478        2.693        1.148      144.206       73.379        0.259      344.843       21.948      862.429
10/21/2013  16:07:00       55.662       54.932       89.751       55.167       51.861       47.800     3043.450     2689.586     2284.795        1.109        0.401       78.203       39.953        0.261      344.768       21.820      862.429
10/21/2013  16:08:00      147.855       58.965       52.628       77.776       68.215       56.445     6049.051     4653.220     3186.007        2.100        0.694      159.179       50.246        0.100      344.761       21.807      862.416
10/21/2013  16:09:00      146.178      100.449       47.277       84.426       52.636       55.073     7127.710     2770.523     3033.055        2.331        0.647      177.364       41.187        0.054      344.895       22.037      862.416
10/21/2013  16:10:00      224.013      129.615       39.197       98.673       70.659       63.971     9736.308     4992.728     4092.228        4.367        0.941      258.808       59.441        0.053      344.890       22.027      862.409
10/21/2013  16:11:00      241.347      135.336       28.918       69.231       51.039       52.832     4792.887     2604.929     2791.194        4.379        0.509      276.702       21.374        0.006      344.813       21.893      862.414
10/21/2013  16:12:00      241.796      168.177       47.480       94.147       79.355       71.841     8863.650     6297.197     5161.105        5.466        1.016      294.531       37.216        0.016      344.865       21.984      862.411
10/21/2013  16:13:00      275.958      110.058       43.681      135.645       89.544       64.123    18399.466     8018.139     4111.822        6.035        1.526      297.095       47.209        0.025      344.797       21.865      862.405
10/21/2013  16:14:00      183.134      138.451       72.436       85.380       84.566       86.318     7289.731     7151.420     7450.801        3.992        1.095      229.579       53.988        0.055      344.841       21.942      862.396
10/21/2013  16:15:00      158.958      185.631      165.140      119.546      106.980       75.050    14291.220    11444.672     5632.509        5.918        1.568      244.389       60.830        0.062      344.810       21.889      862.393
10/21/2013  16:16:00      203.904      179.754       93.191      119.953       86.344      106.564    14388.731     7455.330    11355.985        5.788        1.660      271.824       84.762        0.097      344.801       21.873      862.399
10/21/2013  16:17:00       13.955       55.845       57.865       50.066       57.856       50.200     2506.620     3347.371     2520.090        0.752        0.419       57.562       37.306        0.420      345.054       22.311      862.401
10/21/2013  16:18:00      179.318      104.561       50.272      113.307       58.673       59.013    12838.499     3442.512     3482.535        3.269        0.988      207.576       60.207        0.084      344.890       22.029      862.402
10/21/2013  16:19:00      163.077       97.569       71.832       91.458       83.499       70.362     8364.525     6972.043     4950.826        3.078        1.014      190.036       47.177        0.062      344.850       21.959      862.387
10/21/2013  16:20:00       95.125       81.346       35.008       66.445       45.937       45.554     4414.938     2110.252     2075.183        1.274        0.430      125.163       23.872        0.036      344.941       22.117      862.389
10/21/2013  16:21:00      135.098       47.679       69.048      107.472       87.715       62.458    11550.215     7693.943     3900.978        2.421        1.157      143.264       72.620        0.257      344.875       22.003      862.376
10/21/2013  16:22:00       52.743       55.562       78.869       84.134       68.319       65.679     7078.449     4667.442     4313.777        1.407        0.803       76.610       56.869        0.551      344.995       22.210      862.385
10/21/2013  16:23:00      108.528       92.228       67.919       97.122       56.939       60.555     9432.717     3242.016     3666.922        2.062        0.817      142.423       50.339        0.125      344.912       22.068      862.373
10/21/2013  16:24:00      161.874       70.859       28.325       86.611       56.668       54.562     7501.446     3211.210     2976.986        2.286        0.684      176.704       46.041        0.068      344.823       21.914      862.362
10/21/2013  16:25:00      213.759      119.526       35.649      114.213       80.492       67.775    13044.526     6479.031     4593.491        4.268        1.206      244.907       45.311        0.034      344.835       21.931      862.353
10/21/2013  16:26:00      270.618      115.313       76.528      167.217      112.635       88.323    27961.385    12686.604     7800.966        7.041        2.422      294.162       82.711        0.079      344.768       21.818      862.336
10/21/2013  16:27:00      193.565      102.301      108.060      152.502      107.967       90.075    23256.815    11656.769     8113.505        5.131        2.151      218.936       55.820        0.065      344.788       21.851      862.330
10/21/2013  16:28:00      186.040      125.091      104.928      145.219      101.738       95.820    21088.641    10350.651     9181.409        5.094        2.031      224.184       76.467        0.116      344.790       21.855      862.321
10/21/2013  16:29:00      149.163      137.543       60.674      117.747       85.079       64.927    13864.350     7238.446     4215.506        3.508        1.266      202.898       35.593        0.031      344.835       21.933      862.343
10/21/2013  16:30:00      186.074      172.841       17.560      127.833      103.438       72.163    16341.294    10699.362     5207.503        4.852        1.612      253.963       50.894        0.040      344.749       21.786      862.348
10/21/2013  16:31:00      204.116       97.889       48.122       89.639       80.818       76.984     8035.142     6531.625     5926.477        3.702        1.025      226.374       37.991        0.028      344.811       21.892      862.347
10/21/2013  16:32:00      202.123      123.992       10.971       93.413       92.289       65.943     8726.061     8517.182     4348.479        3.897        1.080      237.124       47.757        0.041      344.781       21.839      862.358
10/21/2013  16:33:00      183.511       88.429       41.584       90.105       82.637       81.185     8118.865     6828.849     6590.977        3.238        1.077      203.705       30.074        0.022      344.783       21.843      862.364
10/21/2013  16:34:00      126.265      126.430       82.448      119.190       73.779       74.980    14206.270     5443.284     5622.006        3.199        1.264      178.682       61.965        0.120      344.776       21.831      862.353
10/21/2013  16:35:00      257.123      131.832       39.183      131.739       97.131       84.541    17355.213     9434.389     7147.109        5.948        1.697      288.950       65.204        0.051      344.631       21.582      862.361
10/21/2013  16:36:00      131.561      100.049       27.607      122.220       89.180       62.013    14937.677     7952.994     3845.663        2.740        1.337      165.282       52.667        0.102      344.717       21.732      862.359
10/21/2013  16:37:00      219.182      134.048       35.102      137.226       86.610       85.450    18830.855     7501.378     7301.697        5.043        1.682      256.923       47.961        0.035      344.729       21.750      862.366
10/21/2013  16:38:00      271.415      165.303       61.941      137.220      104.427       92.596    18829.356    10904.946     8574.082        7.156        1.915      317.791       71.210        0.050      344.650       21.615      862.373
10/21/2013  16:39:00      286.556      188.699       55.379      159.353      124.681       87.325    25393.484    15545.458     7625.730        8.467        2.428      343.105       67.104        0.038      344.531       21.412      862.360
10/21/2013  16:40:00      364.148      232.538       69.304      129.826       88.966       88.920    16854.698     7914.922     7906.693       11.207        1.634      432.062       34.000        0.006      344.554       21.451      862.365
10/21/2013  16:41:00      266.729      185.702       31.779      146.930      112.439       99.687    21588.393    12642.614     9937.423        7.540        2.208      325.007       49.937        0.024      344.487       21.337      862.374
10/21/2013  16:42:00      203.019      124.510       52.129      143.428       91.565       89.344    20571.681     8384.235     7982.435        4.818        1.847      238.159       50.581        0.045      344.518       21.390      862.349
10/21/2013  16:43:00      335.441      181.374       37.169      133.973      124.926       82.414    17948.793    15606.624     6792.057        9.357        2.017      381.336       44.530        0.014      344.493       21.348      862.370
10/21/2013  16:44:00      182.941       81.061       52.778      145.225      106.389       73.753    21090.282    11318.592     5439.434        4.033        1.892      200.096       56.764        0.080      344.497       21.355      862.368
10/21/2013  16:45:00      253.775      149.763       83.893      143.888      106.868       97.460    20703.792    11420.760     9498.359        6.774        2.081      294.671       78.421        0.071      344.443       21.261      862.373
10/21/2013  16:46:00      212.895      117.282       56.762      146.438       98.675       65.562    21444.094     9736.683     4298.339        4.888        1.774      243.062       58.166        0.057      344.476       21.320      862.377
10/21/2013  16:47:00      162.571       64.599       36.211      107.760       74.620       56.989    11612.182     5568.073     3247.728        2.617        1.021      174.935       40.801        0.054      344.485       21.333      862.393
10/21/2013  16:48:00      267.753      139.755       43.868      138.116      103.751       74.739    19076.142    10764.242     5585.953        6.428        1.771      302.032       47.287        0.025      344.441       21.257      862.388
10/21/2013  16:49:00      182.089       87.650       37.487      136.383       81.943       61.731    18600.371     6714.604     3810.690        3.568        1.456      202.086       25.007        0.015      344.463       21.298      862.387
10/21/2013  16:50:00      293.361      152.405       23.638      102.382      101.510       70.346    10482.039    10304.184     4948.540        6.779        1.287      330.587       39.048        0.014      344.439       21.254      862.382
10/21/2013  16:51:00      210.726      126.676       21.825       90.502       88.428       57.767     8190.630     7819.551     3337.006        4.013        0.967      245.870       44.726        0.033      344.498       21.357      862.392
10/21/2013  16:52:00      173.478      166.892       19.826      158.310      112.546       98.237    25062.183    12666.562     9650.456        5.285        2.369      240.723       70.870        0.087      344.488       21.339      862.386
10/21/2013  16:53:00      419.091      259.146       60.748      148.802      124.112       91.400    22141.976    15403.829     8354.027       14.618        2.295      492.741       60.756        0.015      344.324       21.059      862.380
10/21/2013  16:54:00      304.467      186.038       69.811      153.582      114.522       85.234    23587.296    13115.224     7264.887        8.807        2.198      356.805       54.100        0.023      344.352       21.106      862.380
10/21/2013  16:55:00      186.748      120.141       45.882      134.921      108.664       68.559    18203.546    11807.778     4700.288        4.306        1.736      222.056       48.683        0.048      344.400       21.189      862.403
10/21/2013  16:56:00      205.929      121.834       26.776      108.272       93.528       72.583    11722.851     8747.443     5268.337        4.185        1.287      239.270       46.144        0.037      344.422       21.227      862.398
10/21/2013  16:57:00      202.286      124.235       61.914      132.164       98.240       76.748    17467.318     9651.178     5890.265        4.659        1.650      237.390       57.100        0.058      344.402       21.191      862.403
10/21/2013  16:58:00      226.636      134.161       87.705      145.267      103.696       69.325    21102.391    10752.911     4805.891        5.685        1.833      263.369       64.447        0.060      344.396       21.181      862.398
10/21/2013  16:59:00      287.191      179.794       59.174      148.606      127.037       65.173    22083.842    16138.482     4247.461        8.038        2.123      338.829       45.159        0.018      344.344       21.093      862.392
10/21/2013  17:00:00      239.208      152.168       45.834      122.155      100.939       70.515    14921.859    10188.604     4972.404        5.627        1.504      283.506       50.936        0.032      344.369       21.138      862.388
10/21/2013  17:01:00      139.363       85.880       62.839       91.006       73.858       75.483     8282.115     5454.980     5697.671        2.509        0.972      163.699       60.361        0.136      344.366       21.131      862.391
10/21/2013  17:02:00      308.879      193.379       43.631      116.202      105.731       79.378    13502.950    11178.972     6300.898        8.284        1.549      364.420       33.564        0.008      344.318       21.049      862.410
10/21/2013  17:03:00      205.394      122.571       16.605      110.745       88.833       63.697    12264.404     7891.365     4057.307        4.085        1.211      239.187       36.649        0.023      344.307       21.030      862.409
10/21/2013  17:04:00      131.769      102.629       40.178      115.802       94.187       63.551    13410.050     8871.219     4038.710        2.791        1.316      167.020       45.043        0.073      344.355       21.114      862.408
10/21/2013  17:05:00      185.561      126.146       31.213      133.743       90.575       62.339    17887.094     8203.826     3886.159        4.064        1.499      224.378       46.460        0.043      344.351       21.105      862.410
10/21/2013  17:06:00      204.617      125.351       37.061       93.156       61.041       57.598     8677.986     3726.005     3317.534        3.734        0.786      239.960       35.575        0.022      344.343       21.091      862.416
10/21/2013  17:07:00      137.975       86.090       49.093      112.332       85.276       65.449    12618.571     7271.933     4283.581        2.651        1.209      162.630       54.428        0.112      344.331       21.072      862.413
10/21/2013  17:08:00      151.315       90.459       24.899      106.016       73.616       45.983    11239.379     5419.259     2114.417        2.523        0.939      176.293       41.525        0.055      344.381       21.158      862.428
10/21/2013  17:09:00      272.904      190.896       38.053      141.953      125.280       89.123    20150.548    15695.130     7942.899        7.807        2.189      333.043       27.597        0.007      344.282       20.987      862.426
10/21/2013  17:10:00      238.484      157.363       37.502      150.601      113.520       90.591    22680.699    12886.868     8206.698        6.340        2.189      285.723       66.401        0.054      344.279       20.985      862.428
10/21/2013  17:11:00      179.627      102.910       35.475      112.360       85.476       65.213    12624.699     7306.086     4252.671        3.415        1.209      207.018       47.870        0.053      344.274       20.974      862.436
10/21/2013  17:12:00      274.364      191.275       39.004      131.287       89.029       74.849    17236.173     7926.156     5602.344        7.207        1.538      334.457       55.611        0.028      344.250       20.934      862.431
10/21/2013  17:13:00      261.626      165.047       38.725      138.006       95.355       73.843    19045.594     9092.606     5452.747        6.538        1.680      309.336       27.528        0.008      344.211       20.865      862.418
10/21/2013  17:14:00      297.052      211.487       40.418      146.676      102.671       70.120    21513.716    10541.324     4916.786        8.578        1.849      364.646       38.424        0.011      344.193       20.834      862.406
10/21/2013  17:15:00      237.827      179.762       39.284      131.193       98.430       92.686    17211.574     9688.392     8590.695        6.295        1.775      298.121       56.434        0.036      344.196       20.842      862.403
10/21/2013  17:16:00      269.094      181.501       47.775       93.736       71.611       69.127     8786.350     5128.086     4778.581        6.316        0.935      324.583       39.692        0.015      344.170       20.794      862.404
10/21/2013  17:17:00      198.905       68.898       47.053      189.203      129.090      103.461    35797.670    16664.310    10704.111        5.483        3.158      210.499       81.435        0.150      344.139       20.742      862.381
10/21/2013  17:18:00      276.032      135.277       29.450      153.029      108.603       97.407    23417.990    11794.604     9488.049        7.002        2.235      307.398       81.126        0.070      344.108       20.691      862.390
10/21/2013  17:19:00      134.191      146.081      115.739      126.960       90.053       80.864    16118.934     8109.609     6538.989        4.175        1.538      198.361       76.615        0.149      344.123       20.715      862.401
10/21/2013  17:20:00      101.913      107.666       89.739       97.306       88.903       74.396     9468.425     7903.764     5534.836        2.647        1.145      148.251       65.337        0.194      344.143       20.752      862.404
10/21/2013  17:21:00      230.533      164.744       42.238      147.496       99.417       84.258    21755.065     9883.730     7099.450        6.040        1.937      283.348       47.528        0.028      344.089       20.658      862.397
10/21/2013  17:22:00      179.185      113.402       24.927      124.512      102.742       68.475    15503.330    10555.875     4688.841        3.816        1.537      212.055       27.945        0.017      344.080       20.644      862.392
10/21/2013  17:23:00      258.270      144.571       68.930      167.515      142.196       70.481    28061.197    20219.741     4967.598        7.279        2.662      295.980       58.006        0.038      344.074       20.634      862.361
10/21/2013  17:24:00      116.013       76.463       27.307       88.653       74.419       69.457     7859.290     5538.164     4824.313        1.913        0.911      138.945       39.738        0.082      344.045       20.584      862.381
10/21/2013  17:25:00      145.315      140.816       77.518      127.924       90.217       88.674    16364.450     8139.148     7862.995        3.966        1.618      202.350       86.623        0.183      344.064       20.613      862.371
10/21/2013  17:26:00       17.476       90.611      107.208       90.533       64.891       64.649     8196.156     4210.873     4179.510        1.830        0.829       92.281       60.991        0.437      344.076       20.637      862.371
10/21/2013  17:27:00      291.579      152.928       60.794      124.319       82.500       73.969    15455.198     6806.268     5471.378        6.991        1.387      329.249       47.249        0.021      344.008       20.519      862.373
10/21/2013  17:28:00      192.390       85.182       80.373      125.441       94.659       87.632    15735.396     8960.273     7679.434        4.155        1.619      210.404       75.966        0.130      344.022       20.544      862.374
10/21/2013  17:29:00      120.718      106.502       79.412      136.462      113.157       89.851    18621.835    12804.403     8073.208        3.585        1.975      160.982       73.121        0.206      344.012       20.528      862.378
10/21/2013  17:30:00      276.952      167.840       51.984      151.553       95.971       65.745    22968.219     9210.364     4322.425        7.203        1.825      323.841       19.336        0.004      343.982       20.474      862.389
10/21/2013  17:31:00      268.451      171.879       55.656      155.020      113.910       76.151    24031.093    12975.569     5799.028        7.375        2.140      318.761       66.648        0.044      343.989       20.488      862.382
10/21/2013  17:32:00      222.226      133.317       36.600       96.896       92.118       73.901     9388.781     8485.653     5461.358        4.591        1.167      259.148       29.062        0.013      343.975       20.462      862.393
10/21/2013  17:33:00      124.701       70.728       18.963       74.508       70.453       48.498     5551.490     4963.577     2352.100        1.689        0.643      143.362       12.749        0.008      343.939       20.402      862.392
10/21/2013  17:34:00      117.781       50.531       27.432       72.838       69.066       45.402     5305.309     4770.127     2061.385        1.466        0.607      128.163       31.377        0.060      343.935       20.395      862.394
10/21/2013  17:35:00      174.533       90.710       24.666      112.749       71.690       61.366    12712.401     5139.415     3765.832        3.045        1.081      196.698       37.086        0.036      343.921       20.370      862.389
10/21/2013  17:36:00      181.314       86.354       22.016       95.842       75.396       58.249     9185.602     5684.555     3392.931        2.954        0.913      200.827       48.849        0.059      343.858       20.264      862.383
10/21/2013  17:37:00      135.130       94.091       82.255      127.476       77.794       66.169    16250.003     6051.904     4378.386        3.028        1.334      164.661       58.659        0.127      343.848       20.246      862.365
10/21/2013  17:38:00      130.529      117.845       94.210       90.163       92.696       73.608     8129.328     8592.633     5418.093        3.097        1.107      175.856       55.308        0.099      343.866       20.277      862.374
10/21/2013  17:39:00      187.874      101.864       58.962      105.782       84.350       63.579    11189.870     7114.999     4042.300        3.574        1.117      213.713       51.885        0.059      343.835       20.226      862.390
10/21/2013  17:40:00      150.433       48.991       51.556      108.252       80.557       68.837    11718.508     6489.384     4738.549        2.531        1.147      158.210       54.998        0.121      343.837       20.228      862.383
10/21/2013  17:41:00      114.979       65.857       26.913       68.888       48.072       41.880     4745.556     2310.955     1753.926        1.354        0.441      132.504       31.139        0.055      343.784       20.139      862.390
10/21/2013  17:42:00      154.901       85.677       14.933       68.783       42.069       41.598     4731.087     1769.813     1730.357        1.989        0.412      177.016       33.461        0.036      343.747       20.074      862.399
10/21/2013  17:43:00       76.954       45.298       29.911       66.111       45.948       41.049     4370.677     2111.190     1685.004        0.852        0.408       89.296       30.494        0.117      343.740       20.064      862.402
10/21/2013  17:44:00      123.234       69.130       21.398      102.212       75.291       59.103    10447.207     5668.759     3493.140        2.001        0.980      141.300       48.739        0.119      343.729       20.044      862.409
10/21/2013  17:45:00      237.093      116.078       70.083      145.782       97.140       83.434    21252.385     9436.173     6961.291        5.612        1.882      263.983       66.474        0.063      343.748       20.074      862.416
10/21/2013  17:46:00      199.110      135.765       62.053      131.044       97.723       75.470    17172.600     9549.769     5695.657        4.717        1.621      240.992       47.264        0.038      343.771       20.114      862.430
10/21/2013  17:47:00      174.286       73.261       73.373      125.246      115.844       79.133    15686.572    13419.844     6262.043        3.824        1.768      189.058       60.786        0.103      343.735       20.052      862.438
10/21/2013  17:48:00      166.096      110.930       30.862      113.515       80.455       67.844    12885.695     6472.993     4602.784        3.240        1.198      199.733       51.464        0.066      343.708       20.007      862.476
10/21/2013  17:49:00      167.678       80.028       32.558       76.393       62.261       50.817     5835.938     3876.478     2582.417        2.394        0.615      185.797       21.680        0.014      343.685       19.969      862.508
10/21/2013  17:50:00      172.921       88.475       27.714       84.677       54.498       48.634     7170.155     2969.985     2365.284        2.550        0.625      194.241       38.723        0.040      343.688       19.974      862.521
10/21/2013  17:51:00      129.571       67.755       18.297       75.615       55.951       45.499     5717.632     3130.491     2070.150        1.631        0.546      146.217       21.326        0.021      343.682       19.965      862.523
10/21/2013  17:52:00      152.416       96.006       31.131       65.874       48.666       43.991     4339.318     2368.350     1935.231        2.103        0.432      180.133       16.246        0.008      343.685       19.968      862.546
10/21/2013  17:53:00       87.201       52.800       15.341       41.410       33.897       35.947     1714.761     1149.034     1292.173        0.739        0.208      101.941       13.072        0.016      343.576       19.786      862.558
10/21/2013  17:54:00      105.316       48.802       27.741       28.128       23.306       23.964      791.187      543.171      574.255        0.808        0.095      116.073       14.158        0.015      343.599       19.823      862.566
10/21/2013  17:55:00      113.309       82.000       19.695       54.676       41.011       28.956     2989.510     1681.877      838.478        1.273        0.275      139.867       25.856        0.034      343.586       19.802      862.572
10/21/2013  17:56:00      214.467      144.427       12.535       76.188       66.911       59.498     5804.581     4477.106     3539.969        4.041        0.691      258.563       29.094        0.013      343.581       19.789      862.587
10/21/2013  17:57:00      239.763      107.201       32.003      105.480       71.413       57.670    11125.947     5099.768     3325.795        4.477        0.978      262.637       25.466        0.009      343.536       19.714      862.613
10/21/2013  17:58:00      224.141      139.687       39.034       96.789       90.049       68.869     9368.064     8108.852     4742.903        4.674        1.111      264.105       49.386        0.035      343.613       19.845      862.610
10/21/2013  17:59:00      137.710       59.313       30.281      102.591       58.289       50.600    10524.974     3397.616     2560.383        1.994        0.824      149.940       49.253        0.108      343.507       19.666      862.626
10/21/2013  18:00:00      153.310       43.587       36.193       57.428       56.817       36.817     3297.934     3228.226     1355.518        1.730        0.394      159.386       28.646        0.032      343.514       19.679      862.658
10/21/2013  18:01:00      138.484       61.996       18.845       74.616       60.971       48.293     5567.582     3717.419     2332.228        1.749        0.581      151.728       19.910        0.017      343.494       19.644      862.666
10/21/2013  18:02:00      178.463       92.824       21.468       72.131       55.025       46.314     5202.847     3027.716     2145.007        2.565        0.519      201.160       37.692        0.035      343.468       19.598      862.663
10/21/2013  18:03:00      100.854       76.132       65.763      133.614       81.877       73.241    17852.741     6703.863     5364.215        2.510        1.496      126.362       55.674        0.194      343.550       19.739      862.660
10/21/2013  18:04:00      146.679       91.311       50.256      102.401       78.560       51.998    10485.889     6171.690     2703.804        2.587        0.968      172.779       49.199        0.081      343.439       19.550      862.673
10/21/2013  18:05:00      154.721       42.916       23.614       93.000       76.286       60.418     8649.026     5819.551     3650.289        2.223        0.906      160.563       25.258        0.025      343.440       19.552      862.678
10/21/2013  18:06:00      127.242       75.147       42.259       62.300       36.461       38.536     3881.290     1329.423     1484.999        1.516        0.335      147.775       25.542        0.030      343.435       19.544      862.699
10/21/2013  18:07:00      230.402      127.153       42.921      113.875       98.447       58.700    12967.602     9691.909     3445.740        4.860        1.305      263.159       33.189        0.016      343.490       19.634      862.701
10/21/2013  18:08:00      209.882       51.353       32.433      152.156      101.833       65.264    23151.580    10369.951     4259.362        4.275        1.889      216.073       48.878        0.051      343.431       19.535      862.693
10/21/2013  18:09:00      123.543       29.732       51.086      108.709       68.368       64.956    11817.684     4674.249     4219.304        1.973        1.036      127.071       49.905        0.154      343.386       19.460      862.708
10/21/2013  18:10:00       76.032       24.764       23.017       64.775       45.193       37.911     4195.831     2042.442     1437.275        0.730        0.384       79.963       32.717        0.167      343.312       19.336      862.716
10/21/2013  18:11:00      144.691       79.643       23.959       59.456       41.441       52.751     3535.064     1717.355     2782.623        1.794        0.402      165.162       19.115        0.013      343.388       19.464      862.736
10/21/2013  18:12:00      181.402       91.369       33.875       76.166       56.154       49.195     5801.261     3153.310     2420.167        2.689        0.569      203.114       26.537        0.017      343.405       19.491      862.730
10/21/2013  18:13:00      111.124       32.481        0.517       69.972       51.494       35.392     4896.028     2651.586     1252.561        1.110        0.440      115.774       17.311        0.022      343.351       19.399      862.746
10/21/2013  18:14:00      109.877       44.804        7.207       44.249       39.879       30.781     1957.941     1590.339      947.499        0.931        0.225      118.660       11.721        0.010      343.290       19.297      862.748
10/21/2013  18:15:00      112.782       47.395       26.169       88.003       45.753       39.673     7744.542     2093.330     1573.966        1.353        0.571      122.336       27.807        0.052      343.306       19.322      862.752
10/21/2013  18:16:00        7.005       18.125       48.368       31.081       46.944       31.537      966.052     2203.713      994.556        0.344        0.208       19.432       32.381        2.777      343.201       19.145      862.749
10/21/2013  18:17:00       68.023       32.179       16.290       69.120       48.648       23.092     4777.550     2366.631      533.223        0.680        0.384       75.251       18.249        0.059      343.157       19.071      862.762
10/21/2013  18:18:00      179.343       86.472       42.739       40.618       58.087       35.098     1649.851     3374.068     1231.842        2.386        0.313      199.102       24.357        0.015      343.352       19.401      862.754
10/21/2013  18:19:00       52.291       16.264       34.028       72.945       47.073       44.058     5320.996     2215.852     1941.069        0.682        0.474       54.762       38.951        0.506      343.146       19.052      862.753
10/21/2013  18:20:00       22.715       16.452        9.696       33.504       25.241       22.154     1122.530      637.105      490.779        0.157        0.113       28.047       15.218        0.294      343.066       18.917      862.757
10/21/2013  18:21:00       73.048       58.512        2.809       37.455       35.515       32.074     1402.907     1261.311     1028.755        0.623        0.185       93.593       25.851        0.076      343.277       19.275      862.767
10/21/2013  18:22:00       69.296       39.627       15.080       25.259       14.526       14.891      638.012      211.008      221.756        0.383        0.054       79.826       13.221        0.027      343.118       19.006      862.777
10/21/2013  18:23:00       17.240       18.283       29.840       28.858       22.395       16.108      832.767      501.554      259.472        0.156        0.080       25.130       14.052        0.313      343.078       18.936      862.786
10/21/2013  18:24:00       89.581       23.150       24.298       43.492       33.497       27.164     1891.569     1122.023      737.898        0.645        0.188       92.524       13.911        0.023      343.210       19.162      862.794
10/21/2013  18:25:00       44.579       33.600       25.723       37.021       27.059       18.122     1370.549      732.163      328.423        0.310        0.122       55.823       10.434        0.035      343.126       19.018      862.802
10/21/2013  18:26:00       38.030       17.293        2.093       44.795       20.984       16.391     2006.624      440.321      268.650        0.223        0.136       41.778       14.953        0.128      343.089       18.956      862.810
10/21/2013  18:27:00       18.456        9.426        4.119       15.696       19.580       10.662      246.351      383.369      113.681        0.059        0.037       20.724        5.646        0.074      343.081       18.942      862.812
10/21/2013  18:28:00       -1.166       57.884      -13.763       16.484       37.409       10.212      271.737     1399.409      104.295        0.266        0.089       57.896       11.819        0.042      343.218       19.174      862.818
10/21/2013  18:29:00       36.778       14.598       -6.607       36.062       19.023       13.745     1300.492      361.886      188.931        0.173        0.093       39.569       10.006        0.064      343.210       19.163      862.822
10/21/2013  18:30:00        0.102       36.201       -2.252       18.048       14.764        9.106      325.738      217.976       82.924        0.097        0.031       36.201        4.096        0.013      343.231       19.195      862.840
10/21/2013  18:31:00      -10.097       32.333       -8.974       17.614       14.426       11.124      310.267      208.114      123.740        0.093        0.032       33.873        6.688        0.039      343.241       19.215      862.842
10/21/2013  18:32:00      -16.442        9.676       -5.610       11.195        7.831        8.036      125.332       61.332       64.577        0.032        0.013       19.078        4.524        0.056      343.156       19.070      862.857
10/21/2013  18:33:00      -16.776       34.217       -9.522       17.159       19.357        7.491      294.416      374.711       56.115        0.113        0.036       38.109        5.063        0.018      343.191       19.129      862.868
10/21/2013  18:34:00       20.581       56.547      -15.516       15.481       16.510       11.213      239.664      272.584      125.735        0.225        0.032       60.176        8.061        0.018      343.102       18.977      862.885
10/21/2013  18:35:00        7.054       27.020       -9.484       19.838       27.038       10.430      393.538      731.073      108.795        0.105        0.062       27.926       11.402        0.167      343.093       18.964      862.897
10/21/2013  18:36:00        5.372       36.038      -11.288       25.150       17.731       12.183      632.526      314.388      148.424        0.128        0.055       36.437        7.533        0.043      343.075       18.933      862.911
10/21/2013  18:37:00        5.564       36.628       -2.611       27.238       16.971       19.295      741.931      288.005      372.311        0.139        0.070       37.048       13.501        0.133      343.033       18.859      862.920
10/21/2013  18:38:00       10.035       39.884       -9.998       25.086       24.779       15.056      629.320      614.004      226.695        0.163        0.074       41.127       14.758        0.129      342.934       18.692      862.935
10/21/2013  18:39:00       19.343       -1.475        2.069       28.966       30.561       18.322      839.049      933.980      335.695        0.124        0.105       19.399       14.988        0.597      342.916       18.661      862.941
10/21/2013  18:40:00       22.071       34.222      -10.067       18.886       26.903       16.048      356.663      723.780      257.537        0.155        0.067       40.722       13.978        0.118      342.958       18.730      862.962
10/21/2013  18:41:00       10.487       29.897      -13.240       25.446       32.343       12.307      647.524     1046.039      151.458        0.151        0.092       31.683       16.192        0.261      342.915       18.657      862.971
10/21/2013  18:42:00        3.408        0.979       -2.489       14.636       13.414        8.503      214.201      179.923       72.305        0.024        0.023        3.546        5.608        2.501      342.844       18.538      862.985
10/21/2013  18:43:00      -10.099        1.844       -7.361       11.142       12.706        4.889      124.137      161.438       23.903        0.023        0.015       10.266        2.924        0.081      342.902       18.636      862.988
10/21/2013  18:44:00        1.540        1.889       -0.897       12.240        9.083        8.711      149.813       82.492       75.878        0.016        0.015        2.437        5.084        4.351      342.929       18.683      862.994
10/21/2013  18:45:00      -32.314       10.797      -10.241       14.484       26.859       12.084      209.796      721.416      146.019        0.117        0.054       34.070       14.089        0.171      342.881       18.603      863.006
10/21/2013  18:46:00      -46.531        6.573      -14.041       11.927       28.430        9.734      142.248      808.244       94.754        0.173        0.052       46.993        9.149        0.038      342.933       18.689      863.026
10/21/2013  18:47:00      -62.648      -27.564      -10.481       13.875        9.242       10.320      192.516       85.414      106.500        0.259        0.019       68.444        8.997        0.017      342.845       18.540      863.030
10/21/2013  18:48:00      -79.545      -32.655      -15.162        8.691        8.192        8.479       75.534       67.111       71.893        0.392        0.011       85.987        3.746        0.002      342.714       18.316      863.033
10/21/2013  18:49:00      -33.912      -13.630       -4.358       42.055       24.318       15.045     1768.640      591.384      226.347        0.197        0.129       36.548       17.859        0.239      342.723       18.332      863.040
10/21/2013  18:50:00     -103.570      -13.053       -6.866       40.790       23.579       22.524     1663.813      555.958      507.341        0.684        0.136      104.390       21.982        0.044      342.779       18.427      863.046
10/21/2013  18:51:00     -130.066      -20.603      -17.106       18.888       19.526       12.663      356.769      381.278      160.359        0.927        0.045      131.688       11.012        0.007      342.622       18.160      863.060
10/21/2013  18:52:00     -110.713      -25.763       -9.060       31.538       22.710       18.384      994.646      515.755      337.965        0.743        0.092      113.671       16.504        0.021      342.563       18.060      863.080
10/21/2013  18:53:00     -102.245      -30.127       -2.635       25.655       25.947       19.408      658.171      673.236      376.660        0.654        0.085      106.591       13.690        0.016      342.359       17.713      863.095
10/21/2013  18:54:00     -133.633      -27.963      -14.839       17.019       16.200       12.409      289.649      262.449      153.990        0.978        0.035      136.527        3.913        0.001      342.321       17.648      863.098
10/21/2013  18:55:00     -137.426      -40.279      -17.804       15.561       15.760       11.173      242.153      248.365      124.840        1.072        0.031      143.207        9.361        0.004      342.225       17.485      863.115
10/21/2013  18:56:00     -129.994      -24.940      -12.961       30.079       24.351       21.860      904.776      592.972      477.851        0.983        0.099      132.365       21.342        0.026      342.230       17.495      863.125
10/21/2013  18:57:00     -109.679      -53.011      -10.621       40.942       29.230       20.945     1676.259      854.416      438.704        0.896        0.148      121.818       22.006        0.033      342.076       17.231      863.138
10/21/2013  18:58:00     -109.365      -61.212        1.522       37.857       24.967       19.255     1433.143      623.372      370.756        0.907        0.121      125.330       14.243        0.013      342.009       17.119      863.141
10/21/2013  18:59:00      -67.982      -32.837       -0.728       42.171       30.274       18.664     1778.360      916.497      348.352        0.437        0.152       75.497       16.679        0.049      341.950       17.018      863.157
10/21/2013  19:00:00      -58.367      -54.190       -0.615       28.824       19.603       22.364      830.821      384.262      500.160        0.403        0.086       79.645        7.194        0.008      341.994       17.093      863.167
10/21/2013  19:01:00      -29.694      -28.379       -7.931       29.079       18.219       18.358      845.568      331.928      337.012        0.163        0.076       41.074       15.287        0.139      341.937       16.997      863.187
10/21/2013  19:02:00      -55.746      -41.933      -10.745       47.541       27.940       23.830     2260.146      780.650      567.852        0.429        0.180       69.757       28.658        0.169      341.994       17.094      863.190
10/21/2013  19:03:00      -35.648      -32.845       -1.427       36.067       24.635       23.826     1300.840      606.888      567.697        0.241        0.124       48.472       24.797        0.262      341.857       16.861      863.203
10/21/2013  19:04:00      -92.252      -33.961      -12.461       31.284       19.627       17.307      978.698      385.228      299.518        0.574        0.083       98.304       18.612        0.036      341.934       16.993      863.209
10/21/2013  19:05:00     -104.545      -40.332      -10.369       27.709       24.095       16.412      767.787      580.559      269.350        0.714        0.081      112.055       15.516        0.019      341.919       16.967      863.218
10/21/2013  19:06:00     -103.047      -54.205      -14.799       28.447       19.897       18.141      809.221      395.910      329.080        0.765        0.077      116.434        6.453        0.003      341.857       16.861      863.221
10/21/2013  19:07:00      -73.357      -54.270      -11.013       30.616       23.981       21.752      937.357      575.085      473.164        0.522        0.099       91.249       20.263        0.049      341.747       16.674      863.227
10/21/2013  19:08:00      -50.648      -32.561      -12.799       23.436       17.164       18.647      549.237      294.611      347.725        0.249        0.060       60.212       14.391        0.057      341.769       16.712      863.236
10/21/2013  19:09:00      -70.007      -36.301      -11.966       21.268       20.259       16.692      452.309      410.439      278.613        0.375        0.057       78.859       13.310        0.028      341.940       17.002      863.243
10/21/2013  19:10:00      -73.168      -26.519      -11.512       24.192       16.708       14.341      585.272      279.153      205.678        0.363        0.054       77.825       12.629        0.026      341.844       16.839      863.246
10/21/2013  19:11:00     -108.855      -32.143      -23.394       14.748       16.946       13.378      217.510      287.165      178.967        0.706        0.034      113.501        7.998        0.005      341.789       16.746      863.242
10/21/2013  19:12:00     -120.247      -42.643      -21.379       24.870       21.000       15.786      618.500      440.981      249.190        0.902        0.065      127.584       12.695        0.010      341.766       16.706      863.238
10/21/2013  19:13:00      -73.299      -22.031      -12.053       41.021       19.133       17.463     1682.762      366.058      304.965        0.418        0.118       76.538       11.474        0.022      341.649       16.509      863.249
10/21/2013  19:14:00      -24.719      -25.334       -7.346       26.728       32.149       16.143      714.393     1033.586      260.585        0.166        0.100       35.395       11.495        0.105      341.471       16.205      863.258
10/21/2013  19:15:00      -60.383      -43.977      -16.772       19.528       21.413       18.306      381.334      458.500      335.111        0.352        0.059       74.700       10.372        0.019      341.487       16.234      863.279
10/21/2013  19:16:00      -71.634      -34.428      -21.915       18.742       17.969       11.290      351.269      322.885      127.470        0.380        0.040       79.478        9.582        0.015      341.660       16.525      863.289
10/21/2013  19:17:00      -95.591      -32.849      -16.110       10.200       13.147       10.059      104.037      172.846      101.190        0.543        0.019      101.077        7.995        0.006      341.527       16.302      863.301
10/21/2013  19:18:00      -82.879      -62.491      -13.650       23.361       17.533       16.718      545.754      307.405      279.491        0.605        0.057      103.799        7.800        0.006      341.366       16.029      863.298
10/21/2013  19:19:00      -71.671      -51.050      -15.652       47.870       29.601       17.186     2291.495      876.208      295.346        0.572        0.173       87.993       19.471        0.049      341.227       15.793      863.306
10/21/2013  19:20:00      -56.830      -56.102      -16.090       33.267       23.500       17.634     1106.693      552.234      310.949        0.430        0.098       79.857       17.682        0.049      341.226       15.793      863.311
10/21/2013  19:21:00      -96.637      -32.381      -24.688       26.049       29.713       16.414      678.534      882.890      269.425        0.641        0.092      101.918       12.570        0.015      341.354       16.009      863.325
10/21/2013  19:22:00      -65.772      -65.708      -22.211       34.034       24.611       20.033     1158.310      605.704      401.328        0.565        0.108       92.970       16.678        0.032      341.228       15.796      863.325
10/21/2013  19:23:00      -53.066      -45.165       -4.112       31.204       31.788       21.268      973.659     1010.470      452.347        0.365        0.122       69.684       20.374        0.085      341.158       15.677      863.340
10/21/2013  19:24:00      -98.387      -44.416      -13.640       28.716       27.754       19.338      824.615      770.289      373.954        0.690        0.098      107.948        6.728        0.004      341.198       15.745      863.348
10/21/2013  19:25:00     -116.514      -32.754      -21.316       29.412       22.998       17.259      865.071      528.886      297.857        0.840        0.085      121.030       15.992        0.017      341.323       15.956      863.361
10/21/2013  19:26:00      -44.039        6.254       -9.355       32.079       26.545       16.880     1029.055      704.660      284.946        0.204        0.101       44.481       12.847        0.083      341.591       16.410      863.367
10/21/2013  19:27:00      -41.560        1.863       -7.164       26.904       26.372       17.130      723.838      695.461      293.449        0.175        0.086       41.601       10.708        0.066      341.752       16.684      863.378
10/21/2013  19:28:00      -70.840      -11.779      -12.522       40.851       30.086       18.801     1668.793      905.142      353.485        0.412        0.146       71.813       13.229        0.034      341.549       16.338      863.382
10/21/2013  19:29:00     -115.438      -42.508      -15.322       28.588       27.172       19.786      817.255      738.339      391.499        0.866        0.097      123.016       15.498        0.016      341.061       15.513      863.397
10/21/2013  19:30:00      -90.612      -14.824      -10.865       50.317       31.412       25.785     2531.779      986.731      664.843        0.637        0.209       91.816       25.154        0.075      341.212       15.768      863.402
10/21/2013  19:31:00      -67.381      -32.482       -7.214       31.747       33.732       19.023     1007.862     1137.858      361.883        0.408        0.125       74.802       17.379        0.054      341.114       15.602      863.420
10/21/2013  19:32:00      -61.354      -27.082       -8.633       42.879       26.534       20.656     1838.635      704.052      426.656        0.377        0.148       67.066       18.114        0.073      341.171       15.699      863.433
10/21/2013  19:33:00      -64.143      -41.190      -11.670       29.018       28.022       19.116      842.064      785.242      365.428        0.397        0.100       76.230       14.929        0.038      341.032       15.463      863.448
10/21/2013  19:34:00      -85.353      -54.800      -18.865       30.135       30.687       21.501      908.132      941.675      462.286        0.648        0.116      101.431       13.211        0.017      341.013       15.429      863.458
10/21/2013  19:35:00     -106.783      -53.055      -16.514       30.869       23.134       18.315      952.890      535.166      335.449        0.816        0.091      119.237        7.465        0.004      340.941       15.309      863.464
10/21/2013  19:36:00     -107.327      -44.251      -21.209       26.335       26.674       18.521      693.544      711.476      343.037        0.784        0.087      116.091        9.488        0.007      340.917       15.267      863.472
10/21/2013  19:37:00      -99.480      -41.703      -10.742       27.829       36.169       20.495      774.469     1308.210      420.063        0.713        0.125      107.867       12.854        0.014      341.004       15.417      863.478
10/21/2013  19:38:00     -100.199      -57.049       -8.502       42.797       40.805       27.287     1831.625     1665.042      744.581        0.880        0.212      115.302       20.595        0.032      340.849       15.153      863.486
10/21/2013  19:39:00      -32.259      -61.138       -0.545       62.427       43.131       33.844     3897.153     1860.245     1145.389        0.584        0.345       69.127       32.938        0.227      340.745       14.978      863.492
10/21/2013  19:40:00      -85.425      -38.513       -8.612       37.603       28.764       22.800     1414.001      827.380      519.862        0.581        0.138       93.705        9.043        0.009      340.886       15.217      863.500
10/21/2013  19:41:00      -91.938      -28.716      -13.545       54.258       37.357       20.979     2943.889     1395.570      440.098        0.712        0.239       96.319       20.681        0.046      340.752       14.990      863.513
10/21/2013  19:42:00      -85.696      -31.799       -6.508       63.764       28.209       30.275     4065.841      795.762      916.579        0.709        0.289       91.406       34.708        0.144      340.670       14.851      863.517
10/21/2013  19:43:00      -60.851      -35.012        7.209       52.958       38.681       34.237     2804.517     1496.212     1172.141        0.523        0.274       70.205       34.181        0.237      340.558       14.662      863.530
10/21/2013  19:44:00     -117.593      -28.635      -14.646       38.113       32.680       22.132     1452.619     1067.964      489.817        0.894        0.151      121.029       20.115        0.028      340.842       15.141      863.540
10/21/2013  19:45:00     -131.291      -19.127      -18.283       38.245       31.187       24.902     1462.690      972.610      620.092        1.050        0.153      132.677       19.995        0.023      340.754       14.992      863.552
10/21/2013  19:46:00     -128.318      -11.133      -18.384       56.516       24.152       24.419     3194.047      583.335      596.303        1.065        0.219      128.800       21.917        0.029      340.834       15.128      863.561
10/21/2013  19:47:00      -93.024      -10.184      -10.031       48.932       30.732       23.960     2394.379      944.427      574.065        0.638        0.196       93.580       19.100        0.042      340.897       15.236      863.572
10/21/2013  19:48:00      -78.844        0.885       -9.901       52.868       35.655       21.504     2795.036     1271.307      462.441        0.542        0.226       78.849       26.445        0.112      341.027       15.454      863.578
10/21/2013  19:49:00      -80.531       -6.354      -15.939       57.128       31.268       29.342     3263.610      977.679      860.926        0.594        0.255       80.782       22.188        0.075      341.213       15.769      863.587
10/21/2013  19:50:00      -65.031       -2.189       -3.804       57.814       35.692       28.528     3342.458     1273.935      813.864        0.484        0.272       65.068       27.811        0.183      341.113       15.602      863.584
10/21/2013  19:51:00      -99.657      -23.920       -6.472       48.435       34.374       25.335     2345.907     1181.546      641.887        0.736        0.208      102.487       23.399        0.052      341.004       15.415      863.590
10/21/2013  19:52:00      -91.052      -18.705        1.161       58.794       38.183       29.909     3456.757     1457.957      894.578        0.722        0.290       92.953       29.404        0.100      340.975       15.366      863.597
10/21/2013  19:53:00      -99.354      -12.443       -7.859       52.597       43.038       25.649     2766.486     1852.262      657.854        0.768        0.264      100.130       21.458        0.046      341.037       15.471      863.609
10/21/2013  19:54:00     -141.410      -26.971       -8.004       41.150       33.713       26.808     1693.338     1136.582      718.684        1.217        0.177      143.959       21.507        0.022      340.909       15.255      863.621
10/21/2013  19:55:00      -85.201      -17.179       -1.937       53.730       34.931       24.480     2886.937     1220.189      599.294        0.613        0.235       86.916       26.302        0.092      340.800       15.073      863.639
10/21/2013  19:56:00      -44.596      -11.031        2.891       40.738       36.649       20.936     1659.617     1343.156      438.301        0.278        0.172       45.940       19.618        0.182      340.848       15.152      863.651
10/21/2013  19:57:00     -114.482      -25.866       -5.210       40.039       29.770       25.952     1603.140      886.250      673.514        0.848        0.158      117.367       24.154        0.042      340.918       15.271      863.677
10/21/2013  19:58:00     -101.726      -13.864       -1.620       51.590       36.877       29.492     2661.540     1359.913      869.776        0.772        0.245      102.666       27.642        0.072      340.923       15.279      863.681
10/21/2013  19:59:00     -131.481      -26.469       -9.038       45.763       36.455       30.568     2094.275     1328.981      934.387        1.121        0.218      134.119       25.882        0.037      340.803       15.076      863.693
10/21/2013  20:00:00     -148.350      -27.149      -18.246       36.620       29.123       19.349     1341.036      848.178      374.396        1.282        0.128      150.813       17.651        0.014      340.771       15.021      863.692
10/21/2013  20:01:00     -122.518       -3.603      -15.201       42.302       32.969       21.412     1789.492     1086.978      458.486        0.929        0.167      122.571       20.177        0.027      340.614       14.757      863.706
10/21/2013  20:02:00     -124.441       -8.793      -15.569       38.236       35.800       26.294     1461.963     1281.672      691.392        0.962        0.172      124.751       22.554        0.033      340.628       14.780      863.711
10/21/2013  20:03:00     -104.274       -0.533      -16.366       44.694       38.479       26.458     1997.597     1480.618      700.017        0.766        0.209      104.276       16.833        0.026      340.621       14.769      863.731
10/21/2013  20:04:00     -121.324        0.060      -14.006       31.576       29.145       22.688      997.027      849.414      514.747        0.864        0.118      121.324       20.790        0.029      340.712       14.921      863.738
10/21/2013  20:05:00     -121.296       12.928      -16.762       45.249       28.079       17.771     2047.434      788.420      315.817        0.916        0.158      121.983       10.347        0.007      340.771       15.022      863.757
10/21/2013  20:06:00     -121.764      -11.269      -18.457       34.788       31.731       17.525     1210.236     1006.885      307.116        0.891        0.126      122.285       18.084        0.022      340.742       14.972      863.759
10/21/2013  20:07:00     -125.398      -11.877      -12.219       33.343       32.932       21.009     1111.781     1084.511      441.389        0.933        0.132      125.959       17.990        0.020      340.720       14.934      863.769
10/21/2013  20:08:00      -98.079      -32.814      -10.922       46.549       24.884       24.393     2166.822      619.226      595.006        0.710        0.169      103.422       27.762        0.072      340.633       14.788      863.772
10/21/2013  20:09:00     -104.132      -46.305       -6.970       29.348       33.337       22.066      861.288     1111.356      486.916        0.775        0.123      113.963        9.397        0.007      340.592       14.719      863.779
10/21/2013  20:10:00      -87.733      -29.051       -6.212       31.874       30.853       21.222     1015.943      951.880      450.373        0.550        0.121       92.417       18.609        0.041      340.546       14.641      863.783
10/21/2013  20:11:00     -126.540      -11.101      -14.717       56.665       35.994       28.000     3210.907     1295.593      783.997        1.082        0.265      127.026       26.692        0.044      340.529       14.613      863.797
10/21/2013  20:12:00     -113.459      -25.226       -9.631       30.003       33.961       19.462      900.160     1153.370      378.788        0.802        0.122      116.230       11.791        0.010      340.510       14.581      863.801
10/21/2013  20:13:00     -104.890      -14.840      -10.677       38.321       32.259       20.101     1468.461     1040.662      404.041        0.712        0.146      105.935       13.699        0.017      340.535       14.622      863.814
10/21/2013  20:14:00     -113.041       -2.119      -11.628       53.890       31.240       26.844     2904.125      975.909      720.593        0.876        0.230      113.061       28.781        0.065      340.596       14.726      863.821
10/21/2013  20:15:00     -108.437      -29.765      -11.057       44.196       31.798       21.731     1953.279     1011.125      472.231        0.810        0.172      112.448       21.946        0.038      340.528       14.610      863.845
10/21/2013  20:16:00      -84.318      -38.052      -16.447       32.738       26.498       18.860     1071.775      702.166      355.698        0.548        0.106       92.507       17.281        0.035      340.550       14.649      863.851
10/21/2013  20:17:00     -111.193      -47.798      -14.436       39.098       34.346       23.487     1528.657     1179.674      551.630        0.906        0.163      121.031       18.557        0.024      340.466       14.506      863.863
10/21/2013  20:18:00     -104.690      -69.239       -4.200       37.054       41.585       23.591     1373.007     1729.275      556.513        0.971        0.183      125.515       16.889        0.018      340.443       14.466      863.864
10/21/2013  20:19:00     -143.158      -65.331       -6.397       30.191       23.488       15.369      911.481      551.699      236.207        1.325        0.085      157.361        9.695        0.004      340.440       14.460      863.870
10/21/2013  20:20:00     -114.213      -55.576       -7.053       48.868       25.443       21.961     2388.128      647.344      482.286        0.985        0.176      127.017       20.327        0.026      340.471       14.513      863.864
10/21/2013  20:21:00      -93.838      -64.095        0.879       37.316       31.013       21.136     1392.485      961.819      446.739        0.786        0.140      113.639       16.536        0.021      340.536       14.625      863.861
10/21/2013  20:22:00     -115.889      -43.761      -16.973       20.356       22.625       15.890      414.360      511.883      252.506        0.841        0.059      123.876       13.035        0.011      340.537       14.628      863.856
10/21/2013  20:23:00     -132.214      -72.024       -4.141       22.880       20.116       17.290      523.478      404.670      298.957        1.196        0.061      150.559       11.886        0.006      340.487       14.542      863.846
10/21/2013  20:24:00     -144.061      -34.420      -11.410       23.566       22.530       16.413      555.368      507.597      269.382        1.170        0.067      148.116       12.548        0.007      340.462       14.498      863.844
10/21/2013  20:25:00     -119.975      -35.935      -13.016       30.576       28.056       16.385      934.885      787.142      268.482        0.892        0.100      125.241       16.973        0.018      340.435       14.454      863.838
10/21/2013  20:26:00     -113.225      -23.490       -9.409       41.432       32.737       19.858     1716.622     1071.738      394.346        0.832        0.159      115.636       20.785        0.032      340.270       14.174      863.840
10/21/2013  20:27:00     -131.599      -17.293      -10.688       46.823       30.623       23.593     2192.391      937.748      556.649        1.071        0.184      132.730       23.131        0.030      340.277       14.186      863.831
10/21/2013  20:28:00     -126.998       -4.219      -11.139       49.577       40.687       28.569     2457.887     1655.433      816.193        1.060        0.246      127.068       29.548        0.054      340.313       14.247      863.830
10/21/2013  20:29:00     -166.998        6.445      -17.067       43.054       38.412       28.610     1853.631     1475.472      818.521        1.618        0.207      167.123       21.869        0.017      340.363       14.330      863.822
10/21/2013  20:30:00     -138.413        9.659       -9.090       72.876       38.656       31.831     5310.852     1494.300     1013.227        1.357        0.391      138.749       36.035        0.067      340.356       14.318      863.835
10/21/2013  20:31:00     -144.821       -3.425      -17.219       59.007       32.944       26.076     3481.830     1085.325      679.936        1.326        0.262      144.862       23.071        0.025      340.402       14.396      863.837
10/21/2013  20:32:00     -141.543        8.793       -9.677       59.598       34.532       22.288     3551.931     1192.473      496.735        1.272        0.262      141.816       24.458        0.030      340.470       14.510      863.850
10/21/2013  20:33:00     -132.932       -1.221       -6.988       46.225       42.932       29.456     2136.784     1843.136      867.662        1.128        0.242      132.937       26.199        0.039      340.392       14.380      863.859
10/21/2013  20:34:00     -144.240      -10.895      -17.404       39.785       33.530       23.408     1582.861     1124.267      547.939        1.224        0.163      144.651       15.867        0.012      340.434       14.452      863.865
10/21/2013  20:35:00     -115.451      -12.521      -21.621       49.792       46.520       20.136     2479.248     2164.109      405.449        0.950        0.252      116.128       10.184        0.008      340.428       14.443      863.863
10/21/2013  20:36:00     -134.345       -8.199      -24.507       33.645       26.807       22.868     1132.004      718.633      522.934        1.054        0.119      134.595       21.460        0.025      340.463       14.501      863.855
10/21/2013  20:37:00     -132.621      -16.215      -14.974       36.959       24.355       22.834     1365.990      593.180      521.401        1.028        0.124      133.608       20.744        0.024      340.336       14.285      863.862
10/21/2013  20:38:00     -116.213      -47.873      -11.993       35.750       43.576       20.503     1278.084     1898.835      420.354        0.977        0.180      125.688       14.218        0.013      340.316       14.253      863.868
10/21/2013  20:39:00     -129.387      -26.878      -19.676       41.025       36.356       21.517     1683.081     1321.768      463.002        1.066        0.173      132.149       17.435        0.017      340.307       14.237      863.885
10/21/2013  20:40:00     -114.403      -68.258      -14.665       32.928       33.047       22.170     1084.284     1092.076      491.520        1.031        0.133      133.219       12.829        0.009      340.216       14.084      863.909
10/21/2013  20:41:00     -137.131      -78.428      -11.223       41.100       38.447       22.887     1689.192     1478.190      523.828        1.439        0.185      157.974       20.334        0.017      340.173       14.010      863.918
10/21/2013  20:42:00     -126.380      -38.423       -2.622       47.919       29.512       18.491     2296.256      870.972      341.924        1.048        0.175      132.092       12.901        0.010      340.234       14.115      863.930
10/21/2013  20:43:00     -105.487      -79.696       -8.242       43.485       33.160       25.551     1890.903     1099.578      652.848        1.059        0.182      132.208       18.956        0.021      340.358       14.323      863.945
10/21/2013  20:44:00     -119.641      -73.856       -6.530       44.296       30.976       23.172     1962.175      959.532      536.955        1.163        0.173      140.601       24.364        0.030      340.266       14.169      863.965
10/21/2013  20:45:00      -80.121      -75.085        4.875       71.467       40.851       26.915     5107.572     1668.837      724.419        0.979        0.375      109.805       30.938        0.079      340.147       13.968      863.978
10/21/2013  20:46:00     -133.263      -88.609       -6.008       52.731       40.146       29.774     2780.581     1611.727      886.476        1.546        0.264      160.033       28.542        0.032      340.122       13.925      863.988
10/21/2013  20:47:00     -120.132      -78.661       -4.769       43.015       35.772       20.629     1850.326     1279.607      425.574        1.210        0.178      143.594       18.523        0.017      340.142       13.959      863.995
10/21/2013  20:48:00     -102.070      -71.474        4.434       49.515       38.161       24.671     2451.775     1456.269      608.645        1.003        0.226      124.607       22.829        0.034      340.120       13.921      864.006
10/21/2013  20:49:00     -111.960      -81.211       -2.069       43.003       36.760       29.954     1849.271     1351.265      897.264        1.162        0.205      138.312       25.194        0.033      340.140       13.956      864.010
10/21/2013  20:50:00     -102.689      -75.971       -7.048       44.061       34.100       23.690     1941.346     1162.800      561.226        1.002        0.183      127.736       20.382        0.025      340.089       13.869      864.021
10/21/2013  20:51:00     -114.145      -71.642       -7.166       40.052       31.678       19.025     1604.127     1003.472      361.968        1.059        0.148      134.765       17.763        0.017      340.026       13.763      864.032
10/21/2013  20:52:00     -125.722      -74.254       -6.617       20.940       22.018       16.978      438.463      484.787      288.239        1.129        0.061      146.013        9.660        0.004      340.042       13.792      864.039
10/21/2013  20:53:00     -163.959      -59.180      -12.621       22.421       23.903       16.526      502.715      571.374      273.121        1.595        0.067      174.312       10.905        0.004      340.049       13.803      864.045
10/21/2013  20:54:00     -139.904      -67.219       -2.633       46.479       39.158       23.889     2160.332     1533.365      570.698        1.418        0.213      155.214       20.734        0.018      339.995       13.710      864.062
10/21/2013  20:55:00      -69.014      -55.585        5.954       53.626       43.432       28.490     2875.725     1886.310      811.665        0.673        0.279       88.615       29.279        0.109      339.971       13.669      864.066
10/21/2013  20:56:00     -125.068      -83.214       -5.354       42.929       37.879       26.717     1842.890     1434.784      713.793        1.329        0.200      150.222       20.494        0.019      339.924       13.591      864.078
10/21/2013  20:57:00     -148.060      -60.780       -9.795       69.783       27.273       20.925     4869.714      743.794      437.857        1.588        0.303      160.051       21.720        0.018      339.863       13.488      864.085
10/21/2013  20:58:00     -165.660      -72.668      -10.830       43.209       33.577       28.254     1867.025     1127.401      798.310        1.832        0.190      180.898       22.886        0.016      339.850       13.467      864.101
10/21/2013  20:59:00     -132.722      -55.721       -1.193       45.937       38.730       22.934     2110.216     1500.034      525.952        1.243        0.207      143.944       24.409        0.029      339.814       13.407      864.111
10/21/2013  21:00:00     -117.964      -67.081        0.574       36.515       31.037       22.745     1333.345      963.270      517.320        1.061        0.141      135.703       18.046        0.018      339.790       13.365      864.124
10/21/2013  21:01:00      -91.971      -52.815      -14.393       43.753       30.427       23.848     1914.316      925.777      568.705        0.743        0.170      106.057       14.425        0.018      339.803       13.388      864.131
10/21/2013  21:02:00      -77.575      -55.701        2.073       48.775       27.609       23.413     2379.032      762.260      548.186        0.641        0.184       95.501       24.664        0.067      339.842       13.453      864.132
10/21/2013  21:03:00      -85.312      -41.888        4.236       39.769       32.935       24.473     1581.568     1084.685      598.943        0.616        0.163       95.041       23.774        0.063      339.764       13.321      864.150
10/21/2013  21:04:00      -95.816      -67.051        0.863       53.509       29.484       24.031     2863.236      869.334      577.466        0.899        0.216      116.947       21.095        0.033      339.781       13.350      864.150
10/21/2013  21:05:00     -108.131      -82.484       -4.554       52.846       38.278       27.346     2792.695     1465.220      747.780        1.176        0.250      136.000       26.162        0.037      339.771       13.332      864.147
10/21/2013  21:06:00      -85.746      -50.055        4.429       70.752       42.146       30.873     5005.786     1776.249      953.142        0.881        0.387       99.287       38.297        0.149      339.757       13.310      864.158
10/21/2013  21:07:00     -149.455      -62.738       -6.482       35.359       27.254       21.254     1250.277      742.766      451.751        1.438        0.122      162.089       19.632        0.015      339.784       13.356      864.161
10/21/2013  21:08:00     -143.270      -55.538       -4.390       31.955       29.377       18.480     1021.128      862.992      341.524        1.293        0.111      153.658       14.883        0.009      339.774       13.337      864.169
10/21/2013  21:09:00     -139.041      -28.380       -5.308       40.853       25.919       22.422     1668.928      671.791      502.741        1.150        0.142      141.908       24.641        0.030      339.972       13.672      864.186
10/21/2013  21:10:00     -150.302      -13.667       -2.774       35.739       25.766       19.338     1277.241      663.880      373.961        1.255        0.116      150.922       20.030        0.018      340.049       13.802      864.194
10/21/2013  21:11:00     -103.971      -27.807       -3.499       44.107       33.229       22.818     1945.399     1104.173      520.671        0.758        0.179      107.625       21.377        0.039      339.892       13.537      864.208
10/21/2013  21:12:00      -88.966      -34.719        3.028       34.274       27.759       16.937     1174.728      770.580      286.874        0.568        0.112       95.501       18.547        0.038      339.888       13.531      864.216
10/21/2013  21:13:00     -122.860      -32.642       -8.788       27.796       20.134       17.587      772.642      405.368      309.297        0.886        0.074      127.123       14.749        0.013      339.898       13.547      864.227
10/21/2013  21:14:00     -153.315      -23.671       -8.264       39.946       28.965       20.178     1595.670      838.968      407.161        1.349        0.142      155.132       21.559        0.019      339.970       13.667      864.242
10/21/2013  21:15:00     -163.874      -17.971      -11.460       58.716       35.203       27.353     3447.579     1239.231      748.192        1.637        0.272      164.856       30.884        0.035      340.132       13.941      864.233
10/21/2013  21:16:00     -192.030        0.778      -17.243       32.854       26.092       18.360     1079.411      680.794      337.105        1.964        0.105      192.032       14.772        0.006      340.175       14.013      864.235
10/21/2013  21:17:00     -185.332       14.206      -17.577       32.520       31.450       19.808     1057.566      989.110      392.372        1.865        0.122      185.876       18.154        0.010      340.115       13.912      864.237
10/21/2013  21:18:00     -174.328       10.457      -11.007       35.372       29.373       21.405     1251.213      862.771      458.162        1.660        0.129      174.641       17.392        0.010      340.078       13.851      864.237
10/21/2013  21:19:00     -180.346       10.384      -18.554       32.187       30.547       16.247     1035.993      933.097      263.971        1.760        0.112      180.645       14.071        0.006      340.049       13.802      864.242
10/21/2013  21:20:00     -157.005       -7.562       -9.842       24.654       30.376       20.276      607.808      922.697      411.110        1.337        0.097      157.187       15.796        0.010      339.965       13.660      864.262
10/21/2013  21:21:00     -144.732      -16.164      -10.383       29.142       36.833       22.691      849.234     1356.698      514.884        1.202        0.136      145.632       17.245        0.014      339.909       13.566      864.257
10/21/2013  21:22:00     -156.384      -17.653       -6.919       48.146       28.466       24.884     2318.000      810.324      619.219        1.428        0.187      157.377       25.923        0.027      339.861       13.484      864.255
10/21/2013  21:23:00     -133.096      -53.169       -8.950       48.885       48.833       23.001     2389.751     2384.659      529.057        1.296        0.265      143.323       18.635        0.017      339.805       13.392      864.260
10/21/2013  21:24:00     -119.166      -20.290        5.178       59.347       43.713       25.345     3522.095     1910.803      642.359        1.036        0.304      120.881       27.428        0.051      339.734       13.270      864.251
10/21/2013  21:25:00     -141.977      -31.611       -8.006       59.167       48.533       27.960     3500.719     2355.433      781.763        1.393        0.332      145.453       26.618        0.033      339.710       13.230      864.255
10/21/2013  21:26:00     -164.873       -9.351      -11.680       46.707       36.344       28.340     2181.547     1320.863      803.163        1.586        0.215      165.138       25.234        0.023      339.725       13.256      864.258
10/21/2013  21:27:00     -167.931      -38.680      -16.961       53.623       39.471       26.937     2875.398     1557.988      725.623        1.757        0.258      172.329       29.324        0.029      339.707       13.225      864.252
10/21/2013  21:28:00     -113.507      -50.959       -0.730       59.008       53.325       27.624     3481.965     2843.531      763.067        1.128        0.354      124.421       19.573        0.025      339.643       13.116      864.254
10/21/2013  21:29:00     -114.695      -39.716       -4.534       61.293       53.429       36.432     3756.849     2854.628     1327.325        1.134        0.397      121.376       27.208        0.050      339.608       13.059      864.267
10/21/2013  21:30:00     -158.580      -56.053       -2.003       47.277       67.279       29.618     2235.076     4526.498      877.229        1.796        0.382      168.195       25.049        0.022      339.621       13.078      864.268
10/21/2013  21:31:00     -102.348      -22.279        3.175       54.018       47.992       27.617     2917.978     2303.224      762.695        0.848        0.299      104.745       23.781        0.052      339.536       12.938      864.279
10/21/2013  21:32:00      -86.607      -23.653        1.598       64.782       44.432       27.045     4196.728     1974.183      731.428        0.748        0.345       89.779       34.591        0.148      339.521       12.911      864.291
10/21/2013  21:33:00     -101.657      -29.433       -4.727       41.611       46.833       22.161     1731.460     2193.336      491.122        0.782        0.221      105.832       16.877        0.025      339.511       12.894      864.290
10/21/2013  21:34:00     -147.159      -75.667        2.142       33.427       47.670       20.000     1117.367     2272.394      399.992        1.559        0.189      165.473       17.901        0.012      339.505       12.883      864.290
10/21/2013  21:35:00     -157.512      -26.785       -9.648       37.833       45.224       20.774     1431.323     2045.184      431.562        1.476        0.195      159.773       19.361        0.015      339.493       12.864      864.289
10/21/2013  21:36:00     -140.290      -25.248       -7.249       47.641       38.546       21.236     2269.661     1485.819      450.960        1.229        0.210      142.544       17.736        0.015      339.545       12.952      864.277
10/21/2013  21:37:00     -113.992      -73.410       -7.815       40.420       28.652       20.421     1633.753      820.932      417.019        1.066        0.144      135.584       12.347        0.008      339.452       12.794      864.284
10/21/2013  21:38:00      -90.472      -65.638       -2.425       39.340       31.704       21.150     1547.631     1005.123      447.326        0.775        0.150      111.775       17.893        0.026      339.399       12.705      864.291
10/21/2013  21:39:00      -57.989      -43.389        2.925       38.771       27.340       21.303     1503.203      747.469      453.818        0.398        0.135       72.424       19.256        0.071      339.360       12.641      864.296
10/21/2013  21:40:00      -69.466      -40.622       -1.451       35.631       23.621       16.450     1269.599      557.943      270.591        0.429        0.105       80.471       15.256        0.036      339.467       12.821      864.311
10/21/2013  21:41:00     -134.699      -44.706       -6.130       26.796       27.121       14.492      718.028      735.562      210.030        1.092        0.083      141.924        7.461        0.003      339.425       12.750      864.316
10/21/2013  21:42:00     -136.297      -52.269      -10.524       38.856       22.504       22.039     1509.821      506.441      485.704        1.196        0.125      145.976       22.706        0.024      339.383       12.679      864.313
10/21/2013  21:43:00      -89.731      -38.824       -9.599       42.759       43.972       22.228     1828.309     1933.568      494.082        0.695        0.213       97.770       16.546        0.029      339.298       12.535      864.321
10/21/2013  21:44:00      -84.404      -48.671       -5.882       49.461       35.592       24.643     2446.369     1266.764      607.293        0.692        0.216       97.432       20.410        0.044      339.354       12.630      864.337
10/21/2013  21:45:00      -72.716      -59.536       -3.225       50.825       42.744       24.896     2583.170     1827.052      619.810        0.694        0.252       93.979       26.898        0.082      339.244       12.445      864.342
10/21/2013  21:46:00     -121.434      -50.451       -9.094       41.888       32.538       19.458     1754.611     1058.707      378.602        1.028        0.160      131.497       17.452        0.018      339.231       12.421      864.348
10/21/2013  21:47:00     -125.634      -51.583      -11.339       24.572       22.170       16.026      603.791      491.497      256.839        0.996        0.068      135.811       12.207        0.008      339.187       12.348      864.358
10/21/2013  21:48:00     -141.230      -45.648      -12.068       30.506       28.550       17.830      930.615      815.106      317.899        1.212        0.103      148.424       15.100        0.010      339.170       12.320      864.363
10/21/2013  21:49:00     -112.901      -43.323       -5.307       34.242       35.595       18.177     1172.503     1266.990      330.388        0.871        0.138      120.928       17.043        0.020      339.136       12.263      864.377
10/21/2013  21:50:00      -97.733      -38.098        1.516       31.011       20.773       17.811      961.666      431.537      317.248        0.636        0.086      104.896       15.119        0.021      339.131       12.253      864.391
10/21/2013  21:51:00      -68.634      -45.135       -6.009       26.552       20.301       14.473      704.993      412.122      209.462        0.406        0.066       82.145       10.216        0.015      339.236       12.432      864.391
10/21/2013  21:52:00      -74.645      -53.901       -3.550       36.324       20.314       17.497     1319.423      412.642      306.157        0.526        0.102       92.071       14.146        0.024      339.261       12.473      864.404
10/21/2013  21:53:00     -102.375      -55.550      -11.680       15.930       19.545       12.053      253.770      382.019      145.274        0.724        0.039      116.475        5.853        0.003      339.202       12.372      864.416
10/21/2013  21:54:00      -61.902      -59.153       -4.220       42.151       27.529       19.636     1776.684      757.828      385.575        0.513        0.146       85.621       18.780        0.048      339.208       12.384      864.422
10/21/2013  21:55:00      -64.293      -48.088        2.984       33.327       27.345       19.385     1110.709      747.771      375.773        0.434        0.112       80.288       18.297        0.052      339.165       12.311      864.439
10/21/2013  21:56:00     -114.439      -75.263       -8.217       39.516       25.575       22.777     1561.509      654.062      518.780        1.078        0.137      136.970       19.608        0.020      339.189       12.351      864.443
10/21/2013  21:57:00      -96.001      -75.101        1.045       39.763       34.788       25.155     1581.068     1210.187      632.772        0.914        0.171      121.887       21.815        0.032      339.079       12.167      864.442
10/21/2013  21:58:00      -95.146      -60.486        2.840       37.121       27.493       25.294     1377.950      755.847      639.790        0.775        0.139      112.745       19.807        0.031      339.031       12.086      864.460
10/21/2013  21:59:00      -96.357      -60.654        3.629       45.218       32.385       26.704     2044.678     1048.808      713.089        0.839        0.190      113.858       21.985        0.037      339.003       12.040      864.473
10/21/2013  22:00:00     -110.233      -77.608       -1.041       46.013       34.968       28.619     2117.190     1222.769      819.042        1.117        0.208      134.812       25.158        0.035      338.995       12.025      864.477
10/21/2013  22:01:00     -103.984      -82.160        1.227       40.229       32.874       22.510     1618.389     1080.727      506.703        1.038        0.160      132.525       20.840        0.025      338.971       11.984      864.492
10/21/2013  22:02:00     -145.443      -81.886       -5.947       28.487       21.036       15.796      811.526      442.514      249.521        1.470        0.075      166.910        9.184        0.003      338.952       11.953      864.499
10/21/2013  22:03:00     -156.869      -59.119      -13.524       30.430       22.510       16.596      925.992      506.710      275.436        1.500        0.085      167.639        7.150        0.002      338.943       11.939      864.500
10/21/2013  22:04:00     -176.242      -62.692      -12.584       30.829       24.294       19.181      950.439      590.177      367.924        1.853        0.095      187.060        5.183        0.001      338.915       11.891      864.514
10/21/2013  22:05:00     -147.708      -54.920       -0.637       52.175       38.757       24.492     2722.214     1502.125      599.855        1.483        0.241      157.587       27.493        0.030      338.880       11.831      864.506
10/21/2013  22:06:00     -147.010      -65.716        4.926       54.754       31.981       26.478     2997.969     1022.786      701.073        1.534        0.236      161.030       26.526        0.027      338.836       11.759      864.507
10/21/2013  22:07:00     -143.322      -71.448        2.038       32.522       28.707       21.999     1057.695      824.074      483.950        1.401        0.118      160.144       18.265        0.013      338.847       11.777      864.517
10/21/2013  22:08:00     -122.463      -79.302       -1.179       37.353       32.733       28.712     1395.284     1071.419      824.381        1.229        0.165      145.897       22.176        0.023      338.834       11.755      864.520
10/21/2013  22:09:00     -121.239      -62.685       -5.732       40.847       32.067       23.646     1668.464     1028.286      559.144        1.096        0.163      136.485       20.383        0.022      338.829       11.746      864.527
10/21/2013  22:10:00      -75.120      -55.565        2.434       41.077       37.774       22.991     1687.292     1426.881      528.578        0.619        0.182       93.437       21.556        0.053      338.803       11.704      864.540
10/21/2013  22:11:00     -111.122      -70.869       -2.940       51.973       40.348       23.503     2701.225     1627.941      552.410        1.113        0.244      131.797       25.895        0.039      338.833       11.753      864.536
10/21/2013  22:12:00     -106.732      -74.385        2.509       44.317       38.809       22.900     1964.008     1506.105      524.405        1.046        0.200      130.095       27.795        0.046      338.823       11.735      864.538
10/21/2013  22:13:00      -93.724      -60.845       -2.600       27.398       22.917       19.084      750.637      525.202      364.203        0.707        0.082      111.742       16.683        0.022      338.808       11.711      864.546
10/21/2013  22:14:00      -82.938      -49.523       -7.743       38.716       29.439       18.837     1498.952      866.647      354.828        0.606        0.136       96.598       10.826        0.013      338.816       11.724      864.557
10/21/2013  22:15:00      -66.398      -43.892        4.947       37.772       28.843       20.356     1426.714      831.924      414.352        0.452        0.134       79.594       19.836        0.062      338.705       11.537      864.565
10/21/2013  22:16:00      -75.665      -38.941        0.667       36.894       30.184       20.970     1361.136      911.056      439.756        0.498        0.136       85.098       22.123        0.068      338.695       11.522      864.584
10/21/2013  22:17:00      -43.395      -29.757        5.749       28.485       19.885       19.052      811.416      395.406      362.974        0.219        0.078       52.618       19.236        0.134      338.701       11.530      864.593
10/21/2013  22:18:00      -55.895      -23.427       -0.448       23.799       12.321       14.957      566.384      151.795      223.722        0.231        0.047       60.606       12.685        0.044      338.671       11.479      864.601
10/21/2013  22:19:00      -91.750      -43.594      -14.335       14.450       17.135       12.771      208.797      293.602      163.096        0.559        0.033      101.580        3.975        0.002      338.771       11.648      864.617
10/21/2013  22:20:00     -109.158      -29.166      -16.628       17.918       17.944       12.532      321.065      321.973      157.044        0.692        0.040      112.987        6.448        0.003      338.637       11.424      864.612
10/21/2013  22:21:00     -123.197      -37.530      -16.307       28.493       22.296       15.519      811.824      497.100      240.849        0.920        0.077      128.786        9.806        0.006      338.658       11.459      864.601
10/21/2013  22:22:00      -71.327      -52.274       -5.108       23.295       32.626       24.284      542.646     1064.462      589.713        0.502        0.110       88.431       16.175        0.033      338.604       11.368      864.604
10/21/2013  22:23:00      -93.615      -35.758      -15.097       29.320       26.053       17.911      859.673      678.739      320.799        0.606        0.093      100.211       12.719        0.016      338.604       11.368      864.605
10/21/2013  22:24:00      -71.515      -51.858      -10.919       32.396       32.258       24.395     1049.512     1040.582      595.125        0.530        0.134       88.338       19.145        0.047      338.594       11.352      864.604
10/21/2013  22:25:00     -101.281      -62.455      -19.771       25.300       34.572       12.217      640.078     1195.255      149.251        0.827        0.099      118.989        9.085        0.006      338.561       11.296      864.609
10/21/2013  22:26:00      -94.884      -45.425      -17.839       35.903       32.037       21.593     1289.052     1026.384      466.268        0.708        0.139      105.197       14.045        0.018      338.594       11.352      864.615
10/21/2013  22:27:00      -84.494      -39.412      -18.999       32.256       30.182       20.517     1040.424      910.947      420.947        0.571        0.119       93.234        7.278        0.006      338.634       11.418      864.611
10/21/2013  22:28:00     -103.180      -24.349      -20.516       28.064       23.147       18.287      787.565      535.789      334.406        0.666        0.083      106.015       14.723        0.019      338.631       11.414      864.610
10/21/2013  22:29:00     -109.583      -22.889      -24.340       24.593       36.342       19.917      604.836     1320.714      396.688        0.772        0.116      111.948       16.971        0.023      338.584       11.336      864.619
10/21/2013  22:30:00     -102.614      -25.729      -12.963       22.234       26.266       16.540      494.368      689.905      273.584        0.641        0.073      105.790       12.893        0.015      338.533       11.249      864.622
10/21/2013  22:31:00     -106.400      -30.509      -15.055       17.464       22.717       13.427      304.990      516.078      180.272        0.674        0.050      110.688        8.724        0.006      338.547       11.271      864.621
10/21/2013  22:32:00      -94.800      -34.701      -11.974       18.490       23.324       16.424      341.885      544.003      269.748        0.574        0.058      100.952       11.503        0.013      338.572       11.315      864.630
10/21/2013  22:33:00     -106.896      -43.710      -18.976       20.905       24.800       15.770      437.017      615.051      248.703        0.750        0.065      115.488        8.346        0.005      338.563       11.300      864.631
10/21/2013  22:34:00     -106.157      -35.413      -12.324       19.807       20.687       12.904      392.318      427.963      166.517        0.683        0.049      111.908       11.310        0.010      338.484       11.167      864.621
10/21/2013  22:35:00     -116.945      -36.704      -14.781       13.826       18.267       12.477      191.149      333.693      155.668        0.796        0.034      122.569        9.025        0.005      338.463       11.133      864.622
10/21/2013  22:36:00      -96.352      -45.137      -12.686       14.896       17.856       13.935      221.876      318.842      194.174        0.611        0.037      106.400       10.626        0.010      338.448       11.106      864.631
10/21/2013  22:37:00      -93.900      -23.520      -14.347       16.615       21.067       14.382      276.060      443.830      206.835        0.525        0.046       96.801        9.675        0.010      338.496       11.187      864.621
10/21/2013  22:38:00      -44.925      -41.082      -13.823       26.622       30.045       18.033      708.709      902.693      325.201        0.292        0.097       60.877       18.428        0.092      338.535       11.252      864.636
10/21/2013  22:39:00      -39.297      -25.987        0.087       22.052       16.649       15.887      486.270      277.201      252.404        0.162        0.051       47.112       10.221        0.047      338.570       11.312      864.639
10/21/2013  22:40:00      -86.685      -38.284      -14.791       25.428       21.629       15.900      646.558      467.820      252.807        0.528        0.068       94.762        6.091        0.004      338.620       11.394      864.642
10/21/2013  22:41:00      -98.008      -60.477      -17.281       16.400       20.614       10.905      268.950      424.931      118.908        0.719        0.041      115.165       10.814        0.009      338.516       11.221      864.653
10/21/2013  22:42:00     -108.496      -50.241      -14.875       18.597       20.710       13.605      345.854      428.913      185.109        0.774        0.048      119.564        4.749        0.002      338.421       11.063      864.658
10/21/2013  22:43:00     -150.185      -46.430      -19.594       17.410       15.306        8.866      303.113      234.269       78.602        1.286        0.031      157.198        5.053        0.001      338.402       11.030      864.654
10/21/2013  22:44:00     -128.552      -66.398      -17.672       12.973       17.811       10.869      168.288      317.226      118.125        1.093        0.030      144.687       10.484        0.005      338.347       10.936      864.665
10/21/2013  22:45:00     -107.955      -76.050       -7.359       23.893       23.041       19.364      570.894      530.907      374.955        0.948        0.074      132.053       15.151        0.013      338.411       11.043      864.665
10/21/2013  22:46:00     -118.147      -79.404      -15.992       24.326       24.293       16.464      591.767      590.148      271.061        1.099        0.073      142.351       11.250        0.006      338.432       11.079      864.657
10/21/2013  22:47:00     -129.407      -74.523       -7.465       24.453       20.608       13.638      597.927      424.674      186.008        1.178        0.060      149.332       11.908        0.006      338.380       10.990      864.668
10/21/2013  22:48:00      -96.797      -61.915        0.624       35.048       23.932       18.967     1228.370      572.726      359.749        0.768        0.108      114.905       15.206        0.018      338.288       10.836      864.670
10/21/2013  22:49:00     -102.722      -78.266       -1.495       36.274       25.938       20.773     1315.806      672.796      431.528        0.955        0.121      129.141       18.208        0.020      338.217       10.717      864.665
10/21/2013  22:50:00      -68.146      -62.526        6.153       44.563       33.693       23.220     1985.834     1135.211      539.181        0.613        0.183       92.484       21.620        0.055      338.190       10.675      864.681
10/21/2013  22:51:00      -82.592      -47.755        2.081       50.206       24.999       22.121     2520.594      624.953      489.332        0.637        0.182       95.404       18.665        0.038      338.230       10.740      864.684
10/21/2013  22:52:00      -65.320      -54.435        6.159       52.621       30.552       21.196     2768.995      933.405      449.291        0.571        0.208       85.029       24.052        0.080      338.244       10.763      864.695
10/21/2013  22:53:00      -89.795      -65.068        0.737       48.688       35.212       24.443     2370.537     1239.912      597.451        0.825        0.210      110.892       18.237        0.027      338.256       10.785      864.715
10/21/2013  22:54:00     -110.422      -79.858       -0.801       38.450       31.252       23.106     1478.439      976.691      533.880        1.078        0.149      136.273       23.107        0.029      338.279       10.821      864.711
10/21/2013  22:55:00      -95.393      -51.042        9.493       47.913       38.585       29.796     2295.699     1488.832      887.799        0.823        0.234      108.190       28.171        0.068      338.169       10.638      864.705
10/21/2013  22:56:00     -108.715      -63.838        2.995       50.081       32.635       21.131     2508.140     1065.053      446.516        0.996        0.201      126.072       26.544        0.044      338.199       10.687      864.717
10/21/2013  22:57:00     -126.153      -70.460       -7.891       18.458       18.308       12.862      340.706      335.199      165.444        1.089        0.042      144.496        7.067        0.002      338.198       10.685      864.709
10/21/2013  22:58:00     -114.623      -79.219       -5.130       25.285       18.116       18.123      639.326      328.174      328.452        1.037        0.065      139.335       13.110        0.009      338.216       10.717      864.711
10/21/2013  22:59:00     -109.209      -71.452       -1.167       37.643       24.981       18.912     1416.991      624.071      357.671        0.972        0.120      130.507       18.984        0.021      338.183       10.661      864.723
10/21/2013  23:00:00      -38.227      -21.396        8.315       26.136       25.769       17.930      683.075      664.059      321.477        0.183        0.083       43.808        9.732        0.049      338.106       10.533      864.731
10/21/2013  23:01:00      -71.698      -30.770        0.039       34.979       16.543       13.014     1223.511      273.682      169.355        0.388        0.083       78.022       16.563        0.045      338.150       10.607      864.733
10/21/2013  23:02:00     -108.017      -49.363      -14.730       11.839       11.068        8.420      140.151      122.501       70.900        0.733        0.017      118.762        6.462        0.003      338.226       10.734      864.733
10/21/2013  23:03:00     -102.990      -50.654       -6.795       12.896       10.538        9.749      166.308      111.039       95.045        0.680        0.019      114.773        5.412        0.002      338.196       10.683      864.721
10/21/2013  23:04:00     -110.829      -49.433       -4.477       14.535       11.853        9.468      211.270      140.505       89.641        0.759        0.022      121.353        9.197        0.006      338.148       10.603      864.718
10/21/2013  23:05:00     -112.963      -62.824      -11.479       19.727       11.323       11.368      389.171      128.207      129.235        0.874        0.032      129.258        8.176        0.004      338.110       10.540      864.721
10/21/2013  23:06:00      -86.974      -62.361       -0.258       23.038       15.397       18.557      530.742      237.062      344.346        0.628        0.056      107.020       10.599        0.010      338.092       10.507      864.724
10/21/2013  23:07:00      -91.353      -56.080       -1.336       23.946       20.358       18.532      573.400      414.453      343.451        0.641        0.067      107.193       13.048        0.015      338.057       10.451      864.731
10/21/2013  23:08:00     -108.616      -59.789       -8.782       25.858       17.149       17.445      668.627      294.092      304.324        0.836        0.063      123.985       13.359        0.012      338.070       10.471      864.742
10/21/2013  23:09:00      -86.494      -51.997        1.151       40.094       22.105       20.648     1607.498      488.620      426.345        0.635        0.126      100.921       16.687        0.027      337.990       10.337      864.755
10/21/2013  23:10:00      -94.192      -52.884       -3.652       27.342       14.925       12.707      747.587      222.767      161.466        0.641        0.057      108.022        6.498        0.004      338.023       10.392      864.752
10/21/2013  23:11:00     -119.219      -51.707       -8.631       16.030       13.929       11.337      256.952      194.008      128.530        0.877        0.029      129.949        7.205        0.003      338.017       10.382      864.760
10/21/2013  23:12:00     -110.898      -68.802       -9.379       19.874       18.671       15.475      394.974      348.621      239.469        0.905        0.049      130.507       10.745        0.007      338.006       10.366      864.772
10/21/2013  23:13:00     -102.780      -60.839      -11.382       17.740       14.119       10.947      314.704      199.357      119.840        0.751        0.032      119.436        8.856        0.005      337.942       10.256      864.773
10/21/2013  23:14:00     -118.414      -48.499      -16.480        9.616       15.376        8.534       92.477      236.410       72.833        0.852        0.020      127.961        5.957        0.002      337.872       10.138      864.775
10/21/2013  23:15:00      -98.014      -56.287      -13.629       18.150       14.134       15.495      329.425      199.770      240.110        0.686        0.038      113.027       12.653        0.013      337.903       10.191      864.787
10/21/2013  23:16:00      -91.785      -34.682       -7.580       16.569       14.015       11.043      274.516      196.410      121.938        0.514        0.030       98.119        4.314        0.002      337.850       10.104      864.793
10/21/2013  23:17:00      -85.972      -44.049       -4.704       21.567       16.450       13.696      465.123      270.595      187.579        0.514        0.046       96.599       12.245        0.016      337.809       10.033      864.794
10/21/2013  23:18:00      -89.136      -44.806      -10.199       10.499        8.767        7.350      110.224       76.853       54.016        0.515        0.012       99.764        4.418        0.002      337.912       10.206      864.800
10/21/2013  23:19:00      -75.830      -48.325       -8.033       11.396       10.911       12.057      129.878      119.053      145.377        0.427        0.020       89.920        7.558        0.007      337.947       10.266      864.804
10/21/2013  23:20:00      -56.840      -33.473       -0.204       26.704       13.967       12.873      713.105      195.067      165.725        0.271        0.054       65.964       11.483        0.030      337.885       10.162      864.798
10/21/2013  23:21:00      -66.969      -38.000        0.328       17.216       17.294       13.240      296.397      299.089      175.307        0.335        0.039       76.999       12.351        0.026      337.874       10.143      864.798
10/21/2013  23:22:00      -97.102      -52.424      -10.707       13.839       10.922       12.982      191.530      119.280      168.532        0.639        0.024      110.350        7.546        0.005      337.809       10.034      864.800
10/21/2013  23:23:00      -96.802      -52.357       -3.470       19.460       16.398       14.230      378.683      268.904      202.490        0.649        0.043      110.055        9.522        0.007      337.794       10.008      864.789
10/21/2013  23:24:00      -87.481      -46.496       -8.555       25.910       20.332       14.953      671.309      413.387      223.584        0.560        0.065       99.070        7.905        0.006      337.784        9.993      864.782
10/21/2013  23:25:00      -88.249      -49.483       -8.800       24.146       20.761       15.358      583.037      431.013      235.875        0.578        0.062      101.176        9.340        0.009      337.819       10.052      864.783
10/21/2013  23:26:00     -121.757      -59.867       -8.365       12.970       16.180       11.288      168.219      261.792      127.419        0.952        0.028      135.679        7.416        0.003      337.787        9.998      864.766
10/21/2013  23:27:00     -111.309      -53.030      -14.719       22.840       17.605       12.918      521.678      309.936      166.883        0.821        0.050      123.296       10.348        0.007      337.715        9.877      864.769
10/21/2013  23:28:00     -115.882      -53.636      -18.364       19.159       11.453       10.186      367.049      131.160      103.759        0.862        0.030      127.693        6.647        0.003      337.720        9.884      864.787
10/21/2013  23:29:00     -122.744      -57.630      -18.467       11.146       11.606       10.217      124.241      134.709      104.388        0.955        0.018      135.600        7.468        0.003      337.770        9.969      864.803
10/21/2013  23:30:00     -104.077      -65.241      -17.301       15.913       15.232       12.984      253.223      232.015      168.591        0.802        0.033      122.835        6.338        0.003      337.825       10.062      864.809
10/21/2013  23:31:00      -92.802      -53.834       -2.638       13.872       18.258       13.885      192.443      333.356      192.787        0.612        0.036      107.286        8.079        0.006      337.750        9.935      864.806
10/21/2013  23:32:00     -119.106      -62.712      -10.289        9.734       12.306       10.533       94.746      151.441      110.952        0.929        0.018      134.607        5.077        0.001      337.733        9.908      864.813
10/21/2013  23:33:00     -114.870      -64.862      -13.838        9.450       14.152        8.765       89.296      200.274       76.833        0.898        0.018      131.918        5.454        0.002      337.696        9.844      864.814
10/21/2013  23:34:00      -98.028      -61.922       -6.622       22.195       14.683       14.700      492.620      215.583      216.095        0.721        0.046      115.948        7.584        0.004      337.672        9.804      864.810
10/21/2013  23:35:00     -101.652      -48.223       -5.304       10.829       10.182       10.600      117.256      103.668      112.368        0.651        0.017      112.510        8.529        0.006      337.667        9.797      864.813
10/21/2013  23:36:00      -95.408      -43.084        0.007       21.877       14.050       12.021      478.622      197.416      144.502        0.589        0.041      104.685       10.091        0.009      337.630        9.735      864.806
10/21/2013  23:37:00     -108.830      -45.057      -12.104       11.741       11.918        8.796      137.853      142.047       77.363        0.719        0.018      117.788        5.870        0.002      337.650        9.768      864.797
10/21/2013  23:38:00      -56.260      -35.596        6.240       36.448       22.942       18.019     1328.445      526.317      324.670        0.332        0.109       66.575       18.731        0.079      337.581        9.651      864.811
10/21/2013  23:39:00      -68.021      -38.473       -3.432       20.255       11.622       12.097      410.267      135.078      146.336        0.341        0.035       78.148        7.758        0.010      337.604        9.691      864.814
10/21/2013  23:40:00      -75.825      -42.185       -7.085       25.619       15.636       13.544      656.333      244.487      183.436        0.433        0.054       86.770       14.907        0.030      337.582        9.652      864.821
10/21/2013  23:41:00      -31.085      -36.130       11.295       41.140       23.027       23.993     1692.526      530.237      575.644        0.260        0.140       47.662       23.187        0.237      337.538        9.579      864.828
10/21/2013  23:42:00      -50.033      -44.811        5.062       32.379       22.434       16.582     1048.423      503.273      274.956        0.318        0.091       67.167       17.106        0.065      337.580        9.651      864.833
10/21/2013  23:43:00      -84.288      -51.880       -5.065       29.469       25.473       16.138      868.400      648.872      260.428        0.580        0.089       98.974        6.798        0.005      337.613        9.705      864.836
10/21/2013  23:44:00      -92.799      -51.945       -1.842       25.787       22.299       16.618      664.966      497.266      276.160        0.638        0.072      106.348       13.296        0.016      337.613        9.705      864.836
10/21/2013  23:45:00     -108.235      -49.560       -7.854       12.025       13.841       11.460      144.603      191.563      131.322        0.735        0.023      119.042        7.289        0.004      337.608        9.697      864.838
10/21/2013  23:46:00      -86.044      -28.715        1.346       17.123       17.772       10.024      293.206      315.856      100.484        0.447        0.035       90.709        8.363        0.009      337.559        9.615      864.832
10/21/2013  23:47:00      -63.098      -29.124        4.487       25.255       17.026       13.461      637.836      289.870      181.208        0.298        0.055       69.495       15.330        0.049      337.509        9.531      864.837
10/21/2013  23:48:00      -38.741      -32.058       10.248       28.397       18.147       15.933      806.401      329.302      253.861        0.201        0.069       50.284       12.763        0.064      337.498        9.513      864.850
10/21/2013  23:49:00      -72.824      -50.705       -2.361       32.692       20.954       20.943     1068.798      439.084      438.613        0.491        0.097       88.738       17.332        0.038      337.535        9.573      864.851
10/21/2013  23:50:00      -70.828      -52.230       -0.324       36.618       24.707       18.794     1340.867      610.425      353.196        0.502        0.115       88.003       14.069        0.026      337.435        9.406      864.847
10/21/2013  23:51:00      -58.803      -49.733       -2.693       37.192       32.636       24.726     1383.215     1065.103      611.358        0.450        0.153       77.014       21.108        0.075      337.483        9.486      864.871
10/21/2013  23:52:00      -72.961      -75.960        3.888       49.026       51.062       31.107     2403.516     2607.290      967.644        0.854        0.299      105.324       31.187        0.088      337.515        9.541      864.878
10/21/2013  23:53:00      -86.815      -82.244        6.607       45.400       51.979       28.109     2061.171     2701.793      790.128        0.995        0.278      119.587       24.503        0.042      337.514        9.539      864.878
10/21/2013  23:54:00     -121.226      -64.850       -4.571       54.404       38.672       28.560     2959.760     1495.497      815.691        1.210        0.264      137.482       21.973        0.026      337.606        9.693      864.889
10/21/2013  23:55:00     -107.334      -71.187       -3.960       50.341       43.569       30.591     2534.223     1898.238      935.827        1.099        0.268      128.795       31.571        0.060      337.496        9.509      864.893
10/21/2013  23:56:00     -125.975      -86.260       -4.063       51.471       41.141       26.098     2649.267     1692.605      681.087        1.417        0.251      152.678       21.970        0.021      337.447        9.426      864.901
10/21/2013  23:57:00     -126.936     -111.375       -5.825       37.621       45.162       27.739     1415.347     2039.583      769.448        1.639        0.211      168.870       18.922        0.013      337.447        9.427      864.919
10/21/2013  23:58:00      -89.520      -83.495        5.119       44.487       33.535       26.349     1979.077     1124.589      694.285        0.940        0.190      122.414       27.730        0.051      337.439        9.413      864.928
10/21/2013  23:59:00     -102.418      -63.158       -6.367       48.676       32.263       25.888     2369.308     1040.899      670.191        0.930        0.204      120.326       22.260        0.034      337.406        9.359      864.926
